[[{"header":{"parameterUnit":"m.s-1","parameterCategory":1,"la1":30.6,"la2":28.766,"lo1":-90.7593,"lo2":-88.6598,"dy":0.0162,"dx":0.0183,"nx":116,"ny":114,"refTime":"2023-03-27T18:00:00:Z","depth":0,"parameterNumber":2,"parameterNumberName":"U-component_of_WINDS"},"data":[0.0,0.0,0.0,0.0,0.0,0.0,0.0,0.0,0.0,0.0,0.0,0.0,0.0,0.0,0.0,0.0,0.0,0.0,0.0,0.0,0.0,0.0,0.0,0.0,0.0,0.0,0.0,0.0,0.0,0.0,0.0,0.0,0.0,0.0,0.0,0.0,0.0,0.0,0.0,0.0,0.0,0.0,0.0,0.0,0.0,0.0,0.0,0.0,0.0,0.0,0.0,0.0,0.0,0.0,0.0,0.0,0.0,0.0,0.0,0.0,0.0,0.0,0.0,0.0,0.0,0.0,0.0,0.0,0.0,0.0,0.0,0.0,0.0,0.0,0.0,0.0,0.0,0.0,0.0,0.0,0.0,0.0,0.0,0.0,0.0,0.0,0.0,0.0,0.0,0.0,0.0,0.0,0.0,0.0,0.0,0.0,0.0,0.0,0.0,0.0,0.0,0.0,0.0,0.0,0.0,0.0,0.0,0.0,0.0,0.0,0.0,0.0,0.0,0.0,0.0,0.0,0.0,0.0,0.0,0.0,0.0,0.0,0.0,0.0,0.0,0.0,0.0,0.0,0.0,0.0,0.0,0.0,0.0,0.0,0.0,0.0,0.0,0.0,0.0,0.0,0.0,0.0,0.0,0.0,0.0,0.0,0.0,0.0,0.0,0.0,0.0,0.0,0.0,0.0,0.0,0.0,0.0,0.0,0.0,0.0,0.0,0.0,0.0,0.0,0.0,0.0,0.0,0.0,0.0,0.0,0.0,0.0,0.0,0.0,0.0,0.0,0.0,0.0,0.0,0.0,0.0,0.0,0.0,0.0,0.0,0.0,0.0,0.0,0.0,0.0,0.0,0.0,0.0,0.0,0.0,0.0,0.0,0.0,0.0,0.0,0.0,0.0,0.0,0.0,0.0,0.0,0.0,0.0,0.0,0.0,0.0,0.0,0.0,0.0,0.0,0.0,0.0,0.0,0.0,0.0,0.0,0.0,0.0,0.0,0.0,0.0,0.0,0.0,0.0,0.0,0.0,0.0,0.0,0.0,0.0,0.0,0.0,0.0,0.0,0.0,0.0,0.0,0.0,0.0,0.0,0.0,0.0,0.0,0.0,0.0,0.0,0.0,0.0,0.0,0.0,0.0,0.0,0.0,0.0,0.0,0.0,0.0,0.0,0.0,0.0,0.0,0.0,0.0,0.0,0.0,0.0,0.0,0.0,0.0,0.0,0.0,0.0,0.0,0.0,0.0,0.0,0.0,0.0,0.0,0.0,0.0,0.0,0.0,0.0,0.0,0.0,0.0,0.0,0.0,0.0,0.0,0.0,0.0,0.0,0.0,0.0,0.0,0.0,0.0,0.0,0.0,0.0,0.0,0.0,0.0,0.0,0.0,0.0,0.0,0.0,0.0,0.0,0.0,0.0,0.0,0.0,0.0,0.0,0.0,0.0,0.0,0.0,0.0,0.0,0.0,0.0,0.0,0.0,0.0,0.0,0.0,0.0,0.0,0.0,0.0,0.0,0.0,0.0,0.0,0.0,0.0,0.0,0.0,0.0,0.0,0.0,0.0,0.0,0.0,0.0,0.0,0.0,0.0,0.0,0.0,0.0,0.0,0.0,0.0,0.0,0.0,0.0,0.0,0.0,0.0,0.0,0.0,0.0,0.0,0.0,0.0,0.0,0.0,0.0,0.0,0.0,0.0,0.0,0.0,0.0,0.0,0.0,0.0,0.0,0.0,0.0,0.0,0.0,0.0,0.0,0.0,0.0,0.0,0.0,0.0,0.0,0.0,0.0,0.0,0.0,0.0,0.0,0.0,0.0,0.0,0.0,0.0,0.0,0.0,0.0,0.0,0.0,0.0,0.0,0.0,0.0,0.0,0.0,0.0,0.0,0.0,0.0,0.0,0.0,0.0,0.0,0.0,0.0,0.0,0.0,0.0,0.0,0.0,0.0,0.0,0.0,0.0,0.0,0.0,0.0,0.0,0.0,0.0,0.0,0.0,0.0,0.0,0.0,0.0,0.0,0.0,0.0,0.0,0.0,0.0,0.0,0.0,0.0,0.0,0.0,0.0,0.0,0.0,0.0,0.0,0.0,0.0,0.0,0.0,0.0,0.0,0.0,0.0,0.0,0.0,0.0,0.0,0.0,0.0,0.0,0.0,0.0,0.0,0.0,0.0,0.0,0.0,0.0,0.0,0.0,0.0,0.0,0.0,0.0,0.0,0.0,0.0,0.0,0.0,0.0,0.0,0.0,0.0,0.0,0.0,0.0,0.0,0.0,0.0,0.0,0.0,0.0,0.0,0.0,0.0,0.0,0.0,0.0,0.0,0.0,0.0,0.0,0.0,0.0,0.0,0.0,0.0,0.0,0.0,0.0,0.0,0.0,0.0,0.0,0.0,0.0,0.0,0.0,0.0,0.0,0.0,0.0,0.0,0.0,0.0,0.0,0.0,0.0,0.0,0.0,0.0,0.0,0.0,0.0,0.0,0.0,0.0,0.0,0.0,0.0,0.0,0.0,0.0,0.0,0.0,0.0,0.0,0.0,0.0,0.0,0.0,0.0,0.0,0.0,0.0,0.0,0.0,0.0,0.0,0.0,0.0,0.0,0.0,0.0,0.0,0.0,0.0,0.0,0.0,0.0,0.0,0.0,0.0,0.0,0.0,0.0,0.0,0.0,0.0,0.0,0.0,0.0,0.0,0.0,0.0,0.0,0.0,0.0,0.0,0.0,0.0,0.0,0.0,0.0,0.0,0.0,0.0,0.0,0.0,0.0,0.0,0.0,0.0,0.0,0.0,0.0,0.0,0.0,0.0,0.0,0.0,0.0,0.0,0.0,0.0,0.0,0.0,0.0,0.0,0.0,0.0,0.0,0.0,0.0,0.0,0.0,0.0,0.0,0.0,0.0,0.0,0.0,0.0,0.0,0.0,0.0,0.0,0.0,0.0,0.0,0.0,0.0,0.0,0.0,0.0,0.0,0.0,0.0,0.0,0.0,0.0,0.0,0.0,0.0,0.0,0.0,0.0,0.0,0.0,0.0,0.0,0.0,0.0,0.0,0.0,0.0,0.0,0.0,0.0,0.0,0.0,0.0,0.0,0.0,0.0,0.0,0.0,0.0,0.0,0.0,0.0,0.0,0.0,0.0,0.0,0.0,0.0,0.0,0.0,0.0,0.0,0.0,0.0,0.0,0.0,0.0,0.0,0.0,0.0,0.0,0.0,0.0,0.0,0.0,0.0,0.0,0.0,0.0,0.0,0.0,0.0,0.0,0.0,0.0,0.0,0.0,0.0,0.0,0.0,0.0,0.0,0.0,0.0,0.0,0.0,0.0,0.0,0.0,0.0,0.0,0.0,0.0,0.0,0.0,0.0,0.0,0.0,0.0,0.0,0.0,0.0,0.0,0.0,0.0,0.0,0.0,0.0,0.0,0.0,0.0,0.0,0.0,0.0,0.0,0.0,0.0,0.0,0.0,0.0,0.0,0.0,0.0,0.0,0.0,0.0,0.0,0.0,0.0,0.0,0.0,0.0,0.0,0.0,0.0,0.0,0.0,0.0,0.0,0.0,0.0,0.0,0.0,0.0,0.0,0.0,0.0,0.0,0.0,0.0,0.0,0.0,0.0,0.0,0.0,0.0,0.0,0.0,0.0,0.0,0.0,0.0,0.0,0.0,0.0,0.0,0.0,0.0,0.0,0.0,0.0,0.0,0.0,0.0,0.0,0.0,0.0,0.0,0.0,0.0,0.0,0.0,0.0,0.0,0.0,0.0,0.0,0.0,0.0,0.0,0.0,0.0,0.0,0.0,0.0,0.0,0.0,0.0,0.0,0.0,0.0,0.0,0.0,0.0,0.0,0.0,0.0,0.0,0.0,0.0,0.0,0.0,0.0,0.0,0.0,0.0,0.0,0.0,0.0,0.0,0.0,0.0,0.0,0.0,0.0,0.0,0.0,0.0,0.0,0.0,0.0,0.0,0.0,0.0,0.0,0.0,0.0,0.0,0.0,0.0,0.0,0.0,0.0,0.0,0.0,0.0,0.0,0.0,0.0,0.0,0.0,0.0,0.0,0.0,0.0,0.0,0.0,0.0,0.0,0.0,0.0,0.0,0.0,0.0,0.0,0.0,0.0,0.0,0.0,0.0,0.0,0.0,0.0,0.0,0.0,0.0,0.0,0.0,0.0,0.0,0.0,0.0,0.0,0.0,0.0,0.0,0.0,0.0,0.0,0.0,0.0,0.0,0.0,0.0,0.0,0.0,0.0,0.0,0.0,0.0,0.0,0.0,0.0,0.0,0.0,0.0,0.0,0.0,0.0,0.0,0.0,0.0,0.0,0.0,0.0,0.0,0.0,0.0,0.0,0.0,0.0,0.0,0.0,0.0,0.0,0.0,0.0,0.0,0.0,0.0,0.0,0.0,0.0,0.0,0.0,0.0,0.0,0.0,0.0,0.0,0.0,0.0,0.0,0.0,0.0,0.0,0.0,0.0,0.0,0.0,0.0,0.0,0.0,0.0,0.0,0.0,0.0,0.0,0.0,0.0,0.0,0.0,0.0,0.0,0.0,0.0,0.0,0.0,0.0,0.0,0.0,0.0,0.0,0.0,0.0,0.0,0.0,0.0,0.0,0.0,0.0,0.0,0.0,0.0,0.0,0.0,0.0,0.0,0.0,0.0,0.0,0.0,0.0,0.0,0.0,0.0,0.0,0.0,0.0,0.0,0.0,0.0,0.0,0.0,0.0,0.0,0.0,0.0,0.0,0.0,0.0,0.0,0.0,0.0,0.0,0.0,0.0,0.0,0.0,0.0,0.0,0.0,0.0,0.0,0.0,0.0,0.0,0.0,0.0,0.0,0.0,0.0,0.0,0.0,0.0,0.0,0.0,0.0,0.0,0.0,0.0,0.0,0.0,0.0,0.0,0.0,0.0,0.0,0.0,0.0,0.0,0.0,0.0,0.0,0.0,0.0,0.0,0.0,0.0,0.0,0.0,0.0,0.0,0.0,0.0,0.0,0.0,0.0,0.0,0.0,0.0,0.0,0.0,0.0,0.0,0.0,0.0,0.0,0.0,0.0,0.0,0.0,0.0,0.0,0.0,0.0,0.0,0.0,0.0,0.0,0.0,0.0,0.0,0.0,0.0,0.0,0.0,0.0,0.0,0.0,0.0,0.0,0.0,0.0,0.0,0.0,0.0,0.0,0.0,0.0,0.0,0.0,0.0,0.0,0.0,0.0,0.0,0.0,0.0,0.0,0.0,0.0,0.0,0.0,0.0,0.0,0.0,0.0,0.0,0.0,0.0,0.0,0.0,0.0,0.0,0.0,0.0,0.0,0.0,0.0,0.0,0.0,0.0,0.0,0.0,0.0,0.0,0.0,0.0,0.0,0.0,0.0,0.0,0.0,0.0,0.0,0.0,0.0,0.0,0.0,0.0,0.0,0.0,0.0,0.0,0.0,0.0,0.0,0.0,0.0,0.0,0.0,0.0,0.0,0.0,0.0,0.0,0.0,0.0,0.0,0.0,0.0,0.0,0.0,0.0,0.0,0.0,0.0,0.0,0.0,0.0,0.0,0.0,0.0,0.0,0.0,0.0,0.0,0.0,0.0,0.0,0.0,0.0,0.0,0.0,0.0,0.0,0.0,0.0,0.0,0.0,0.0,0.0,0.0,0.0,0.0,0.0,0.0,0.0,0.0,0.0,0.0,0.0,0.0,0.0,0.0,0.0,0.0,0.0,0.0,0.0,0.0,0.0,0.0,0.0,0.0,0.0,0.0,0.0,0.0,0.0,0.0,0.0,0.0,0.0,0.0,0.0,0.0,0.0,0.0,0.0,0.0,0.0,0.0,0.0,0.0,0.0,0.0,0.0,0.0,0.0,0.0,0.0,0.0,0.0,0.0,0.0,0.0,0.0,0.0,0.0,0.0,0.0,0.0,0.0,0.0,0.0,0.0,0.0,0.0,0.0,0.0,0.0,0.0,0.0,0.0,0.0,0.0,0.0,0.0,0.0,0.0,0.0,0.0,0.0,0.0,0.0,0.0,0.0,0.0,0.0,0.0,0.0,0.0,0.0,0.0,0.0,0.0,0.0,0.0,0.0,0.0,0.0,0.0,0.0,0.0,3.9642,0.0,0.0,0.0,0.0,0.0,0.0,0.0,0.0,0.0,0.0,0.0,0.0,0.0,0.0,0.0,0.0,0.0,0.0,0.0,0.0,0.0,0.0,0.0,0.0,0.0,0.0,0.0,0.0,0.0,0.0,0.0,0.0,0.0,0.0,0.0,0.0,0.0,0.0,0.0,0.0,0.0,0.0,0.0,0.0,0.0,0.0,0.0,0.0,0.0,0.0,0.0,0.0,0.0,0.0,0.0,0.0,0.0,0.0,0.0,0.0,0.0,0.0,0.0,0.0,0.0,0.0,0.0,0.0,0.0,0.0,0.0,0.0,0.0,0.0,0.0,0.0,0.0,0.0,0.0,0.0,0.0,0.0,0.0,0.0,0.0,0.0,0.0,0.0,0.0,0.0,0.0,0.0,0.0,0.0,0.0,0.0,0.0,0.0,0.0,0.0,0.0,0.0,0.0,0.0,0.0,0.0,0.0,0.0,0.0,0.0,0.0,0.0,0.0,0.0,0.0,0.0,3.9484,0.0,0.0,0.0,0.0,0.0,0.0,0.0,0.0,0.0,0.0,0.0,0.0,0.0,0.0,0.0,0.0,0.0,0.0,0.0,0.0,0.0,0.0,0.0,0.0,0.0,0.0,0.0,0.0,0.0,0.0,0.0,0.0,0.0,0.0,0.0,0.0,0.0,0.0,0.0,0.0,0.0,0.0,0.0,0.0,0.0,0.0,0.0,0.0,0.0,0.0,0.0,0.0,0.0,0.0,0.0,0.0,0.0,0.0,0.0,0.0,0.0,0.0,0.0,0.0,0.0,0.0,0.0,0.0,0.0,0.0,0.0,0.0,0.0,0.0,0.0,0.0,0.0,0.0,0.0,0.0,0.0,0.0,0.0,0.0,0.0,0.0,0.0,0.0,0.0,0.0,0.0,0.0,0.0,0.0,0.0,0.0,0.0,0.0,0.0,0.0,0.0,0.0,0.0,0.0,0.0,0.0,0.0,0.0,3.904,3.9218,3.9272,3.9272,3.9272,3.9272,3.9272,3.9272,3.9272,0.0,0.0,0.0,0.0,0.0,0.0,0.0,0.0,0.0,0.0,0.0,0.0,0.0,0.0,0.0,0.0,0.0,0.0,0.0,0.0,0.0,0.0,0.0,0.0,0.0,0.0,0.0,0.0,0.0,0.0,0.0,0.0,0.0,0.0,0.0,0.0,0.0,0.0,2.8431,2.851,2.851,2.851,2.851,2.851,0.0,0.0,0.0,0.0,0.0,0.0,0.0,0.0,0.0,0.0,0.0,0.0,0.0,0.0,0.0,0.0,0.0,0.0,0.0,0.0,0.0,0.0,0.0,0.0,0.0,0.0,0.0,0.0,0.0,0.0,0.0,0.0,0.0,0.0,0.0,0.0,0.0,0.0,0.0,0.0,0.0,0.0,0.0,3.5657,3.535,0.0,0.0,0.0,0.0,0.0,0.0,0.0,0.0,0.0,0.0,0.0,0.0,0.0,0.0,3.7599,3.7902,3.8189,3.8448,3.875,3.904,3.9272,3.9272,3.9272,3.9272,3.9272,0.0,3.9325,3.9312,0.0,0.0,0.0,0.0,0.0,0.0,0.0,0.0,0.0,0.0,0.0,0.0,0.0,0.0,0.0,0.0,0.0,0.0,0.0,0.0,0.0,0.0,0.0,0.0,0.0,0.0,0.0,0.0,0.0,0.0,0.0,0.0,0.0,0.0,0.0,0.0,2.8351,2.851,2.851,2.851,2.851,2.851,2.851,2.851,2.851,2.851,0.0,0.0,0.0,0.0,0.0,0.0,0.0,0.0,0.0,0.0,0.0,0.0,0.0,0.0,0.0,0.0,0.0,0.0,0.0,0.0,0.0,0.0,0.0,0.0,0.0,0.0,0.0,0.0,0.0,0.0,0.0,0.0,0.0,0.0,0.0,0.0,0.0,0.0,0.0,3.535,3.5415,3.5234,3.5169,3.5103,0.0,0.0,0.0,0.0,0.0,0.0,0.0,0.0,0.0,3.7298,3.7551,3.7801,3.7992,3.8091,3.8262,3.8391,3.8504,3.8655,3.8782,3.8782,3.8782,3.8782,3.8931,3.8931,3.8838,3.9007,3.8952,3.875,0.0,0.0,0.0,0.0,0.0,3.8448,0.0,0.0,0.0,0.0,0.0,0.0,0.0,0.0,0.0,0.0,0.0,0.0,0.0,0.0,0.0,2.4288,0.0,0.0,0.0,0.0,0.0,0.0,0.0,0.0,0.0,0.0,0.0,2.8042,2.8351,2.851,2.851,2.851,2.851,2.851,2.851,2.851,2.851,2.851,2.851,0.0,0.0,0.0,0.0,0.0,0.0,0.0,0.0,0.0,0.0,0.0,0.0,0.0,0.0,0.0,0.0,0.0,0.0,0.0,0.0,0.0,0.0,0.0,0.0,0.0,0.0,0.0,0.0,0.0,0.0,0.0,0.0,0.0,0.0,0.0,0.0,0.0,0.0,3.5365,3.5494,3.5234,3.5429,3.5365,0.0,0.0,0.0,0.0,0.0,0.0,3.6708,3.7105,3.727,3.7207,3.7594,3.7918,3.818,3.8164,3.8221,3.8262,3.8262,3.8335,3.8391,3.8391,3.8391,3.8391,3.86,3.86,3.8448,3.8766,3.886,3.8694,3.8544,3.8391,3.8262,3.8391,3.8335,3.8375,0.0,0.0,0.0,0.0,0.0,0.0,0.0,0.0,0.0,0.0,0.0,0.0,0.0,0.0,2.3897,2.4718,2.479,2.4844,0.0,0.0,0.0,0.0,0.0,0.0,0.0,0.0,0.0,2.8431,2.851,2.851,2.851,2.851,2.851,2.851,2.851,2.851,2.851,2.851,2.851,2.851,0.0,0.0,0.0,0.0,0.0,0.0,0.0,0.0,0.0,0.0,0.0,0.0,0.0,0.0,0.0,0.0,0.0,0.0,0.0,0.0,0.0,0.0,0.0,0.0,0.0,0.0,0.0,0.0,0.0,0.0,0.0,0.0,0.0,0.0,0.0,0.0,0.0,0.0,0.0,3.5299,3.6006,0.0,0.0,0.0,0.0,3.5913,3.5976,3.618,3.6646,3.6723,3.6968,3.7464,3.7539,3.7539,3.7539,3.7539,3.7685,3.7943,3.7943,3.8075,3.8391,3.8391,3.8391,3.8391,3.8391,3.8391,3.8464,3.9056,3.8947,3.8448,3.8711,3.8399,3.7943,3.8262,3.8205,3.8001,0.0,0.0,0.0,0.0,0.0,0.0,0.0,0.0,0.0,0.0,0.0,0.0,0.0,2.4371,2.4814,2.5111,2.5111,2.5266,2.5704,0.0,0.0,0.0,0.0,0.0,0.0,0.0,2.851,2.851,2.851,2.851,2.851,2.851,2.851,2.851,2.851,2.851,2.851,2.851,2.851,2.851,2.851,2.851,0.0,0.0,0.0,0.0,0.0,0.0,0.0,0.0,0.0,0.0,0.0,0.0,0.0,0.0,0.0,0.0,0.0,0.0,0.0,0.0,0.0,0.0,0.0,0.0,0.0,0.0,0.0,0.0,0.0,0.0,0.0,0.0,0.0,0.0,0.0,0.0,0.0,3.5721,3.6258,0.0,3.5976,3.618,3.6383,3.6383,3.6754,3.7013,3.7225,3.7225,3.7285,3.748,3.748,3.748,3.748,3.748,3.7539,3.7626,3.7626,3.77,3.7817,3.7817,3.7817,3.7817,3.8033,3.7976,3.7892,3.8448,3.8616,3.8391,3.8504,3.8432,3.8205,3.8335,3.8335,3.8262,0.0,0.0,0.0,0.0,0.0,0.0,0.0,0.0,0.0,0.0,0.0,2.4192,2.4288,2.4945,2.5312,2.5312,2.5312,2.5612,2.6334,0.0,0.0,0.0,2.7417,0.0,0.0,2.8351,2.851,2.851,2.851,2.851,2.851,2.851,2.851,2.851,2.851,2.851,2.851,2.851,2.851,2.851,2.851,2.851,2.851,0.0,0.0,0.0,0.0,0.0,0.0,0.0,0.0,0.0,0.0,0.0,0.0,0.0,0.0,0.0,0.0,0.0,0.0,0.0,0.0,0.0,0.0,0.0,0.0,0.0,0.0,0.0,0.0,0.0,0.0,0.0,0.0,0.0,0.0,0.0,3.607,3.5737,3.6258,3.6523,3.5976,3.6569,3.6968,3.6968,3.7285,3.748,3.748,3.748,3.748,3.748,3.748,3.748,3.748,3.748,3.748,3.748,3.748,3.748,3.748,3.748,3.7607,3.7828,3.8034,3.8102,3.822,3.8638,3.8611,3.8444,3.8432,3.8335,3.8205,3.8205,3.8148,3.8107,0.0,0.0,0.0,0.0,0.0,0.0,0.0,0.0,0.0,0.0,2.3401,2.4288,2.479,2.5111,2.5312,2.5312,2.5312,2.5769,2.6863,2.5492,0.0,0.0,0.0,0.0,2.851,2.851,2.851,2.851,2.851,2.851,2.851,2.851,2.851,2.851,2.851,2.851,2.851,2.851,2.851,2.851,2.851,2.851,2.851,0.0,0.0,0.0,0.0,0.0,0.0,0.0,0.0,0.0,0.0,0.0,0.0,0.0,0.0,0.0,0.0,0.0,0.0,0.0,0.0,0.0,0.0,0.0,0.0,0.0,0.0,0.0,0.0,0.0,0.0,0.0,0.0,0.0,3.5169,3.5234,3.5234,3.5234,3.6133,3.6507,3.5991,3.6892,3.748,3.748,3.748,3.748,3.748,3.748,3.748,3.748,3.748,3.748,3.748,3.7496,3.7512,3.7512,3.7528,3.7543,3.7543,3.7543,3.7907,3.8539,3.8539,3.8902,3.9503,3.9503,3.9123,3.8537,3.8412,3.8164,3.7886,3.7886,3.7727,3.7524,0.0,0.0,0.0,0.0,0.0,0.0,0.0,0.0,0.0,0.0,2.3779,2.4348,2.5111,2.5241,2.5312,2.5312,2.5312,2.5769,2.6863,0.0,0.0,0.0,2.7869,0.0,2.851,2.851,2.851,2.851,2.851,2.851,2.851,2.851,2.851,2.851,2.851,2.851,2.851,2.851,2.851,2.851,2.851,2.851,2.851,0.0,0.0,0.0,0.0,0.0,0.0,0.0,0.0,0.0,0.0,0.0,0.0,0.0,0.0,0.0,0.0,0.0,0.0,0.0,0.0,0.0,0.0,0.0,0.0,0.0,0.0,0.0,0.0,0.0,0.0,0.0,0.0,3.4735,3.5169,3.5479,3.5864,3.6258,3.6523,3.6769,3.7029,3.7345,3.7345,3.6968,3.7285,3.7345,3.6907,3.7285,3.748,3.748,3.748,3.748,3.748,3.7986,3.8239,3.8239,3.8713,3.895,3.895,3.895,3.9044,3.9234,3.9234,3.9329,3.9503,3.9503,3.9392,3.9155,3.8674,3.8146,3.7642,3.7642,3.7583,3.7539,0.0,0.0,0.0,0.0,0.0,0.0,0.0,0.0,0.0,0.0,2.3643,2.442,2.5229,2.5312,2.5312,2.5312,2.5373,2.5718,2.6562,0.0,0.0,0.0,2.795,2.8283,2.851,2.851,2.851,2.851,2.851,2.851,2.851,2.851,2.851,2.851,2.851,2.851,2.851,2.851,2.851,2.851,2.851,2.851,2.851,2.851,2.851,2.851,2.851,2.851,2.851,2.851,0.0,0.0,0.0,0.0,0.0,0.0,0.0,0.0,0.0,0.0,0.0,0.0,0.0,0.0,0.0,0.0,0.0,0.0,0.0,0.0,0.0,0.0,0.0,0.0,3.4264,3.4534,3.4787,3.5103,3.5479,3.6006,3.6258,3.6383,3.6523,3.6907,3.7044,3.6723,3.6968,3.7105,3.7044,3.7345,3.7607,3.7907,3.7923,3.8049,3.8333,3.8728,3.8934,3.8934,3.9313,3.9503,3.9503,3.9503,3.9677,0.0,3.9961,4.0119,4.0372,4.0372,4.0214,0.0,0.0,0.0,0.0,0.0,3.8333,3.8333,0.0,0.0,0.0,0.0,0.0,0.0,0.0,0.0,0.0,0.0,0.0,2.4337,2.5229,2.5312,2.5312,2.5312,2.5431,2.5777,0.0,0.0,2.7903,2.7893,2.8283,2.851,2.851,2.851,2.851,2.851,2.851,2.851,2.851,2.851,2.851,2.851,2.851,2.851,2.851,2.851,2.851,2.851,2.851,2.851,2.851,2.851,2.851,2.851,2.851,2.851,2.851,2.851,0.0,0.0,0.0,0.0,0.0,0.0,0.0,0.0,0.0,0.0,0.0,0.0,0.0,0.0,0.0,0.0,0.0,0.0,0.0,0.0,0.0,0.0,0.0,0.0,3.4346,3.4414,3.4414,3.4414,3.4601,3.5234,3.5608,3.5737,3.5429,3.6133,3.6585,3.6585,3.6662,3.6907,3.7405,0.0,0.0,0.0,0.0,3.8902,3.9487,3.9582,3.9629,3.9629,3.9692,3.974,3.974,3.974,4.0087,4.0704,4.0704,4.1051,4.1588,4.1588,4.1241,4.0625,3.9819,3.9503,3.9503,3.9503,3.9503,0.0,0.0,0.0,0.0,0.0,0.0,0.0,0.0,0.0,0.0,2.2303,2.2933,2.3768,2.5158,2.5312,2.5312,2.5312,2.5721,2.6292,0.0,2.7442,2.7763,2.7869,2.8283,2.851,2.851,2.851,2.851,2.851,2.851,2.851,2.851,2.851,2.851,2.851,2.851,2.851,2.851,2.851,2.851,2.851,2.851,2.851,2.851,2.851,2.851,2.851,2.851,2.851,2.851,2.851,2.851,2.851,2.851,0.0,0.0,0.0,0.0,0.0,0.0,0.0,0.0,0.0,0.0,0.0,0.0,0.0,0.0,0.0,0.0,0.0,0.0,0.0,0.0,3.3839,3.4196,3.4414,3.4414,3.4414,3.4721,3.5672,3.5479,3.5623,3.6336,3.618,3.6054,3.6054,3.6461,3.6723,3.6846,3.7759,0.0,3.8507,3.9029,3.9376,3.9503,4.0087,4.0388,4.0388,0.0,0.0,4.1178,4.1178,4.1257,4.1399,4.1399,4.1478,4.1588,4.1588,4.1509,4.1272,3.9993,3.9503,3.9503,3.9503,3.9503,3.9503,0.0,0.0,0.0,0.0,0.0,0.0,0.0,0.0,0.0,0.0,2.2363,2.3268,2.5134,2.4933,2.4862,2.5229,2.5588,0.0,2.6635,2.7174,2.7513,2.7798,2.8219,2.851,2.851,2.851,2.851,2.851,2.851,2.851,2.851,2.851,2.851,2.851,2.851,2.851,2.851,2.851,2.851,2.851,2.851,2.851,2.851,2.851,2.851,2.851,2.851,2.851,2.851,2.851,2.851,2.851,2.851,2.851,2.851,0.0,0.0,0.0,0.0,0.0,0.0,0.0,0.0,0.0,0.0,0.0,0.0,0.0,0.0,3.1769,0.0,0.0,3.3534,3.3991,3.4264,3.4414,3.4414,3.4414,3.4601,3.5103,3.5169,3.5299,3.5509,3.5559,3.5544,3.5544,3.6389,3.6969,3.7204,3.8372,3.9171,3.955,3.9882,4.0214,4.0546,4.0909,4.1099,4.1099,4.143,4.1588,4.1588,4.1588,4.1588,4.1588,4.1588,4.1588,4.1588,4.1588,4.1588,4.1525,4.083,4.0546,4.0546,4.0546,4.0546,4.0546,0.0,0.0,0.0,0.0,0.0,0.0,0.0,0.0,0.0,0.0,2.1603,2.2667,2.4519,2.4207,2.4238,0.0,0.0,2.571,2.6335,2.6848,2.7287,2.7717,2.8222,2.851,2.851,2.851,2.851,2.851,2.851,2.851,2.851,2.851,2.851,2.851,2.851,2.851,2.851,2.851,2.851,2.851,2.851,2.851,2.851,2.851,2.851,2.851,2.851,2.851,2.851,2.851,2.851,2.851,2.851,2.851,2.851,2.851,2.851,0.0,0.0,0.0,0.0,0.0,0.0,0.0,0.0,0.0,3.038,3.0758,3.1796,3.2577,3.2662,3.3325,3.3991,3.4346,3.4414,3.4414,3.4414,3.4414,3.4414,3.4414,3.4787,3.492,3.4601,3.4854,3.5162,3.5347,3.6381,3.7266,3.7886,3.9078,3.9993,4.0577,4.0735,4.1051,4.1588,4.1588,4.1588,4.1588,4.1588,4.1588,4.1588,4.1588,4.1588,4.1588,4.1588,4.1588,4.1588,4.1588,4.1588,4.1588,4.1588,4.1588,4.1588,4.1588,4.1588,4.1588,0.0,0.0,0.0,0.0,0.0,0.0,0.0,0.0,0.0,0.0,0.0,0.0,0.0,0.0,0.0,0.0,2.5181,2.5757,2.6788,2.6908,2.716,2.7705,2.8222,2.851,2.851,2.851,2.851,2.851,2.851,2.851,2.851,2.851,2.851,2.851,2.851,2.851,2.851,2.851,2.851,2.851,2.851,2.851,2.851,2.851,2.851,2.851,2.851,2.851,2.851,2.851,2.851,2.851,2.851,2.851,2.851,2.851,0.0,2.851,2.851,2.8961,2.9496,3.0101,3.0165,3.0545,0.0,0.0,3.1442,3.2676,3.3115,3.3269,3.3618,3.4045,3.4346,3.4414,3.4414,3.4414,3.4414,3.4414,3.4414,3.4414,3.4467,3.4668,3.5037,3.4721,3.4902,3.5918,3.6652,3.748,3.8534,3.9767,4.0514,4.0609,4.1178,4.1509,4.1588,4.1588,4.1588,4.1588,4.1588,4.1588,4.1588,4.1588,4.1588,4.1588,4.1588,4.1588,4.1588,4.1588,4.1588,4.1588,4.1588,4.1588,4.1588,4.1588,4.1588,4.1588,0.0,0.0,0.0,0.0,0.0,0.0,0.0,0.0,0.0,0.0,0.0,0.0,0.0,0.0,0.0,0.0,2.4536,2.4979,2.5889,2.6274,2.6538,2.6767,2.7596,2.8053,2.8053,2.8354,2.851,2.851,2.851,2.851,2.851,2.851,2.851,2.851,2.851,2.851,2.851,2.851,2.851,2.851,2.851,2.851,2.851,2.851,2.851,2.851,2.851,2.851,0.0,0.0,2.851,2.851,2.851,2.851,2.851,2.851,2.851,0.0,2.9341,2.9716,3.0101,0.0,3.0846,3.0996,3.1663,3.1663,3.1736,3.2503,3.3143,3.3563,3.3479,3.3839,3.4128,0.0,3.4196,3.4128,3.4346,3.4414,3.4414,3.4414,3.4733,3.5103,3.5277,3.5427,3.5828,3.6684,3.7886,3.882,3.9296,4.0522,4.1178,4.1178,4.1446,4.1588,4.1588,4.1588,4.1588,4.1588,4.1588,4.1588,4.1588,4.1588,4.1588,4.1588,4.1588,4.1588,4.1588,4.1588,4.1588,4.1588,4.1588,4.1588,4.1588,4.1588,4.1588,4.1588,0.0,0.0,0.0,0.0,0.0,0.0,0.0,0.0,0.0,0.0,0.0,0.0,0.0,0.0,0.0,2.3218,2.3593,2.412,2.4933,2.5492,2.5862,2.6093,2.7007,2.7572,2.7717,2.8102,2.8366,2.851,2.851,2.851,2.851,2.851,2.851,2.851,2.851,2.851,2.851,2.851,2.851,2.851,2.851,2.851,2.851,2.851,2.851,2.851,2.851,2.851,0.0,0.0,2.851,2.851,2.851,2.851,2.851,2.851,2.851,2.8736,2.9793,0.0,0.0,3.1071,3.1307,3.1468,3.1468,3.1676,3.1982,3.2169,3.2874,3.3409,3.3199,3.3409,3.377,3.4059,3.3839,3.377,3.4196,3.4196,3.4264,3.4414,3.4965,3.543,3.5604,3.6021,3.6561,3.7367,3.8796,3.9689,4.0091,4.1041,4.1588,4.1588,4.1588,4.1588,4.1588,4.1588,4.1588,4.1588,4.1588,4.1588,4.1588,4.1588,4.1588,4.1588,4.1588,4.1588,4.1588,4.1588,4.1588,4.1588,4.1588,4.1588,4.1588,4.1588,4.1588,4.1588,0.0,0.0,0.0,0.0,0.0,0.0,0.0,0.0,0.0,0.0,0.0,0.0,0.0,0.0,0.0,0.0,2.2305,2.3316,2.412,2.4664,2.525,2.6093,2.6647,2.72,2.7717,2.7741,2.7993,2.851,2.851,2.851,2.851,2.851,2.851,2.851,2.851,2.851,2.851,2.851,2.851,2.851,2.851,2.851,2.851,2.851,2.851,2.851,2.851,0.0,0.0,0.0,2.851,2.851,2.851,2.851,0.0,2.851,2.851,0.0,0.0,0.0,3.0469,3.1071,3.1703,3.2169,3.2169,3.2169,3.2169,3.2182,3.2503,3.2704,3.2704,3.3058,3.3339,3.3339,3.3339,3.3409,3.377,3.3839,3.3977,3.4346,3.4965,3.5604,0.0,3.6272,3.6819,3.8005,3.8656,3.9512,4.0737,4.1307,4.1588,4.1588,4.1588,4.1588,4.1588,4.1588,4.1588,4.1588,4.1588,4.1588,4.1588,4.1588,4.1588,4.1588,4.1588,4.1588,4.1588,4.1588,4.1588,4.1588,4.1588,4.1588,4.1588,4.1588,4.1588,4.1588,0.0,0.0,0.0,0.0,0.0,0.0,0.0,0.0,0.0,0.0,0.0,0.0,0.0,0.0,0.0,0.0,0.0,0.0,2.3051,2.3903,2.4519,2.4748,2.5789,2.6466,2.6635,2.7007,2.7452,2.7993,2.7993,2.8162,2.851,2.851,2.851,2.851,2.851,2.851,2.851,2.851,2.851,2.851,2.851,2.851,2.851,2.851,2.851,2.851,0.0,0.0,0.0,0.0,0.0,0.0,2.851,0.0,0.0,2.851,0.0,0.0,0.0,0.0,3.1084,3.1703,3.2009,3.2182,3.2182,3.2182,3.2182,3.2182,3.2444,3.2704,3.2704,3.2846,3.2988,3.3269,3.3058,3.3129,3.3701,3.377,3.4134,3.4994,3.5604,0.0,0.0,0.0,0.0,3.9229,3.9879,4.0551,4.1307,4.1522,4.1588,4.1588,4.1588,4.1588,4.1588,4.1588,4.1588,4.1588,4.1588,4.1588,4.1588,4.1588,4.1588,4.1588,4.1588,4.1588,4.1588,4.1588,4.1588,4.1588,4.1588,4.1588,4.1588,4.1588,4.1588,4.1588,0.0,0.0,0.0,0.0,0.0,0.0,0.0,0.0,0.0,0.0,0.0,0.0,0.0,0.0,0.0,0.0,0.0,0.0,2.1977,2.2673,2.3189,2.3672,2.4515,2.5222,2.563,2.5985,2.6586,2.744,2.744,2.7609,2.7945,2.8138,2.8222,2.8234,2.8426,2.851,2.851,2.851,2.8402,2.8246,2.8426,2.8402,2.8246,2.8438,2.851,0.0,0.0,0.0,0.0,0.0,0.0,0.0,0.0,0.0,0.0,0.0,0.0,0.0,0.0,3.0771,3.1381,3.2009,3.2182,3.2182,3.2182,3.2182,3.2182,3.2182,3.2372,3.2503,3.2503,3.2503,3.2574,3.286,3.2717,3.2717,3.3339,3.3548,3.3998,3.5062,3.5853,3.6577,0.0,0.0,0.0,3.9788,4.027,4.0836,4.1588,4.1588,4.1588,4.1588,4.1588,4.1588,4.1588,4.1588,4.1715,4.1983,4.1983,4.211,4.2347,4.2347,4.2347,4.2347,4.2347,4.2347,4.2347,4.2347,4.2347,4.2347,4.2347,4.2347,4.2315,4.2078,4.1983,4.1952,0.0,0.0,0.0,0.0,0.0,0.0,0.0,0.0,0.0,0.0,0.0,0.0,0.0,0.0,0.0,0.0,0.0,0.0,2.0927,2.1052,2.1629,2.2829,2.2936,2.3613,2.482,2.4832,2.5483,2.6812,2.6812,2.6836,2.686,2.7363,2.7681,2.7705,2.821,2.8426,2.8426,2.8426,2.8138,2.7717,2.8222,2.8126,2.7741,2.8234,0.0,0.0,0.0,0.0,0.0,0.0,0.0,0.0,0.0,0.0,0.0,0.0,0.0,2.9639,3.0165,3.0771,3.1381,3.2023,3.2182,3.2182,3.2182,3.2182,3.2182,3.2182,3.2182,3.2182,0.0,0.0,3.2182,3.2182,3.2182,3.23,3.2704,3.3058,3.3719,0.0,0.0,0.0,0.0,0.0,0.0,3.9819,0.0,4.0393,4.1522,4.1588,4.1588,4.1588,4.1588,4.1588,4.1588,4.1636,4.2015,4.2742,4.2742,4.309,4.3722,4.369,4.369,4.3722,4.3722,4.3722,4.3722,4.3722,4.3722,4.3722,4.3722,4.3722,4.3643,4.2995,4.2742,4.2647,0.0,0.0,0.0,0.0,0.0,0.0,0.0,0.0,0.0,0.0,0.0,0.0,0.0,0.0,0.0,0.0,0.0,0.0,1.9321,2.0447,2.1261,2.1608,2.2466,2.3372,2.4303,2.4303,2.4703,2.5384,2.6003,2.6217,2.5989,2.6752,2.7128,2.714,2.7272,2.7332,2.7332,2.7332,2.726,2.7152,0.0,2.726,2.7152,0.0,0.0,0.0,0.0,0.0,0.0,0.0,0.0,0.0,0.0,2.9184,2.9184,0.0,0.0,3.0696,3.0393,3.1097,3.2023,3.2169,3.2182,3.2182,3.2182,3.2182,3.2182,3.2182,3.2182,3.2182,0.0,0.0,0.0,3.2182,3.2182,0.0,3.3058,3.3269,0.0,3.5711,0.0,3.6751,3.7868,3.8115,0.0,0.0,3.9889,4.0393,4.1522,4.1588,4.1588,4.1588,4.1588,4.1588,4.1588,4.2126,4.2758,4.3469,4.3469,4.3548,4.3722,4.3722,4.3722,4.3722,4.3722,4.3722,4.3722,4.3722,4.3722,4.3722,4.3722,4.3722,4.3706,4.3532,4.3469,4.3437,0.0,0.0,0.0,0.0,0.0,0.0,0.0,0.0,0.0,0.0,0.0,0.0,0.0,0.0,0.0,0.0,0.0,0.0,0.0,1.9499,2.007,2.0272,2.0958,2.1839,2.2754,2.2765,2.3262,2.4223,2.4891,2.5189,2.5198,2.6113,2.6562,2.6574,2.6827,2.6935,2.6935,2.6935,0.0,0.0,0.0,0.0,0.0,0.0,0.0,0.0,0.0,0.0,0.0,0.0,0.0,2.8895,2.8961,2.9197,2.9419,2.9419,0.0,3.0771,3.0696,3.1394,3.2182,3.2182,3.2182,3.2096,3.1863,3.1776,3.1776,3.1776,3.1776,0.0,3.2169,0.0,0.0,0.0,0.0,0.0,3.2731,3.3072,3.3875,0.0,3.6014,0.0,3.7861,3.8127,3.8694,0.0,3.9889,4.0393,4.1522,4.1588,4.1588,4.1588,4.1588,4.1746,4.2062,4.2789,4.3485,4.4164,4.4164,4.4322,4.4638,4.4638,4.4638,4.4638,0.0,4.4638,4.4638,4.4638,4.4638,4.4638,4.4638,4.4638,4.4606,4.4275,4.4164,4.4117,0.0,0.0,0.0,0.0,0.0,0.0,0.0,0.0,0.0,0.0,0.0,0.0,0.0,0.0,0.0,0.0,0.0,0.0,0.0,0.0,0.0,1.9189,1.9258,1.981,2.0969,0.0,0.0,0.0,0.0,0.0,2.4501,2.5493,2.5997,2.6009,2.6502,2.6719,0.0,0.0,0.0,0.0,0.0,0.0,0.0,0.0,0.0,0.0,0.0,0.0,0.0,0.0,2.8755,2.9184,2.8816,2.9118,2.9484,2.9484,3.0024,3.0633,3.0996,3.1629,3.2182,3.2182,3.2182,3.2023,3.1468,3.1307,3.1307,3.1307,0.0,3.1542,3.2096,3.2182,3.2182,3.2182,0.0,3.2255,3.2241,3.286,3.3662,3.4552,3.5711,3.6736,3.7496,3.8127,3.8841,3.9692,3.9905,4.0462,4.1522,4.1588,4.1588,4.1588,4.1683,4.2094,4.2821,4.3516,4.4196,4.4859,4.4859,4.5191,4.5807,4.5807,4.5807,4.5807,0.0,0.0,4.5807,4.5807,4.5807,4.5807,4.5807,4.5807,4.5728,4.5096,4.4859,4.478,0.0,0.0,0.0,0.0,0.0,0.0,0.0,0.0,0.0,0.0,1.7254,1.747,0.0,0.0,0.0,0.0,0.0,0.0,0.0,0.0,0.0,0.0,1.8957,1.9535,0.0,0.0,0.0,0.0,0.0,0.0,2.4209,2.5064,2.5444,2.5444,2.5552,0.0,0.0,0.0,0.0,0.0,0.0,0.0,0.0,0.0,0.0,0.0,0.0,0.0,0.0,0.0,2.8228,2.8816,2.9716,3.0088,3.0165,3.0165,3.0934,3.1629,3.0709,3.132,3.2182,3.2182,3.2182,3.2169,3.2023,3.2023,0.0,0.0,3.2023,3.2096,3.2182,3.2182,3.2182,3.2182,3.2182,0.0,0.0,0.0,3.3733,0.0,0.0,0.0,0.0,0.0,0.0,0.0,0.0,4.0919,4.1588,4.1588,4.1588,4.1588,4.2173,4.2837,4.3532,4.4211,4.4907,4.5618,4.5618,4.5697,4.5807,4.5807,4.5807,4.5807,0.0,0.0,4.5807,4.5807,4.5807,4.5807,4.5807,4.5807,4.5792,4.5665,4.5618,4.5602,0.0,0.0,0.0,0.0,0.0,0.0,0.0,1.7038,1.7166,1.7038,1.7245,1.7314,1.7314,1.7461,1.7461,0.0,0.0,0.0,0.0,0.0,0.0,0.0,0.0,0.0,0.0,0.0,0.0,0.0,0.0,0.0,0.0,0.0,0.0,0.0,0.0,0.0,0.0,0.0,0.0,0.0,0.0,0.0,0.0,0.0,0.0,0.0,0.0,0.0,0.0,0.0,2.83,2.904,2.9639,3.0241,3.0771,3.0771,3.1233,3.1629,3.132,3.1716,3.2182,3.2182,3.2182,3.2096,3.1776,0.0,0.0,0.0,3.1703,3.1776,3.2169,3.2182,0.0,3.2182,3.2182,3.2241,0.0,0.0,0.0,0.0,0.0,0.0,0.0,0.0,0.0,0.0,0.0,4.0935,4.1189,4.1456,4.1588,4.1588,4.2631,4.3358,4.3722,4.4764,4.546,4.5807,4.5807,4.5807,4.5807,4.5807,4.5807,4.5807,4.5807,0.0,4.5807,4.5807,4.5807,4.5807,4.5807,4.5807,4.5807,4.5807,4.5807,4.5807,0.0,0.0,0.0,0.0,0.0,0.0,0.0,1.7038,1.7166,1.7166,1.7166,1.7166,1.7166,1.7254,1.7392,0.0,0.0,0.0,0.0,0.0,0.0,0.0,0.0,0.0,0.0,0.0,0.0,0.0,0.0,0.0,0.0,0.0,0.0,0.0,0.0,0.0,0.0,0.0,0.0,0.0,0.0,0.0,0.0,0.0,0.0,0.0,0.0,0.0,0.0,0.0,2.8273,2.9257,2.9381,3.0241,3.1158,3.0921,3.1084,3.1468,3.1703,3.1863,3.2009,3.2169,3.2096,3.1863,3.1468,3.1381,0.0,0.0,3.1381,3.1542,3.2096,0.0,3.2182,0.0,3.2182,3.2182,3.2182,3.2503,0.0,0.0,0.0,0.0,0.0,0.0,0.0,0.0,0.0,0.0,4.1003,4.139,4.1588,4.1588,4.2947,4.369,4.3722,4.5112,4.5807,4.5807,4.5807,4.5807,4.5807,4.5807,4.5807,4.5807,4.5807,0.0,0.0,4.5807,4.5807,4.5807,4.5807,4.5807,4.5807,4.5807,4.5807,4.5807,0.0,0.0,0.0,0.0,0.0,0.0,0.0,1.6908,1.6908,1.6908,1.6908,1.6908,1.6908,1.6908,1.6978,0.0,0.0,0.0,0.0,0.0,0.0,0.0,0.0,0.0,0.0,0.0,0.0,0.0,0.0,0.0,0.0,0.0,0.0,0.0,0.0,0.0,0.0,0.0,0.0,0.0,0.0,0.0,0.0,0.0,0.0,0.0,0.0,0.0,0.0,0.0,0.0,2.876,2.9257,3.0241,3.0996,2.9871,0.0,0.0,3.0784,3.0846,3.1468,3.2023,3.1703,3.1468,3.2009,0.0,0.0,3.2096,3.2096,3.2096,3.2182,0.0,0.0,0.0,0.0,3.2182,3.2182,3.2503,3.3014,0.0,0.0,0.0,0.0,0.0,0.0,0.0,0.0,0.0,4.1522,4.1588,4.1588,4.1588,4.2947,4.369,4.3722,4.5112,4.5807,4.5807,4.5807,4.5807,4.5807,4.5807,4.5807,4.5807,0.0,0.0,0.0,4.5807,4.5807,4.5807,4.5807,4.5807,4.5807,4.5807,4.5807,4.5807,0.0,0.0,0.0,0.0,0.0,0.0,1.6908,1.6908,1.6908,1.6908,1.6908,1.6908,1.6908,1.6908,1.6908,1.6908,0.0,0.0,0.0,0.0,0.0,0.0,0.0,0.0,0.0,0.0,0.0,0.0,0.0,0.0,0.0,0.0,0.0,0.0,0.0,0.0,0.0,0.0,0.0,0.0,0.0,0.0,0.0,0.0,0.0,0.0,0.0,0.0,0.0,0.0,0.0,0.0,2.8411,2.9453,0.0,0.0,3.1009,3.1542,3.1482,3.1629,3.1863,3.2096,3.2009,3.1776,3.1629,0.0,3.1616,3.1616,3.1616,3.1703,3.2096,3.2182,0.0,0.0,0.0,0.0,3.2182,3.23,3.2686,0.0,0.0,0.0,0.0,0.0,0.0,0.0,0.0,0.0,4.1055,4.139,4.1588,4.1588,4.2947,4.3674,4.369,4.5112,4.5807,4.5807,4.5807,4.5807,4.5807,4.5807,4.5807,4.5807,0.0,0.0,0.0,4.5807,4.5807,4.5807,4.5807,4.5807,4.5807,4.5807,4.5807,4.5807,0.0,0.0,0.0,0.0,0.0,1.6908,1.6908,1.6908,1.6908,1.6908,1.6908,1.6908,1.6908,1.6908,1.6908,1.6908,1.7038,0.0,0.0,0.0,0.0,0.0,0.0,0.0,0.0,0.0,0.0,0.0,0.0,0.0,0.0,0.0,0.0,0.0,0.0,0.0,0.0,0.0,0.0,0.0,0.0,0.0,0.0,0.0,0.0,0.0,0.0,0.0,0.0,0.0,0.0,0.0,0.0,0.0,0.0,0.0,3.0771,3.1233,3.1556,3.1629,3.1716,3.2096,3.195,3.1556,0.0,0.0,3.1468,3.1233,3.1381,3.1629,3.2096,3.2182,3.2182,3.2182,0.0,3.2182,3.2182,3.2182,3.2467,0.0,0.0,0.0,0.0,0.0,0.0,0.0,0.0,0.0,0.0,4.1055,4.1456,4.1588,4.2963,4.369,4.369,4.5096,4.5807,4.5807,4.5807,4.5807,4.5807,4.5807,4.5807,4.5807,0.0,0.0,0.0,4.5807,4.5807,4.5807,4.5807,4.5807,4.5807,4.5807,4.5807,4.5807,0.0,0.0,0.0,0.0,0.0,0.0,1.6908,1.6908,1.6908,1.6908,1.6908,1.6908,1.6908,1.6908,1.6908,1.6908,1.6908,0.0,0.0,0.0,0.0,0.0,0.0,0.0,0.0,0.0,1.7235,1.7235,1.8104,0.0,0.0,0.0,0.0,0.0,0.0,0.0,0.0,0.0,0.0,0.0,0.0,0.0,0.0,0.0,0.0,0.0,0.0,0.0,0.0,0.0,0.0,0.0,0.0,0.0,0.0,0.0,2.9793,3.1071,3.0469,3.0317,3.0633,3.1877,3.1246,3.0469,0.0,0.0,3.2009,3.1307,3.1703,3.2182,3.2182,3.2182,3.2182,3.2182,3.2182,0.0,3.2182,3.2182,0.0,0.0,0.0,0.0,0.0,0.0,0.0,0.0,0.0,0.0,0.0,4.0493,4.1055,4.1588,4.2979,4.3722,4.3722,4.5112,4.5807,4.5807,4.5807,4.5807,4.5807,4.5807,4.5807,0.0,0.0,0.0,0.0,4.5807,4.5807,4.5807,4.5807,4.5807,4.5807,4.5807,4.5807,4.5864,0.0,0.0,0.0,0.0,0.0,0.0,0.0,1.6908,1.6908,1.6908,1.6908,1.6908,1.6908,1.6908,1.6908,1.6908,1.6908,0.0,0.0,0.0,0.0,0.0,0.0,0.0,0.0,0.0,1.7881,1.7881,1.8142,1.8489,1.8844,1.9023,0.0,0.0,0.0,0.0,0.0,0.0,0.0,0.0,0.0,0.0,0.0,0.0,0.0,0.0,0.0,0.0,0.0,0.0,0.0,0.0,0.0,0.0,0.0,2.8402,2.9197,0.0,3.0241,3.0317,3.0406,3.0784,3.0633,3.0317,3.0545,3.0406,3.0482,3.1084,3.1009,3.1172,3.2023,3.2182,3.2182,3.2182,3.2182,0.0,0.0,0.0,0.0,0.0,0.0,0.0,0.0,0.0,0.0,0.0,0.0,0.0,0.0,3.9523,4.0091,4.0987,4.2318,4.3248,4.3722,4.4606,4.5317,4.5807,4.5807,4.5807,4.5807,4.5807,0.0,0.0,0.0,0.0,0.0,4.5807,4.5807,4.5807,4.5807,4.5807,4.5807,4.5807,4.5807,4.5807,0.0,0.0,0.0,0.0,0.0,0.0,0.0,1.6908,1.6908,1.6908,1.6908,1.6908,1.6908,1.6908,1.6908,1.6908,1.6908,0.0,0.0,0.0,0.0,0.0,0.0,0.0,1.6908,1.7423,1.7687,1.7687,1.8075,1.8345,1.869,1.87,1.8844,1.9233,0.0,0.0,0.0,0.0,0.0,0.0,0.0,0.0,2.5312,0.0,0.0,0.0,0.0,0.0,0.0,0.0,0.0,0.0,0.0,0.0,0.0,0.0,2.8736,2.9184,0.0,2.9947,3.0024,3.0241,3.0088,0.0,0.0,3.0024,3.0165,3.0469,3.0784,3.1172,3.1703,3.2023,3.2182,3.2182,3.2182,3.2182,0.0,0.0,0.0,0.0,0.0,0.0,0.0,0.0,0.0,0.0,0.0,0.0,0.0,3.9147,3.9722,4.0424,4.1725,4.2664,4.3327,4.4243,4.4938,4.5396,4.5681,4.5807,4.5807,4.5807,0.0,0.0,0.0,0.0,0.0,4.5807,4.5807,4.5807,4.5807,4.5807,4.5807,4.5807,4.5807,4.5807,0.0,0.0,0.0,0.0,0.0,0.0,0.0,1.6908,1.6908,1.6908,1.6908,1.6908,1.6908,1.6908,1.6908,1.6908,0.0,0.0,0.0,0.0,0.0,0.0,0.0,0.0,1.6908,1.6908,1.6908,1.6908,1.7687,1.8133,1.8142,1.8633,1.8911,1.8911,1.8798,1.9425,2.0655,0.0,0.0,0.0,0.0,0.0,0.0,0.0,0.0,0.0,0.0,0.0,0.0,0.0,0.0,0.0,0.0,0.0,0.0,0.0,0.0,0.0,0.0,2.9341,2.9496,3.0024,0.0,0.0,0.0,0.0,0.0,2.9716,3.0872,3.1936,3.1381,3.1776,3.2182,3.2182,3.2182,0.0,0.0,0.0,0.0,0.0,0.0,0.0,0.0,0.0,0.0,0.0,0.0,0.0,0.0,3.919,3.9819,3.9889,4.1078,4.2022,4.2695,4.3943,4.4591,4.4654,4.5381,4.5728,4.5728,4.5792,0.0,0.0,0.0,0.0,0.0,4.5807,4.5807,4.5807,4.5807,4.5807,4.5807,4.5807,4.5807,4.5864,0.0,0.0,0.0,0.0,0.0,0.0,0.0,0.0,0.0,0.0,1.6908,1.6908,1.6908,1.6908,1.6908,0.0,0.0,0.0,0.0,0.0,0.0,0.0,0.0,0.0,1.6908,1.6908,1.6908,1.6908,1.7107,1.7235,1.7226,1.7501,1.7842,1.8269,1.8337,1.9493,2.1382,2.1945,0.0,0.0,0.0,0.0,0.0,0.0,0.0,0.0,2.5312,2.5312,0.0,0.0,0.0,0.0,0.0,0.0,0.0,0.0,2.8198,2.851,2.8657,0.0,2.8736,2.8895,2.8816,2.8803,0.0,0.0,0.0,0.0,0.0,3.1022,3.179,3.2096,3.2182,3.2182,3.2182,3.2182,0.0,0.0,0.0,0.0,0.0,0.0,0.0,0.0,0.0,0.0,0.0,0.0,0.0,3.8486,3.8972,3.9889,4.0182,4.111,4.2679,4.2995,4.3437,4.3959,4.4654,4.497,4.4986,4.5555,0.0,0.0,0.0,0.0,4.5807,4.5807,4.5807,4.5807,4.5807,4.5807,4.5807,4.5807,4.5807,4.5807,0.0,0.0,0.0,0.0,0.0,0.0,0.0,0.0,0.0,0.0,0.0,1.6908,1.6908,1.6908,0.0,0.0,0.0,0.0,0.0,0.0,0.0,0.0,0.0,1.6908,1.6908,1.6908,1.6908,1.6908,1.6908,1.6908,1.6908,1.7038,1.7245,1.7548,1.8468,1.9805,2.1393,2.2103,2.2957,2.3897,2.4166,0.0,0.0,0.0,0.0,0.0,2.5312,2.5312,0.0,2.5312,2.5312,2.5396,0.0,0.0,0.0,0.0,2.8089,2.851,2.851,2.851,2.851,2.851,2.851,2.859,2.8882,0.0,0.0,0.0,0.0,3.0934,3.1616,3.2023,3.2182,3.2182,3.2182,0.0,0.0,0.0,0.0,0.0,0.0,0.0,0.0,0.0,0.0,0.0,0.0,0.0,0.0,3.8427,3.8929,3.9493,3.9763,4.0647,4.2173,4.2521,4.2884,4.3263,4.3927,4.4259,4.429,4.4986,4.5302,0.0,0.0,0.0,4.5807,4.5807,4.5807,4.5807,4.5807,4.5807,4.5807,4.5807,4.5807,4.5807,0.0,0.0,0.0,0.0,0.0,0.0,0.0,0.0,0.0,0.0,0.0,0.0,0.0,0.0,0.0,0.0,0.0,0.0,0.0,0.0,0.0,0.0,1.6968,1.6908,1.6908,1.6908,1.6908,1.6908,1.6908,1.6908,1.6908,1.6908,1.6908,1.7005,1.8867,2.0104,2.097,2.2407,2.335,2.397,2.4418,0.0,0.0,0.0,0.0,0.0,0.0,0.0,0.0,2.5312,2.5312,2.5384,2.5769,0.0,0.0,0.0,0.0,0.0,2.851,2.851,2.851,2.851,2.851,2.851,2.851,0.0,0.0,0.0,0.0,0.0,0.0,3.179,0.0,0.0,0.0,0.0,0.0,0.0,0.0,0.0,0.0,0.0,0.0,0.0,0.0,0.0,0.0,0.0,0.0,3.8649,3.9031,3.9104,3.9565,4.0255,4.1307,4.207,4.2453,4.2521,4.3232,4.3564,4.3579,4.4259,4.4559,0.0,0.0,0.0,4.5491,4.5602,4.5649,4.5649,4.5776,4.5807,4.5807,4.5807,4.5807,4.5807,0.0,0.0,0.0,0.0,0.0,0.0,0.0,0.0,0.0,0.0,0.0,0.0,0.0,0.0,0.0,0.0,0.0,0.0,0.0,0.0,0.0,1.7579,1.7176,1.6908,1.6908,1.6908,1.6908,1.6908,1.6908,1.6908,1.6908,1.6908,1.6968,1.7204,1.901,1.9971,2.0401,2.1159,2.2004,2.2703,0.0,0.0,0.0,0.0,0.0,0.0,0.0,0.0,0.0,2.5312,2.5312,2.5253,2.5075,0.0,0.0,0.0,0.0,0.0,2.851,2.851,2.851,2.851,2.851,2.851,2.851,0.0,0.0,0.0,0.0,0.0,0.0,0.0,0.0,0.0,0.0,0.0,0.0,0.0,0.0,0.0,0.0,0.0,0.0,0.0,0.0,0.0,0.0,0.0,0.0,0.0,3.8575,3.9104,3.9162,3.9508,4.017,4.0808,4.1294,4.1762,4.2505,4.2837,4.2868,4.3564,4.388,0.0,0.0,4.4022,4.4053,4.4638,4.4875,4.4938,4.557,4.5807,4.5807,4.5807,4.5807,4.5807,0.0,0.0,0.0,0.0,0.0,0.0,0.0,0.0,0.0,0.0,0.0,0.0,0.0,0.0,0.0,0.0,0.0,0.0,0.0,0.0,1.7038,1.7245,1.7038,1.7047,1.7304,1.7038,1.6908,1.6908,1.6908,1.6908,1.6908,1.6908,1.7107,1.7548,1.9,1.9817,2.0103,2.1458,2.2241,2.2628,0.0,0.0,0.0,0.0,0.0,0.0,0.0,0.0,0.0,0.0,2.5312,2.5289,2.5445,0.0,0.0,0.0,0.0,0.0,2.851,2.851,2.859,2.8882,2.8961,2.904,0.0,0.0,0.0,0.0,0.0,0.0,0.0,0.0,0.0,0.0,0.0,0.0,0.0,0.0,0.0,0.0,0.0,0.0,0.0,0.0,0.0,0.0,0.0,0.0,0.0,0.0,3.8352,3.8575,3.8575,3.8987,3.9889,4.02,4.0631,4.1205,4.1534,4.1826,4.2126,4.2837,4.3169,4.3184,0.0,4.3722,4.3722,4.4038,4.418,4.4211,4.4543,4.4907,4.5254,4.5665,4.5807,4.588,0.0,0.0,0.0,0.0,0.0,0.0,0.0,0.0,0.0,0.0,0.0,0.0,0.0,0.0,0.0,0.0,0.0,0.0,0.0,1.6908,1.6968,1.7107,1.6978,1.7107,1.7501,1.7107,1.6908,1.6908,1.6908,1.6908,1.6908,1.6908,1.7107,1.7539,1.8857,1.9538,1.9733,2.1532,2.2402,2.2628,0.0,0.0,0.0,0.0,0.0,0.0,0.0,0.0,0.0,0.0,0.0,0.0,0.0,0.0,0.0,2.7406,2.8011,2.851,2.851,2.851,2.8657,2.9263,2.9263,0.0,0.0,0.0,0.0,0.0,0.0,0.0,0.0,0.0,0.0,0.0,0.0,0.0,0.0,0.0,0.0,0.0,0.0,0.0,0.0,0.0,0.0,0.0,0.0,0.0,0.0,0.0,3.8202,3.8202,3.8202,3.862,3.9463,3.9463,3.9975,4.1003,4.1003,4.1189,4.1604,4.2173,4.2426,4.2457,4.2995,4.3232,4.3232,4.3406,4.3485,4.35,4.3658,4.4038,4.4543,4.5112,4.5428,4.5611,0.0,0.0,0.0,0.0,0.0,0.0,0.0,0.0,0.0,0.0,0.0,0.0,0.0,0.0,0.0,0.0,0.0,0.0,0.0,1.6908,1.7107,1.7638,1.7176,1.6908,1.6968,1.6908,1.6908,1.6908,1.6908,1.6908,1.6908,1.6908,1.6908,1.7005,1.8447,1.9039,1.917,2.0631,2.1634,2.2176,2.2628,0.0,0.0,0.0,0.0,0.0,0.0,0.0,0.0,0.0,0.0,0.0,0.0,0.0,2.6956,2.7084,2.7763,2.851,2.851,2.851,2.8657,2.9263,2.8961,0.0,3.0024,3.0317,0.0,3.0996,0.0,0.0,0.0,0.0,0.0,0.0,0.0,0.0,0.0,0.0,0.0,0.0,0.0,0.0,0.0,0.0,0.0,0.0,0.0,0.0,0.0,0.0,0.0,3.8202,3.8202,3.8277,3.8337,3.8337,3.9406,4.1522,4.1522,4.1588,4.1588,4.1636,4.1667,4.1667,4.1715,4.1746,4.1794,4.2473,4.2758,4.2821,4.3469,4.3753,4.3801,4.3848,4.4259,4.4796,0.0,0.0,0.0,0.0,0.0,0.0,0.0,0.0,0.0,0.0,0.0,0.0,0.0,0.0,0.0,0.0,0.0,0.0,0.0,1.7706,1.7842,1.7706,1.751,1.7245,1.6908,1.6908,1.6908,1.6908,1.6908,1.6908,1.6908,1.6908,1.7037,1.7293,1.8072,1.862,1.8882,2.0062,2.0702,2.1011,2.1766,2.2209,0.0,0.0,0.0,0.0,0.0,0.0,0.0,0.0,2.4338,2.516,2.6071,2.6832,2.7447,2.7896,2.8183,2.851,2.851,2.8736,2.9106,2.9341,2.9263,0.0,0.0,3.0846,3.0921,3.1145,0.0,0.0,0.0,0.0,0.0,0.0,0.0,0.0,0.0,0.0,0.0,0.0,0.0,0.0,0.0,0.0,0.0,0.0,0.0,0.0,0.0,0.0,0.0,3.8202,3.8202,3.8352,3.8723,3.8723,3.958,4.1122,4.0752,4.0888,4.1588,4.1588,4.1588,4.1588,4.1588,4.1588,4.1604,4.1889,4.1999,4.2078,4.2789,4.3074,4.3137,4.3564,4.388,4.4101,0.0,0.0,0.0,0.0,0.0,0.0,0.0,0.0,0.0,0.0,0.0,0.0,0.0,0.0,0.0,0.0,0.0,0.0,1.791,1.8104,1.8172,1.7978,1.7774,1.751,1.7176,1.6978,1.6908,1.6908,1.6908,1.6908,1.6908,1.6908,1.711,1.7513,1.7935,1.8339,1.8733,1.9596,2.001,2.0235,2.0991,2.1364,0.0,0.0,0.0,0.0,0.0,0.0,0.0,0.0,2.3787,2.5067,2.6141,2.7055,2.7825,2.8354,2.8657,2.8816,2.8816,2.9118,2.9419,0.0,0.0,0.0,3.0921,3.1071,3.1009,3.1468,0.0,0.0,0.0,0.0,0.0,0.0,0.0,0.0,0.0,0.0,0.0,0.0,0.0,0.0,0.0,0.0,0.0,0.0,0.0,0.0,0.0,0.0,0.0,0.0,3.8202,3.8427,3.8797,3.8811,3.9307,4.0231,3.9849,4.0324,4.1588,4.1588,4.1588,4.1588,4.1588,4.1588,4.1588,4.1588,4.1588,4.1636,4.2141,4.2347,4.2394,4.2868,4.32,4.339,0.0,0.0,0.0,0.0,0.0,0.0,0.0,0.0,0.0,0.0,0.0,0.0,0.0,0.0,0.0,0.0,0.0,0.0,1.8432,1.8037,1.7978,1.8442,1.7969,1.7706,1.7706,1.7176,1.6908,1.6908,1.6908,1.6908,1.6908,1.6908,1.7119,1.7523,1.7935,1.8348,1.8742,1.9136,1.9618,2.0157,2.0157,2.0624,2.1242,0.0,0.0,0.0,0.0,0.0,0.0,0.0,2.2112,2.3656,2.5267,2.6658,2.7837,2.8354,2.8882,2.9419,2.9419,2.9419,0.0,0.0,0.0,0.0,3.0921,3.0696,3.0633,3.195,0.0,0.0,0.0,0.0,0.0,0.0,0.0,0.0,0.0,0.0,0.0,0.0,0.0,0.0,0.0,0.0,0.0,0.0,0.0,0.0,0.0,0.0,0.0,0.0,3.8202,3.8202,3.8202,3.8202,3.8501,3.9104,3.9104,4.0005,4.1588,4.1588,4.1588,4.1588,4.1588,4.1588,4.1588,4.1588,4.1588,4.1588,4.1588,4.1588,4.1588,4.1588,4.2047,4.2679,0.0,0.0,0.0,0.0,0.0,0.0,0.0,0.0,0.0,0.0,0.0,0.0,0.0,0.0,0.0,0.0,0.0,0.0,1.8499,1.87,1.8566,1.7978,1.8172,1.791,1.7176,1.6968,1.6908,1.6908,1.6908,1.6908,1.6908,1.6908,1.7275,1.7944,1.8064,1.8495,1.9136,1.9256,1.9381,1.9539,1.9539,1.9687,1.9923,0.0,0.0,0.0,0.0,0.0,0.0,0.0,0.0,0.0,2.6593,2.7603,2.8306,2.8462,2.8669,2.8736,2.8736,2.9419,0.0,0.0,0.0,0.0,0.0,3.0696,0.0,0.0,0.0,0.0,0.0,0.0,0.0,0.0,0.0,0.0,0.0,0.0,0.0,0.0,0.0,0.0,0.0,0.0,0.0,0.0,0.0,0.0,0.0,0.0,0.0,0.0,3.8202,3.8202,3.8202,3.8202,3.8501,3.9104,3.9104,3.958,4.0393,4.0836,4.1055,4.1055,4.1456,4.1588,4.1588,4.1588,4.1588,4.1588,4.1588,4.1588,4.1588,4.1588,4.1731,4.192,0.0,0.0,0.0,0.0,0.0,0.0,0.0,0.0,0.0,0.0,0.0,0.0,0.0,0.0,0.0,0.0,0.0,0.0,0.0,1.9243,1.911,1.8654,1.8576,1.7969,1.6908,1.6908,1.6908,1.6908,1.6908,1.6908,1.6908,1.7064,1.7486,1.8128,1.8293,1.8705,1.9301,1.9301,1.9301,1.9301,1.9301,1.9301,1.9301,0.0,0.0,0.0,0.0,0.0,0.0,0.0,0.0,0.0,2.6749,2.7684,2.8351,2.8736,2.8895,2.8961,2.9419,0.0,0.0,0.0,0.0,0.0,0.0,0.0,0.0,0.0,0.0,0.0,0.0,0.0,0.0,0.0,0.0,0.0,0.0,0.0,0.0,0.0,0.0,0.0,0.0,0.0,0.0,0.0,0.0,0.0,0.0,0.0,0.0,0.0,3.8202,3.8202,3.8202,3.8202,3.8352,3.8723,3.8723,3.8929,3.9262,4.006,4.0562,4.0799,4.139,4.1588,4.1588,4.1588,4.1588,4.1588,4.1588,4.1588,4.1588,4.1588,4.1588,4.1588,0.0,0.0,0.0,0.0,0.0,0.0,0.0,0.0,0.0,0.0,0.0,0.0,0.0,0.0,0.0,0.0,0.0,0.0,0.0,1.9518,1.9441,1.9878,1.8921,1.791,1.6908,1.6908,1.6908,1.6908,1.6908,1.6908,1.6917,1.7312,1.7715,1.8137,1.854,1.8935,1.9301,1.9301,1.9301,1.9301,1.9301,1.9301,1.9301,1.9301,0.0,0.0,0.0,0.0,0.0,0.0,0.0,0.0,2.6324,2.723,2.8122,2.904,2.9341,2.9574,3.0696,0.0,0.0,3.179,0.0,0.0,0.0,0.0,0.0,0.0,0.0,0.0,0.0,0.0,0.0,0.0,0.0,0.0,0.0,0.0,0.0,0.0,0.0,0.0,0.0,0.0,0.0,0.0,0.0,0.0,0.0,0.0,0.0,0.0,3.8202,3.8202,3.8202,3.8202,3.8202,0.0,3.8202,3.8202,3.8277,3.9334,4.02,4.0799,4.139,4.1588,4.1588,4.1588,4.1588,4.1588,4.1588,4.1588,4.1588,4.1588,4.1588,4.1588,0.0,0.0,0.0,0.0,0.0,0.0,0.0,0.0,0.0,0.0,0.0,0.0,0.0,0.0,0.0,0.0,0.0,0.0,0.0,1.871,1.8509,1.825,1.7579,1.7176,1.6908,1.6908,1.6908,1.6908,1.6908,1.6908,1.6917,1.7312,1.7715,1.8137,1.854,1.8935,1.9301,1.9301,1.9301,1.9301,1.9301,1.9301,1.9301,1.9301,1.9301,0.0,0.0,0.0,0.0,0.0,0.0,0.0,2.7584,2.8176,2.8431,2.8657,2.8657,2.8816,2.9561,3.0024,0.0,0.0,0.0,0.0,0.0,0.0,0.0,0.0,0.0,0.0,0.0,0.0,0.0,0.0,0.0,0.0,0.0,0.0,0.0,0.0,0.0,0.0,0.0,0.0,0.0,0.0,0.0,0.0,0.0,0.0,0.0,3.8202,3.8202,3.8202,3.8202,3.8202,3.8202,0.0,3.8202,3.8202,3.8202,3.8929,3.9793,4.0799,4.139,4.1588,4.1588,4.1588,4.1588,4.1588,4.1588,4.1588,4.1588,4.1588,4.1588,4.1588,0.0,0.0,0.0,0.0,0.0,0.0,0.0,0.0,0.0,0.0,0.0,0.0,0.0,0.0,0.0,0.0,0.0,0.0,0.0,0.0,1.824,1.7706,1.7442,1.7176,1.6908,1.6908,1.6908,1.6908,1.6908,1.6908,1.6917,1.7513,1.7917,1.8155,1.8733,1.9109,1.9301,1.9301,1.9301,1.9301,1.9301,1.9301,1.9301,1.9301,1.943,1.9712,2.041,0.0,0.0,0.0,0.0,0.0,0.0,0.0,2.8191,2.8315,2.8407,2.8736,2.9947,0.0,0.0,3.1663,0.0,0.0,0.0,0.0,0.0,0.0,0.0,0.0,0.0,0.0,0.0,0.0,0.0,0.0,0.0,0.0,0.0,0.0,0.0,0.0,0.0,0.0,0.0,0.0,0.0,0.0,0.0,3.8202,3.8202,3.8202,3.8202,3.8202,3.8202,3.8202,3.8202,3.8202,3.8202,3.8202,3.8202,3.906,3.9778,4.0424,4.1241,4.1588,4.1588,4.1588,4.1588,4.1588,4.1588,4.1588,4.1588,4.1588,4.1588,4.1588,0.0,0.0,0.0,0.0,0.0,0.0,0.0,0.0,0.0,0.0,0.0,0.0,0.0,0.0,0.0,0.0,0.0,0.0,0.0,0.0,0.0,1.7569,1.7579,1.7373,1.6908,1.6908,1.6908,1.6908,1.6908,1.6908,1.6927,1.7743,1.8128,1.8155,1.8944,1.9301,1.9301,1.9301,1.9301,1.9301,1.9301,1.9301,1.9311,1.9384,1.9622,1.9943,2.0419,0.0,0.0,0.0,0.0,0.0,0.0,0.0,2.7857,2.8119,2.8303,2.8816,3.0469,0.0,3.0846,3.2331,3.2444,0.0,0.0,0.0,0.0,0.0,0.0,0.0,0.0,0.0,0.0,0.0,0.0,0.0,0.0,0.0,0.0,0.0,0.0,0.0,0.0,0.0,0.0,0.0,0.0,0.0,3.8202,3.8202,3.8202,3.8202,3.8202,3.8202,3.8202,3.8202,3.8202,3.8202,3.8202,3.8202,3.8277,3.9406,3.9889,3.996,4.1091,4.1588,4.1588,4.1588,4.1588,4.1588,4.1588,4.1588,4.1588,4.1588,4.1588,4.1588,0.0,0.0,0.0,0.0,0.0,0.0,0.0,0.0,0.0,0.0,0.0,0.0,0.0,0.0,0.0,0.0,0.0,0.0,0.0,0.0,0.0,1.7038,1.7038,1.6968,1.6908,1.6908,1.6908,1.6908,1.7097,1.7038,1.6927,1.7743,1.8128,1.8155,1.8944,1.9301,1.9301,1.9301,1.9301,1.9301,1.9301,1.9301,1.9347,1.9705,1.9879,2.0099,0.0,0.0,0.0,0.0,0.0,0.0,0.0,0.0,0.0,2.8259,2.8498,2.8657,0.0,0.0,3.1368,0.0,3.2444,3.2386,0.0,0.0,0.0,0.0,0.0,0.0,0.0,0.0,0.0,0.0,0.0,0.0,0.0,0.0,0.0,0.0,0.0,0.0,0.0,0.0,0.0,0.0,0.0,0.0,3.8173,3.8202,3.8202,3.8202,3.8202,3.8202,3.8202,3.8202,3.8202,3.8202,3.8202,3.8202,3.8277,3.9406,3.9889,3.996,4.1091,4.1588,4.1588,4.1588,4.1588,4.1588,4.1588,4.1588,4.1588,4.1588,4.1588,4.1588,0.0,0.0,0.0,0.0,0.0,0.0,0.0,0.0,0.0,0.0,0.0,0.0,0.0,0.0,0.0,0.0,0.0,0.0,0.0,0.0,0.0,1.7107,1.6968,1.6968,1.7038,1.6968,1.6968,1.7038,1.7038,1.7107,0.0,1.7815,1.8128,1.8155,1.8944,1.9301,1.9301,1.9301,1.9301,1.9301,1.939,1.9775,2.0117,0.0,0.0,0.0,0.0,0.0,0.0,0.0,0.0,0.0,0.0,0.0,0.0,0.0,2.8099,0.0,2.9639,3.0683,3.1723,0.0,3.2775,3.2931,0.0,0.0,0.0,0.0,0.0,0.0,0.0,0.0,0.0,0.0,0.0,0.0,0.0,0.0,0.0,0.0,0.0,0.0,0.0,0.0,0.0,0.0,0.0,3.6867,3.7128,3.7491,3.7709,3.7709,3.8028,3.8202,3.8202,3.8202,3.8202,3.8202,3.8202,3.8202,3.8202,3.9075,3.9636,3.996,4.1091,4.1588,4.1588,4.1588,4.1588,4.1588,4.1588,4.1588,4.1588,4.1588,4.1588,4.1588,0.0,0.0,0.0,0.0,0.0,0.0,0.0,0.0,0.0,0.0,0.0,0.0,0.0,0.0,0.0,0.0,0.0,0.0,0.0,0.0,0.0,1.7166,1.7038,1.7038,1.7166,1.7038,1.7038,1.7314,1.7176,1.7245,1.7489,1.8033,1.8267,0.0,1.8944,1.9301,1.939,1.9301,1.9301,1.9301,1.9706,2.0235,0.0,0.0,0.0,0.0,0.0,0.0,0.0,0.0,0.0,0.0,0.0,0.0,0.0,0.0,0.0,0.0,0.0,0.0,3.1429,3.2245,3.269,3.2974,0.0,0.0,0.0,0.0,0.0,0.0,0.0,0.0,0.0,0.0,0.0,0.0,0.0,0.0,0.0,0.0,0.0,0.0,0.0,0.0,0.0,0.0,0.0,3.6141,3.6301,3.678,3.7056,3.7056,3.7491,3.7796,3.797,3.813,3.8202,3.8202,3.8202,3.8202,3.8202,3.8797,3.9307,3.9763,4.0737,4.1158,4.1158,4.1307,4.139,4.139,4.1522,4.1588,4.1588,4.1588,4.1588,4.1588,0.0,0.0,0.0,0.0,0.0,0.0,0.0,0.0,0.0,0.0,0.0,0.0,0.0,1.7235,1.7373,1.8442,1.7969,1.7716,1.794,1.794,1.7725,1.7235,1.7166,0.0,1.7166,1.7166,1.7245,1.747,1.7579,1.7588,1.7489,1.8466,1.8784,1.8443,1.9022,1.939,1.9557,0.0,0.0,0.0,0.0,0.0,0.0,0.0,0.0,0.0,0.0,0.0,0.0,0.0,0.0,0.0,0.0,0.0,0.0,0.0,0.0,0.0,0.0,2.9496,0.0,3.1502,3.1869,0.0,0.0,0.0,0.0,0.0,0.0,0.0,0.0,0.0,0.0,0.0,0.0,0.0,0.0,0.0,0.0,0.0,0.0,0.0,0.0,0.0,0.0,0.0,0.0,3.5677,3.6272,3.6344,3.6359,3.6359,3.6388,3.6707,3.7346,3.7912,3.8202,3.8202,3.8202,3.8202,3.8202,3.8797,3.9104,3.9162,3.9763,3.996,4.003,4.0631,4.0867,4.0851,4.139,4.1588,4.1588,4.1588,4.1588,4.1588,0.0,0.0,0.0,0.0,0.0,0.0,0.0,0.0,0.0,0.0,0.0,0.0,0.0,1.7047,1.7176,1.7901,1.792,1.7725,1.7323,1.7382,1.7373,1.7235,1.7166,1.7245,1.7392,1.7392,1.7451,1.7647,1.7588,1.7666,1.7823,1.8385,1.8775,1.896,1.9341,1.9557,1.9566,1.9557,0.0,0.0,0.0,0.0,0.0,0.0,0.0,0.0,0.0,0.0,0.0,0.0,0.0,0.0,0.0,0.0,0.0,0.0,0.0,0.0,0.0,0.0,0.0,3.0683,3.1709,0.0,0.0,0.0,0.0,0.0,0.0,0.0,0.0,0.0,0.0,0.0,0.0,0.0,0.0,0.0,0.0,0.0,0.0,0.0,0.0,0.0,0.0,0.0,0.0,0.0,3.5082,3.5488,3.5706,3.5706,3.6098,3.6417,3.6664,3.6881,3.7201,3.7622,3.7622,3.7839,3.8202,3.8427,3.8501,3.8501,3.8708,3.919,3.9905,4.0115,4.02,4.027,4.0462,4.0531,4.0531,4.0531,4.0752,4.107,0.0,0.0,0.0,0.0,0.0,0.0,0.0,0.0,0.0,0.0,0.0,0.0,0.0,0.0,1.7038,1.7373,1.752,1.7461,1.7038,1.7176,1.7314,1.7314,1.7373,1.7382,1.747,1.7529,1.7588,1.7706,1.7666,1.7803,1.8027,1.8457,1.8848,1.9253,1.9659,1.9794,0.0,0.0,0.0,1.9715,0.0,0.0,2.3227,0.0,0.0,0.0,0.0,0.0,0.0,0.0,0.0,0.0,0.0,0.0,0.0,0.0,0.0,0.0,2.8383,0.0,0.0,0.0,0.0,0.0,0.0,0.0,0.0,0.0,0.0,0.0,0.0,0.0,0.0,0.0,0.0,0.0,0.0,0.0,0.0,0.0,0.0,0.0,0.0,0.0,0.0,0.0,0.0,0.0,3.4414,3.482,3.5038,3.5038,3.5662,3.5996,3.5996,3.6199,3.6533,3.6968,3.6968,3.7172,3.7564,3.7564,3.7694,3.7897,3.7897,3.8429,3.9334,3.955,3.9636,3.9621,3.9834,3.9889,3.9889,3.9889,4.027,4.0799,0.0,0.0,0.0,0.0,0.0,0.0,0.0,0.0,0.0,1.6908,0.0,0.0,0.0,0.0,0.0,1.6908,1.6908,1.6978,1.7166,1.7392,1.747,1.747,1.7657,1.7647,1.747,1.7647,1.7706,1.7706,1.793,1.8018,1.8047,1.8887,1.9224,1.9062,1.9889,2.0264,2.0264,0.0,1.9645,1.9794,0.0,2.2626,2.3326,0.0,0.0,0.0,2.6315,2.6412,0.0,0.0,0.0,0.0,0.0,0.0,0.0,0.0,0.0,0.0,0.0,0.0,0.0,0.0,0.0,0.0,0.0,0.0,0.0,0.0,0.0,0.0,0.0,0.0,0.0,0.0,0.0,0.0,0.0,0.0,0.0,0.0,0.0,0.0,0.0,0.0,0.0,0.0,0.0,3.4414,3.4414,3.4414,3.4414,3.4414,3.5009,3.5343,3.5343,3.5938,3.6257,3.6272,3.6272,3.6286,3.6301,3.6301,3.6664,3.7273,3.7273,3.7622,3.8248,3.8797,3.9104,3.9104,3.9621,3.9819,3.9819,3.9819,4.02,4.073,0.0,0.0,0.0,0.0,0.0,0.0,1.6908,1.6908,1.6908,0.0,0.0,0.0,1.6908,1.6908,1.6908,1.6908,1.7185,1.7323,1.7235,1.751,1.751,1.7314,1.7461,1.7529,1.747,1.7647,1.7784,1.794,1.794,1.8164,1.8407,1.8889,1.9316,0.0,1.9937,2.0177,2.0489,2.002,0.0,0.0,2.2164,2.3337,0.0,0.0,0.0,0.0,0.0,2.751,0.0,0.0,2.6329,2.5663,0.0,0.0,0.0,0.0,0.0,0.0,2.6846,0.0,0.0,0.0,0.0,0.0,0.0,0.0,0.0,0.0,0.0,0.0,0.0,0.0,0.0,0.0,0.0,0.0,0.0,0.0,0.0,0.0,0.0,0.0,0.0,0.0,0.0,0.0,3.4414,3.4414,3.4414,3.4414,3.4414,3.4414,3.4588,3.4675,3.4675,3.4849,3.5169,3.5619,3.5619,3.5865,3.6301,3.6301,3.6402,3.6591,3.6591,3.6954,3.7593,3.8177,3.8427,3.8501,3.8634,3.8694,3.8694,3.8694,3.9075,3.9595,0.0,0.0,0.0,0.0,0.0,0.0,1.6908,1.6908,1.6908,0.0,0.0,0.0,1.7038,1.7038,1.7038,1.7038,1.7245,1.7314,1.7107,1.7373,1.7373,1.7235,1.7451,1.7529,1.747,1.7725,1.7852,1.7862,1.8115,1.8398,1.8582,1.9122,1.9529,1.9932,0.0,0.0,0.0,0.0,0.0,0.0,2.2537,0.0,0.0,2.647,2.7727,0.0,0.0,0.0,2.7765,2.7765,2.7174,0.0,0.0,0.0,0.0,0.0,0.0,0.0,0.0,0.0,0.0,0.0,0.0,0.0,2.9999,3.0241,0.0,0.0,0.0,0.0,0.0,0.0,0.0,0.0,0.0,0.0,0.0,0.0,0.0,0.0,0.0,0.0,0.0,0.0,0.0,3.3894,3.3894,3.4045,3.4414,3.4414,3.4414,3.4414,3.4414,3.4414,3.4414,3.4414,3.4603,3.4965,3.4965,3.5154,3.5517,3.5517,3.5662,3.5909,3.5909,3.6286,3.6925,3.7259,3.7723,3.8202,3.8202,3.8202,3.8202,3.8202,3.8575,3.9104,0.0,0.0,0.0,1.6908,1.6908,1.6908,1.6908,1.6908,1.6908,0.0,1.683,1.683,1.7028,1.6996,1.6954,1.6954,1.6991,1.7018,1.6958,1.7167,1.7306,1.7376,1.7712,1.7791,1.7672,1.7948,1.8007,1.785,1.8375,1.866,1.8789,1.9487,1.9941,2.0,0.0,0.0,0.0,0.0,0.0,2.126,2.2793,2.4043,0.0,0.0,2.7446,0.0,2.7603,2.7846,2.851,2.851,2.7926,0.0,0.0,0.0,0.0,0.0,2.4488,0.0,0.0,0.0,0.0,0.0,0.0,0.0,2.9871,2.9574,2.9341,0.0,0.0,0.0,0.0,0.0,0.0,0.0,0.0,0.0,0.0,0.0,0.0,0.0,0.0,0.0,0.0,3.2074,3.2362,3.3003,3.3143,3.352,3.4264,3.4332,3.4414,3.4414,3.4332,3.4264,3.4264,3.4196,3.4196,3.4264,3.4264,3.4332,3.4414,3.4414,3.4719,3.5256,3.5256,3.5619,3.6199,3.6199,3.6954,3.8101,3.8101,3.8144,3.8202,3.8202,3.8575,3.9031,0.0,0.0,1.6908,1.6908,1.6908,1.6908,1.6908,1.6908,1.6908,1.6908,1.6403,1.6044,1.6044,1.5732,1.5544,1.5544,1.5881,1.6421,1.7246,1.7476,1.7926,1.861,1.8682,1.8754,1.8692,1.86,1.8663,1.8961,1.8904,1.919,1.9668,1.9618,1.9955,2.0439,0.0,0.0,0.0,0.0,0.0,2.2574,2.3425,0.0,2.5164,2.7289,2.8255,2.851,2.8339,2.8351,2.851,0.0,2.7926,2.7185,0.0,0.0,0.0,0.0,0.0,0.0,0.0,0.0,0.0,0.0,0.0,0.0,2.8816,2.8882,2.8961,0.0,0.0,0.0,0.0,0.0,0.0,0.0,0.0,0.0,0.0,0.0,0.0,0.0,0.0,0.0,0.0,3.2074,3.2146,3.229,3.2861,3.3297,3.3437,3.4045,3.4414,3.4414,3.3742,3.3437,3.3437,3.2875,3.2875,3.3437,3.3437,3.3742,3.4414,3.4414,3.4486,3.4603,3.4603,3.4965,3.5546,3.5546,3.6315,3.7491,3.7491,3.7781,3.8202,3.8202,3.8277,3.8352,0.0,0.0,1.6908,1.6908,1.6908,1.6908,1.6908,1.6908,1.676,1.6403,1.6209,1.618,1.6394,1.6727,1.6881,1.6881,1.7129,1.7402,1.7719,1.7877,1.81,1.8701,1.8711,1.8775,1.8848,1.8848,1.8922,1.9151,1.9354,1.9632,1.9922,2.007,2.0505,0.0,0.0,0.0,0.0,0.0,2.134,2.2493,2.3743,0.0,2.6251,2.7912,2.851,2.851,2.851,2.851,2.851,2.851,2.8179,0.0,0.0,2.7174,2.6999,0.0,2.5495,2.5242,0.0,0.0,0.0,2.6846,0.0,0.0,0.0,2.8724,2.8803,0.0,0.0,0.0,0.0,0.0,0.0,0.0,0.0,0.0,0.0,0.0,0.0,0.0,0.0,0.0,0.0,3.0934,3.1071,3.1489,3.2563,3.3003,3.2648,3.3017,3.3395,3.3811,3.3437,3.3367,3.3811,3.3017,3.3017,3.3811,3.3367,3.3589,3.4414,3.4414,3.4414,3.4414,3.4414,3.4588,3.4893,3.4893,3.5459,3.6373,3.6678,3.6997,3.7302,3.7636,3.7752,3.7796,0.0,0.0,0.0,1.6769,1.6691,1.6691,1.6691,1.6551,1.636,1.6007,1.6191,1.6569,1.708,1.7871,1.8341,1.8341,1.8415,1.8311,0.0,0.0,1.8113,1.833,1.848,1.8555,1.8545,1.8854,1.8938,1.8789,1.926,1.9497,1.9573,2.0082,2.0624,0.0,0.0,0.0,0.0,0.0,0.0,2.2561,0.0,2.5469,2.6764,2.7846,2.8259,2.8259,2.8431,2.851,2.851,2.8339,0.0,2.8099,2.7174,2.751,0.0,0.0,0.0,0.0,0.0,0.0,0.0,0.0,0.0,2.7672,0.0,0.0,0.0,0.0,0.0,0.0,0.0,0.0,0.0,0.0,0.0,0.0,0.0,0.0,0.0,0.0,0.0,0.0,0.0,2.9792,3.0075,3.062,3.2132,3.2648,3.1928,3.2146,3.2506,3.2932,3.2861,3.3157,3.3977,3.3157,3.3227,3.4182,3.352,3.3589,3.4414,3.4414,3.4414,3.4414,3.4414,3.4414,3.4414,3.4414,3.4719,3.5241,3.588,3.6199,3.6373,3.6925,3.7201,3.7375,1.4974,1.5551,0.0,0.0,1.6053,1.5903,1.5903,1.533,1.5295,1.6434,1.6287,1.6422,0.0,0.0,0.0,0.0,0.0,0.0,1.77,0.0,1.7869,1.8028,1.8761,1.884,1.8108,1.8664,1.8752,1.8117,1.8,1.8026,1.8249,1.8859,0.0,0.0,2.0847,0.0,0.0,0.0,2.3116,0.0,2.4962,2.4949,0.0,2.6682,2.7348,2.7429,2.8259,2.851,2.8339,0.0,2.7348,2.7174,0.0,2.6588,0.0,0.0,0.0,0.0,0.0,0.0,0.0,0.0,2.7765,0.0,0.0,0.0,0.0,0.0,0.0,0.0,0.0,0.0,0.0,0.0,0.0,0.0,0.0,0.0,0.0,0.0,0.0,0.0,0.0,0.0,2.9869,2.9934,3.1368,3.1856,3.1119,3.2349,3.2791,3.2218,3.1549,3.1563,3.2376,3.1549,3.1915,3.3367,3.3213,3.3589,3.4414,3.4414,3.4414,3.4414,3.4414,3.4414,3.4414,3.4414,3.4457,3.4588,3.5227,3.5807,3.6315,3.6402,3.6794,3.7317,1.4466,1.4895,0.0,0.0,1.518,1.5182,1.5396,1.4856,1.4652,1.5252,1.5814,0.0,0.0,0.0,0.0,0.0,0.0,1.9045,0.0,0.0,1.839,1.9054,1.8238,0.0,1.8149,1.798,1.7738,1.7415,1.7423,1.7594,1.7827,1.8638,0.0,0.0,2.1145,0.0,2.1849,0.0,0.0,0.0,0.0,0.0,0.0,2.6835,2.7926,2.8007,2.8351,2.851,2.8431,0.0,2.7603,0.0,0.0,0.0,0.0,0.0,0.0,0.0,0.0,0.0,0.0,0.0,0.0,0.0,0.0,0.0,2.851,0.0,0.0,0.0,0.0,0.0,0.0,0.0,0.0,0.0,0.0,0.0,0.0,0.0,0.0,0.0,0.0,0.0,0.0,0.0,0.0,3.1057,3.0266,3.0859,3.1281,3.1415,3.1119,3.1267,3.2074,3.1328,3.1476,3.2577,3.206,3.229,3.3101,3.3101,3.3101,3.3101,3.352,3.3673,3.3742,3.4196,3.4414,3.4443,3.4704,3.4965,3.5256,3.5619,3.5938,3.6228,1.3738,0.0,0.0,0.0,0.0,1.4425,1.4554,0.0,0.0,0.0,0.0,0.0,1.7088,1.8698,0.0,0.0,0.0,2.0177,0.0,0.0,1.8798,0.0,0.0,0.0,0.0,0.0,1.6919,1.6445,1.6617,1.6854,1.7107,1.7917,0.0,0.0,0.0,2.1645,2.196,0.0,0.0,2.3123,2.4118,2.4402,2.4488,2.6835,2.7926,2.8179,2.8431,2.851,2.8431,2.8259,2.7684,0.0,2.7672,0.0,0.0,0.0,0.0,0.0,2.6163,0.0,0.0,0.0,0.0,0.0,0.0,0.0,0.0,0.0,0.0,0.0,0.0,0.0,0.0,0.0,0.0,0.0,0.0,0.0,0.0,0.0,0.0,0.0,0.0,0.0,0.0,2.9869,3.0482,3.0545,2.9869,2.9998,3.0343,3.0895,3.0683,3.1057,3.2074,3.1328,3.1328,3.2074,3.1489,3.1563,3.2074,3.2074,3.2074,3.2146,3.2648,3.2932,3.2932,3.3534,3.3756,3.3756,3.3756,3.3756,3.3882,3.4784,3.5212,3.543,1.2372,1.3025,0.0,0.0,0.0,0.0,0.0,0.0,0.0,0.0,0.0,0.0,0.0,0.0,0.0,0.0,0.0,2.0245,1.9381,0.0,1.8895,0.0,0.0,1.8336,0.0,0.0,0.0,1.5173,1.5173,1.5257,1.5506,0.0,0.0,0.0,0.0,2.078,2.0755,2.2852,2.398,2.4478,2.4488,2.5505,2.701,0.0,2.6412,2.7348,2.8179,0.0,0.0,2.751,2.7185,0.0,0.0,0.0,0.0,0.0,0.0,0.0,0.0,0.0,0.0,2.8259,0.0,0.0,0.0,0.0,2.851,0.0,0.0,0.0,0.0,0.0,0.0,0.0,0.0,0.0,0.0,0.0,0.0,0.0,0.0,0.0,0.0,0.0,0.0,2.9792,3.0482,3.0545,2.9869,3.0482,3.0895,3.0895,3.0216,3.0583,3.2074,3.1328,3.1328,3.2074,3.2074,3.2074,3.2074,3.2074,3.2074,3.2074,3.2146,3.2146,3.2146,3.2146,3.2146,3.2146,3.2146,3.2146,3.2376,3.3854,3.4835,3.5427,0.0,0.0,0.0,0.0,0.0,0.0,0.0,1.3748,0.0,0.0,0.0,0.0,0.0,0.0,2.002,0.0,0.0,2.0489,2.0167,1.9529,0.0,0.0,0.0,1.7917,0.0,0.0,0.0,0.0,0.0,0.0,0.0,0.0,0.0,0.0,0.0,2.0718,0.0,0.0,0.0,0.0,0.0,2.4317,2.5505,0.0,0.0,2.8099,2.8419,2.851,0.0,2.8179,2.7684,2.7267,2.751,2.7418,2.7185,2.6835,2.6928,0.0,0.0,0.0,2.7568,2.8339,0.0,0.0,0.0,0.0,0.0,0.0,0.0,0.0,0.0,0.0,0.0,0.0,0.0,0.0,0.0,0.0,0.0,0.0,0.0,0.0,0.0,0.0,0.0,2.9792,2.9998,3.0062,2.9792,3.0075,3.0203,3.0203,2.9934,3.0088,3.0583,3.0279,3.0279,3.0583,3.0583,3.0583,3.0583,3.0583,3.0583,3.0583,3.1057,3.1341,3.1341,3.1856,3.2074,3.2074,3.2074,3.2362,3.2861,3.2875,3.3297,3.4113,1.32,0.0,0.0,0.0,0.0,0.0,0.0,0.0,0.0,0.0,1.6675,0.0,1.847,0.0,1.9942,0.0,2.0401,2.0635,2.0791,2.0008,0.0,2.0564,1.9277,0.0,0.0,0.0,0.0,0.0,0.0,1.4915,0.0,0.0,0.0,0.0,0.0,0.0,2.0476,0.0,2.3302,0.0,0.0,2.3647,0.0,0.0,2.6753,2.758,0.0,2.851,2.851,2.851,2.8099,2.7765,2.8339,2.8099,2.7684,2.7684,2.7672,2.7742,2.7742,2.7903,0.0,2.8578,2.8816,0.0,2.8657,0.0,0.0,0.0,0.0,0.0,0.0,0.0,0.0,0.0,0.0,0.0,0.0,0.0,0.0,0.0,0.0,0.0,0.0,0.0,2.9792,2.9792,2.9792,2.9792,0.0,0.0,2.9934,3.0203,2.9934,2.9934,3.0216,2.9934,2.9792,2.9792,2.9792,2.9792,2.9792,2.9792,2.9792,2.9869,3.0266,3.0482,3.0558,3.1071,3.1294,3.1294,3.1294,3.1709,3.242,3.2434,3.2946,3.373,0.0,0.0,0.0,0.0,1.348,0.0,0.0,0.0,1.5786,0.0,1.709,1.7819,1.7819,1.8718,1.9292,1.9116,2.0001,0.0,2.1172,2.0801,0.0,0.0,2.083,2.0127,1.9179,0.0,0.0,0.0,0.0,0.0,0.0,0.0,0.0,0.0,1.7956,0.0,1.9974,2.2145,2.3135,2.3135,2.3135,2.3647,2.4413,2.4498,0.0,2.5997,2.7753,2.8431,2.8431,2.8431,2.8431,2.851,2.851,2.851,2.851,2.851,2.8657,2.8803,2.8791,2.8961,2.9052,2.9131,0.0,0.0,0.0,0.0,2.9052,0.0,0.0,0.0,0.0,0.0,0.0,0.0,0.0,0.0,0.0,0.0,0.0,0.0,0.0,0.0,0.0,2.9792,2.9792,2.9792,2.9792,2.9792,0.0,0.0,3.0139,3.082,3.0139,3.0139,3.082,3.0139,2.9792,2.9792,2.9792,2.9792,2.9792,2.9792,2.9792,2.9792,2.9792,2.9792,2.9792,2.9792,2.9792,2.9792,2.9792,3.0279,3.1106,3.2635,3.3673,3.4346,1.3682,1.3998,1.4108,0.0,1.3998,1.4079,0.0,0.0,0.0,0.0,1.8069,1.8957,1.9756,2.0079,2.0245,2.0157,2.0401,0.0,0.0,0.0,0.0,2.1211,2.1123,2.105,2.1115,2.0274,0.0,1.7821,0.0,0.0,1.5169,0.0,0.0,0.0,0.0,0.0,1.9974,2.2145,2.3135,2.3135,2.3135,2.3222,0.0,0.0,2.4659,2.4999,2.608,2.6917,2.751,2.751,2.7926,2.851,2.851,2.851,2.851,2.851,2.851,2.8578,2.8724,2.8882,2.8882,2.9052,2.9131,2.9052,0.0,0.0,0.0,0.0,0.0,0.0,0.0,0.0,0.0,0.0,0.0,0.0,0.0,0.0,0.0,0.0,0.0,0.0,2.9792,2.9792,2.9792,2.9792,2.9792,2.9792,0.0,0.0,0.0,3.0075,2.9934,2.9856,3.0062,2.9856,2.9792,2.9792,2.9792,2.9792,2.9792,2.9792,2.9792,2.9792,2.9792,2.9792,2.9792,2.9792,2.9792,2.9792,2.9792,3.0646,3.1928,3.2861,3.3297,3.3589,1.3379,0.0,0.0,1.4398,0.0,0.0,1.5054,0.0,0.0,1.7415,1.839,0.0,1.9835,2.0497,2.0859,2.0859,2.1035,0.0,0.0,0.0,0.0,2.1777,2.1621,2.1641,2.1875,2.1015,0.0,1.8617,0.0,0.0,1.5581,0.0,0.0,0.0,0.0,1.8881,0.0,2.1594,2.2687,2.3135,2.3135,0.0,0.0,2.3734,2.3897,2.3983,2.4402,2.5495,2.667,2.751,2.7592,2.7418,2.7765,2.7926,2.7926,2.7926,2.8247,2.8657,2.8803,2.8949,2.9106,2.9197,2.9287,2.9378,2.9287,2.9287,2.9378,0.0,0.0,0.0,0.0,0.0,0.0,0.0,0.0,0.0,0.0,0.0,0.0,0.0,0.0,0.0,2.9792,2.9792,2.9792,2.9792,2.9792,2.9792,0.0,0.0,0.0,2.9792,2.9792,2.9792,2.9792,2.9792,2.9792,2.9792,2.9792,2.9792,2.9792,2.9792,2.9792,2.9792,2.9792,2.9792,2.9792,2.9792,2.9998,3.0343,3.1009,3.1796,3.2648,3.3451,3.3742,3.3811,0.0,0.0,0.0,0.0,0.0,0.0,0.0,1.6281,0.0,1.7423,0.0,1.9118,1.9277,2.0396,2.1157,2.1318,0.0,2.2041,2.2402,2.209,2.207,2.249,2.2168,2.1992,2.2051,2.1352,0.0,0.0,0.0,0.0,0.0,0.0,0.0,0.0,0.0,0.0,0.0,2.115,2.2325,0.0,2.3135,2.3135,2.3135,2.3135,2.3135,2.3135,2.3222,2.4317,2.5913,2.7418,2.6999,2.5986,2.6928,2.7092,2.7092,2.7267,2.7914,2.8633,2.8791,2.9028,2.9341,2.9419,2.9599,2.9702,2.9509,2.9611,2.9702,2.9509,2.9611,2.9792,0.0,0.0,0.0,0.0,0.0,0.0,0.0,0.0,0.0,0.0,0.0,0.0,0.0,2.9792,2.9792,2.9792,2.9792,2.9792,0.0,0.0,0.0,2.9792,2.9792,0.0,2.9792,0.0,2.9792,2.9792,2.9792,2.9792,2.9792,2.9792,2.9792,2.9792,2.9792,2.9792,2.9792,2.9792,3.0216,3.0895,3.2349,3.2932,3.3143,3.3962,3.4332,3.4414,0.0,0.0,0.0,0.0,0.0,1.5966,1.6683,1.7738,1.8559,1.8886,1.9344,1.9959,2.0703,2.0658,2.0912,2.1685,2.1846,0.0,0.0,0.0,0.0,2.249,2.2441,2.2568,2.291,2.2737,2.1571,0.0,0.0,0.0,0.0,0.0,0.0,0.0,0.0,0.0,2.1239,2.2413,0.0,2.3135,2.3135,2.3135,2.3135,2.3135,2.3135,2.3222,2.3993,2.4498,2.4744,2.5084,2.5495,2.5986,2.6928,2.667,2.6329,2.7834,2.7926,2.7661,2.8554,2.887,2.8949,2.9341,2.9419,2.9509,2.9689,2.9792,2.9792,2.9702,2.9792,2.9792,2.9792,0.0,0.0,0.0,0.0,0.0,0.0,0.0,0.0,0.0,0.0,0.0,0.0,0.0,0.0,0.0,0.0,0.0,0.0,0.0,0.0,0.0,2.9792,0.0,0.0,0.0,2.9792,2.9792,2.9792,2.9792,2.9792,2.9792,2.9792,2.9792,2.9792,2.9792,2.9792,2.9792,2.9869,3.0075,3.0983,3.1696,3.2362,3.3157,3.3811,3.4414,0.0,0.0,0.0,0.0,0.0,0.0,0.0,1.7944,0.0,1.8542,1.8377,1.8481,1.9071,2.0135,2.0994,2.1429,2.2148,2.2539,2.2539,2.2539,2.2627,2.2832,2.2832,0.0,2.3135,2.3135,2.2036,1.9771,0.0,0.0,0.0,0.0,0.0,0.0,0.0,1.933,0.0,0.0,0.0,2.3135,2.3135,2.3135,2.3135,2.3135,2.3135,2.3135,2.3647,2.3734,2.3897,2.4819,2.4819,2.4648,2.5997,2.6163,2.608,2.7429,2.7846,2.8007,2.8486,2.8724,2.887,2.9197,2.9341,2.9509,2.9702,2.9792,2.9792,2.9792,2.9792,2.9792,2.9792,2.9792,0.0,0.0,0.0,0.0,0.0,0.0,0.0,0.0,0.0,0.0,0.0,0.0,0.0,0.0,0.0,0.0,0.0,0.0,0.0,0.0,0.0,0.0,0.0,0.0,0.0,2.9792,2.9792,2.9792,2.9792,2.9792,2.9792,2.9792,2.9792,2.9792,2.9869,3.0203,3.0343,3.0419,3.1193,3.1783,3.2218,3.2932,3.3451,3.3825,0.0,1.2687,0.0,0.0,1.574,0.0,1.6242,1.7488,1.8431,1.8003,1.7499,1.7306,1.7723,1.9485,2.0694,2.0878,2.2048,2.2775,2.2775,2.296,2.3135,2.3135,2.3135,2.3135,2.3135,2.3135,2.2227,0.0,0.0,0.0,0.0,0.0,0.0,0.0,0.0,0.0,0.0,0.0,2.2413,2.3135,2.3135,2.3135,2.3135,2.3135,2.3135,2.3135,2.3135,2.3135,2.3299,2.4734,2.4317,2.3387,2.4988,2.5495,2.5746,2.6846,2.7684,2.8259,2.8431,2.8657,2.8803,2.9052,2.9197,2.9431,2.9702,2.9792,2.9792,2.9792,2.9792,2.9792,2.9792,2.9792,0.0,0.0,0.0,0.0,0.0,0.0,0.0,0.0,0.0,0.0,0.0,0.0,0.0,0.0,0.0,0.0,0.0,0.0,0.0,0.0,0.0,2.9792,2.9792,0.0,2.9792,0.0,2.9792,2.9792,2.9792,2.9792,2.9792,2.9792,2.9792,2.9792,2.9869,3.0419,3.0696,3.0758,3.1563,3.1928,3.2218,3.2932,3.3297,3.352,0.0,0.0,0.0,0.0,0.0,0.0,0.0,1.6572,1.7265,1.8366,1.8065,1.8103,1.9272,1.9159,1.9372,2.018,2.1221,2.1872,2.1872,2.2599,2.3135,2.3135,2.3135,2.3135,2.3135,2.3135,2.2599,0.0,0.0,0.0,0.0,0.0,0.0,0.0,0.0,0.0,0.0,2.2599,2.3047,2.3135,2.3135,2.3135,2.3135,2.3135,2.3135,2.3135,2.3135,2.3135,2.3135,2.3309,2.3222,2.3309,2.4327,2.4584,2.4999,2.6682,2.7267,2.751,2.8259,2.851,2.859,2.8973,2.9131,2.9221,2.9714,2.9792,2.9792,2.9792,2.9792,2.9792,2.9792,2.9792,2.9792,0.0,0.0,0.0,0.0,0.0,0.0,0.0,0.0,0.0,0.0,0.0,0.0,0.0,0.0,0.0,0.0,0.0,0.0,2.9792,0.0,2.9792,2.9792,2.9792,0.0,2.9792,2.9792,2.9792,2.9792,2.9792,2.9792,2.9792,2.9792,2.9792,2.9792,2.9856,2.9934,3.0011,3.0696,3.1489,3.2218,3.2932,3.3673,3.4264,0.0,0.0,0.0,0.0,0.0,0.0,0.0,1.6285,1.6801,1.7084,1.7069,1.7288,1.7934,1.8533,1.8972,1.933,2.024,2.0782,2.0782,2.1695,2.2236,2.2236,2.2236,2.2511,2.3057,2.1961,2.1507,0.0,0.0,0.0,0.0,0.0,0.0,0.0,0.0,2.1248,2.1784,2.2687,2.3135,2.3135,2.3135,2.3135,2.3135,2.3135,2.3135,2.3135,2.3135,2.3135,2.3135,2.3135,2.3135,2.3222,2.4241,2.4498,2.4744,2.5997,2.6753,2.7267,2.7603,2.8099,2.859,2.8973,2.9131,2.9209,2.9714,2.9792,2.9792,2.9792,2.9792,2.9792,2.9792,2.9792,2.9792,0.0,0.0,0.0,0.0,0.0,0.0,0.0,0.0,0.0,0.0,0.0,0.0,0.0,0.0,0.0,0.0,0.0,0.0,2.9792,0.0,2.9792,2.9792,2.9792,2.9792,2.9792,2.9792,2.9792,2.9792,2.9792,2.9792,2.9792,2.9792,2.9792,2.9869,3.0279,3.0482,3.0558,3.1355,3.1783,3.2218,3.2932,3.3367,3.3742,1.2998,0.0,1.3659,0.0,1.5618,1.5896,1.557,1.6068,1.6323,1.6089,1.6313,1.6543,1.6857,1.7699,1.8249,1.8249,1.9239,1.9786,1.9786,2.0692,2.1239,2.1239,2.1239,0.0,2.2227,2.0872,2.0512,2.1239,1.9521,0.0,0.0,0.0,0.0,0.0,2.1338,2.1872,2.2148,2.2784,2.3135,2.3135,2.3135,2.3135,2.3135,2.3135,2.3135,2.3135,2.3135,2.3135,2.3135,2.3135,2.3135,2.3222,2.3907,2.4241,2.4584,2.5242,2.6246,2.7185,2.7185,2.7846,2.859,2.8973,2.9131,2.9209,2.9714,2.9792,2.9792,2.9792,2.9792,2.9792,2.9792,2.9792,2.9792,2.9792,0.0,0.0,0.0,0.0,0.0,0.0,2.9792,2.9792,2.9792,0.0,0.0,0.0,0.0,0.0,0.0,0.0,0.0,0.0,0.0,0.0,0.0,2.9792,2.9792,2.9792,2.9792,2.9792,2.9792,2.9792,2.9792,2.9792,2.9792,2.9934,3.0126,3.0683,3.1044,3.1328,3.2146,3.2434,3.2506,3.3297,3.352,3.3659,1.3399,1.358,1.3938,1.5153,1.5391,1.5491,1.5778,1.5825,1.5825,1.5832,1.6021,1.6312,1.6588,1.6878,1.6979,1.6979,1.8156,1.8788,1.8788,1.9695,2.0232,0.0,0.0,2.0232,2.0232,2.0232,2.0232,2.0232,0.0,0.0,1.9385,0.0,2.0218,2.1695,2.1695,2.2236,2.3047,2.3135,2.3135,2.3135,2.3135,2.3135,2.3135,2.3135,2.3135,2.3135,2.3135,2.3135,2.3135,2.3135,2.3135,2.3135,2.3135,2.3734,2.4498,2.4498,2.5757,2.7185,2.7185,2.7846,2.859,2.8973,2.9131,2.9209,2.9714,2.9792,2.9792,2.9792,2.9792,2.9792,2.9792,2.9792,2.9792,2.9792,0.0,0.0,0.0,0.0,0.0,0.0,2.9792,2.9792,2.9792,0.0,0.0,0.0,0.0,0.0,0.0,0.0,0.0,2.9792,2.9792,0.0,2.9792,2.9792,2.9792,2.9792,2.9792,2.9792,2.9792,2.9792,2.9792,2.9792,2.9792,3.0203,3.0895,3.0895,3.1341,3.2146,3.2932,3.3213,3.3297,3.4113,3.4414,3.4414,1.4747,1.4793,1.4976,1.5544,1.5691,1.5718,1.5812,1.5832,1.5832,1.5832,1.5832,1.5927,1.6021,1.6494,1.6683,0.0,1.7246,1.7613,0.0,1.8611,1.9247,1.9247,1.9247,1.9513,2.0232,1.8872,1.8872,2.0232,0.0,0.0,0.0,2.0678,2.1566,2.2687,2.2687,2.2784,2.3135,2.3135,2.3135,2.3135,2.3135,2.3135,2.3135,2.3135,2.3135,2.3135,2.3135,2.3135,2.3135,2.3135,2.3135,2.3135,2.3135,2.3309,2.356,2.356,2.4413,2.5505,2.608,2.6917,2.7834,2.8816,2.9131,2.9209,2.9714,2.9792,2.9792,2.9792,2.9792,2.9792,2.9792,2.9792,2.9792,2.9792,2.9792,0.0,0.0,0.0,0.0,0.0,2.9792,2.9792,0.0,2.9792,0.0,0.0,0.0,0.0,0.0,0.0,0.0,0.0,2.9792,0.0,2.9792,2.9792,2.9792,2.9792,2.9792,2.9792,2.9792,2.9792,2.9792,2.9792,2.9792,2.9934,3.0203,3.1281,3.1856,3.2232,3.3534,3.4045,3.4045,3.4346,3.4414,3.4414,1.4958,1.5278,1.5618,1.5798,1.5832,1.5832,1.5832,1.5832,1.5832,1.5832,1.5832,1.5832,1.5832,1.6116,0.0,1.64,1.669,1.6878,1.6878,1.7606,1.8156,1.8156,1.8156,1.8511,1.9147,0.0,0.0,1.9147,1.8241,1.8511,1.9695,2.0692,2.1686,2.2599,2.2599,2.2784,2.3135,2.3135,2.3135,2.3135,2.3135,2.3135,2.3135,2.3135,2.3135,2.3135,2.3135,2.3135,2.3135,2.3135,2.3135,2.3135,2.3135,2.3135,2.3135,2.3135,2.3734,2.4584,2.5158,2.6257,2.7418,2.8303,2.8712,2.9131,2.9534,2.9611,2.9702,2.9792,2.9792,2.9792,2.9792,2.9792,2.9792,2.9792,2.9792,2.9792,2.9792,0.0,0.0,0.0,0.0,0.0,0.0,2.9792,0.0,0.0,0.0,0.0,0.0,0.0,0.0,2.9792,2.9792,0.0,2.9792,2.9792,2.9792,2.9792,2.9792,2.9792,2.9792,2.9792,2.9792,2.9792,2.9792,3.0152,3.0722,3.1723,3.2448,3.303,3.4045,3.4414,3.4414,3.4414,3.4414,3.4414,1.4202,1.4962,0.0,0.0,1.5737,0.0,1.5832,1.5832,1.5832,1.5832,1.5832,1.5832,1.5832,1.5832,1.5927,1.6123,0.0,0.0,0.0,1.6784,1.6979,1.6979,1.7153,1.7239,1.7232,1.7232,1.7333,1.7326,1.8334,1.8788,1.8788,1.9786,2.0692,2.1606,2.1695,2.2148,2.3047,2.3047,2.3135,2.3135,2.3135,2.3135,2.3135,2.3135,2.3135,2.3135,2.3135,2.3135,2.3135,2.3135,2.3135,2.3135,2.3135,2.3135,2.3135,2.3135,2.3734,2.4413,2.4498,2.5757,2.7174,2.7395,2.8131,2.8949,2.9341,2.9419,2.9509,2.9702,2.9792,2.9792,2.9792,2.9792,2.9792,2.9792,2.9792,2.9792,2.9792,0.0,0.0,0.0,0.0,0.0,0.0,2.9792,2.9792,0.0,0.0,0.0,0.0,0.0,2.9792,2.9792,2.9792,2.9792,2.9792,2.9792,2.9792,2.9792,2.9792,2.9792,2.9792,2.9792,2.9792,2.9792,2.9792,3.0646,3.2001,3.2074,3.296,3.4332,3.4414,3.4414,3.4414,3.4414,3.4414,3.4414,0.0,0.0,1.4682,1.4682,1.5255,1.5832,1.5832,1.5832,1.5832,1.5832,1.5832,1.5832,1.5832,1.5832,1.5832,1.5927,1.6123,1.6312,1.6312,1.6595,1.6683,1.6683,1.6777,1.6871,1.7066,1.7066,1.7153,1.7326,1.8334,1.8788,1.8788,1.9786,2.0322,2.0602,2.1329,2.1784,2.2059,2.2775,2.3135,2.3135,2.3135,2.3135,2.3135,2.3135,2.3135,2.3135,2.3135,2.3135,2.3135,2.3135,2.3135,2.3135,2.3135,2.3135,2.3135,2.3135,2.3222,2.356,2.4327,2.5337,2.6329,2.7302,2.8303,2.9118,2.9341,2.9419,2.9509,2.9702,2.9792,2.9792,2.9792,2.9792,2.9792,2.9792,2.9792,2.9792,2.9792,2.9792,0.0,0.0,2.9792,2.9792,2.9792,2.9792,2.9792,0.0,0.0,0.0,0.0,2.9792,2.9792,2.9792,2.9792,2.9792,2.9792,2.9792,2.9792,2.9792,2.9792,2.9792,2.9792,2.9792,2.9792,2.9792,2.9792,3.0355,3.1267,3.1856,3.2648,3.352,3.4182,3.4414,3.4414,3.4414,3.4414,3.4414,1.2047,1.2829,1.3607,1.3607,1.3992,1.4567,1.5064,1.5064,1.5255,1.573,1.5832,1.5832,1.5832,1.5832,1.5832,1.5832,1.5927,1.6028,1.6028,1.6312,1.6407,1.6407,1.6494,1.6683,1.6784,1.6784,1.6972,1.7153,1.7785,1.8149,1.8149,1.8603,1.9322,2.0232,2.0782,2.1507,2.2413,2.2872,2.3135,2.3135,2.3135,2.3135,2.3135,2.3135,2.3135,2.3135,2.3135,2.3135,2.3135,2.3135,2.3135,2.3135,2.3135,2.3135,2.3135,2.3135,2.3135,2.3222,2.3734,2.4819,2.6152,2.7568,2.8474,2.904,2.9197,2.9341,2.9509,2.9702,2.9792,2.9792,2.9792,2.9702,2.9689,2.9792,2.9702,2.9689,2.9792,2.9792,0.0,2.9792,2.9792,2.9779,2.9611,2.9702,2.9792,2.9611,0.0,0.0,2.9611,2.9611,2.9689,2.9792,2.9792,2.9792,2.9792,2.9792,2.9792,2.9792,2.9792,2.9792,2.9792,2.9689,2.9611,2.9611,2.9534,2.9973,3.082,3.1429,3.2232,3.303,3.3825,3.4128,3.4128,3.4346,3.4414,3.4414,1.0979,1.1755,1.2436,1.2436,1.2635,1.3022,1.3908,1.41,1.4388,1.5445,1.554,1.5635,1.5737,1.5832,1.5832,1.5832,1.5832,1.5832,1.5832,1.6028,1.613,1.613,1.64,1.6494,1.6494,1.6588,1.6784,1.6979,1.7246,1.7326,1.7326,1.7326,1.8141,1.9786,2.0051,2.1141,2.2687,2.296,2.3135,2.3135,2.3135,2.3135,2.3135,2.3135,2.3135,2.3135,2.3135,2.3135,2.3135,2.3135,2.3135,2.3135,2.3135,2.3135,2.3135,2.3135,2.3135,2.3135,2.3135,2.4392,2.6235,2.8087,2.8566,2.8724,2.904,2.9118,2.9184,2.9456,2.9624,2.9624,2.9534,2.9443,2.9431,2.9702,2.9521,2.9509,2.9792,0.0,2.9792,2.9792,2.9792,2.9689,2.9419,2.9611,2.9611,2.9341,2.9341,2.9341,0.0,2.9341,2.9431,2.9714,2.9792,2.9792,2.9702,2.9702,2.9714,2.9714,2.9714,2.9714,2.9714,2.9431,2.9341,2.9341,2.9209,2.9639,3.0607,3.1071,3.1809,3.269,3.3409,3.377,3.3839,3.4128,3.4278,3.4414,0.9821,1.069,1.1463,1.1463,1.2145,1.2732,1.2926,1.2926,1.3318,1.4388,1.449,1.4873,1.573,1.5832,1.5832,1.5832,1.5832,1.5832,1.5832,1.5832,1.5832,1.5832,1.592,1.6021,1.6218,1.6697,1.6979,1.6979,1.7246,1.7326,1.7326,1.7326,1.7419,1.7785,1.9505,2.0413,2.0773,2.2413,2.3135,2.3135,2.3135,2.3135,2.3135,2.3135,2.3135,2.3135,2.3135,2.3135,2.3135,2.3135,2.3135,2.3135,2.3135,2.3135,2.3135,2.3135,2.3135,2.3135,2.3135,2.4392,2.6318,2.8223,2.8235,2.7914,2.8895,2.8542,2.8051,2.8131,2.8712,2.8961,2.8223,2.8712,2.9209,2.9431,2.9419,2.9509,2.9792,0.0,2.9792,2.9792,2.9599,2.9431,2.9419,2.9275,2.9209,2.9131,2.9131,2.9131,2.9131,2.9131,2.9209,2.9209,2.9624,2.9689,2.9431,2.9287,2.9209,2.9209,2.9209,2.9209,2.9209,2.9209,2.9131,2.9131,2.9131,2.9574,3.0393,3.1355,3.2015,3.2519,3.3087,3.3534,3.377,3.352,3.3811,3.4414,0.9628,1.0015,1.0306,1.0306,1.0694,1.1277,1.1755,1.1853,1.2242,1.3318,1.3414,1.3607,1.4082,1.4082,1.4376,1.4962,1.4968,1.5255,1.573,1.5832,1.5832,1.5832,1.5832,1.5832,1.6021,1.6414,1.6602,1.6602,1.6777,1.6958,1.716,1.716,1.752,1.8149,1.9604,2.0503,2.106,2.2501,2.3135,2.3135,2.3135,2.3135,2.3135,2.3135,2.3135,2.3135,2.3135,2.3135,2.3135,2.3135,2.3135,2.3135,2.3135,2.3135,2.3135,2.3135,2.3135,2.3222,2.3734,2.4488,2.5411,2.6812,2.6976,2.6894,2.7371,2.7302,2.7139,2.7139,2.7799,2.8303,2.7891,2.8383,2.904,2.9197,2.9118,0.0,0.0,2.9378,2.9378,2.9378,2.9287,2.9197,2.9106,2.9118,2.9052,2.8961,2.8961,2.8961,2.8961,2.8961,2.8895,2.8749,2.9221,2.9378,2.9275,2.9131,2.9131,2.9131,2.9131,2.9131,2.9131,2.8961,2.8961,2.8961,2.8816,2.904,2.9549,3.038,3.082,3.1193,3.2448,3.3044,3.3269,3.3687,3.4113,3.4414,0.9529,0.9529,0.9628,0.9628,0.9628,0.9916,1.069,1.0788,1.1175,1.2242,1.2339,1.2436,1.2635,1.2727,1.3022,1.3902,1.3902,1.4286,1.5057,1.5343,1.554,1.5825,1.5832,1.5832,1.5832,1.6028,1.6224,1.6224,1.6494,1.6683,1.6878,1.6878,1.7426,1.8427,1.933,2.024,2.106,2.2236,2.2775,2.2775,2.3047,2.3135,2.3135,2.3135,2.3135,2.3135,2.3135,2.3135,2.3135,2.3135,2.3135,2.3135,2.3135,2.3135,2.3135,2.3135,2.3135,2.3309,2.4241,2.4498,2.4744,2.5652,2.5797,2.587,2.6036,2.613,2.6069,2.6069,2.673,2.7302,2.7058,2.781,2.8474,2.8712,0.0,0.0,0.0,2.9131,2.9131,2.9131,2.9052,2.8961,2.8791,2.8895,2.8895,2.8724,2.8724,2.8724,2.8724,2.8724,2.8657,2.851,2.8816,2.8973,2.9052,2.8973,2.8973,2.8973,2.8973,2.8973,2.8973,2.8803,2.8724,2.8724,2.8578,2.8578,2.8803,2.9471,2.9781,3.0024,3.1663,3.2475,3.2761,3.3548,3.4059,3.4264,0.9236,0.943,0.9628,0.9628,0.9628,0.9628,0.9723,0.9723,1.0109,1.117,1.1268,1.1658,1.2635,1.2727,1.2727,1.2829,1.2829,1.2829,1.2926,1.3902,1.4873,1.573,1.5832,1.5832,1.5832,1.6028,1.6224,1.6224,1.6494,1.6588,1.6588,1.6588,1.6784,1.716,1.8064,1.8703,1.9155,2.097,2.1784,2.1872,2.2784,2.3135,2.3135,2.3135,2.3135,2.3135,2.3135,2.3135,2.3135,2.3135,2.3135,2.3135,2.3135,2.3135,2.3135,2.3135,2.3135,2.3309,2.4241,2.4498,2.4734,2.5786,2.5473,2.5073,2.5953,2.5473,2.4829,2.4659,2.5326,2.5746,2.4914,2.6174,2.7418,2.7557,0.0,0.0,2.9052,2.9131,2.9131,2.9131,2.8961,2.8803,2.8791,2.8657,2.851,2.851,2.851,2.851,2.851,2.851,2.851,2.851,2.851,2.8657,2.8803,2.8657,2.851,2.851,2.851,2.851,2.851,2.851,2.851,2.851,2.851,2.851,2.859,2.9549,2.9781,2.9574,3.0846,3.1796,3.2376,3.2331,3.2917,3.377,0.943,0.9529,0.9628,0.9628,0.9628,0.9628,0.9628,0.9628,0.9723,1.0109,1.0207,1.0306,1.0694,1.0792,1.1082,1.1755,1.1755,1.2047,1.263,1.3119,1.4088,1.573,1.5832,1.5832,1.5832,1.5927,1.5927,1.5927,1.6021,1.6211,1.6312,1.6312,1.6501,1.6777,1.7777,1.8326,1.8611,1.9977,2.0701,2.0872,2.1872,2.2236,2.2325,2.2872,2.3135,2.3135,2.3135,2.3135,2.3135,2.3135,2.3135,2.3135,2.3135,2.3135,2.3135,2.3135,2.3135,2.3135,2.356,2.3647,2.3724,2.4135,2.3973,2.381,2.4135,2.3973,2.3734,2.3647,2.4317,2.4914,2.4584,2.5495,2.6329,2.64,0.0,2.7151,2.7834,2.7914,2.8075,2.8657,2.8657,2.8578,2.8578,2.851,2.851,2.851,2.851,2.851,2.851,2.851,2.851,2.851,2.851,2.851,2.8578,2.851,2.851,2.851,2.851,2.851,2.851,2.851,2.851,2.851,2.851,2.851,2.851,2.9028,2.9172,2.9184,3.062,3.1368,3.1723,3.2547,3.3129,3.3479,0.9327,0.9426,0.9529,0.9628,0.9628,0.9628,0.9628,0.9628,0.9628,0.9628,0.9628,0.9628,0.9628,0.9628,0.992,1.0592,1.069,1.0984,1.1663,1.2047,1.3119,1.5255,1.5635,1.5832,1.5832,1.5832,1.5832,1.5832,1.5832,1.5927,1.6028,1.6028,1.6218,1.6494,1.7131,1.7591,1.7878,1.898,1.9704,2.024,2.1239,2.1872,2.2236,2.2862,2.3135,2.3135,2.3135,2.3135,2.3135,2.3135,2.3135,2.3135,2.3135,2.3135,2.3135,2.3135,2.3135,2.3135,2.3135,2.3135,2.3135,2.3135,2.3135,2.3135,2.3135,2.3135,2.3135,2.3135,2.3647,2.4069,2.4069,2.4829,2.5411,2.5411,2.5913,2.6494,2.7103,2.7429,2.7846,2.8431,2.851,2.851,2.851,2.851,2.851,2.851,2.851,2.851,2.851,2.851,2.851,2.851,2.851,2.851,2.851,2.851,2.851,2.851,2.851,2.851,2.851,2.851,2.851,2.851,2.851,2.851,2.851,2.8657,2.8724,2.8803,3.0088,3.0846,3.122,3.2245,3.2832,3.3129,0.8726,0.9031,0.9232,0.9529,0.9628,0.9628,0.9628,0.9628,0.9628,0.9628,0.9628,0.9628,0.9628,0.9628,0.9628,0.9628,0.9628,0.9628,0.9628,1.0596,1.2145,1.4202,1.5255,1.5737,1.5825,1.5825,1.5825,1.5832,1.5832,1.5832,1.5832,1.5832,1.5927,1.6224,1.6224,1.6312,1.6683,1.7878,1.898,1.9985,2.1159,2.2236,2.3047,2.3047,2.3047,2.3135,2.3135,2.3135,2.3135,2.3135,2.3135,2.3135,2.3135,2.3135,2.3135,2.3135,2.3135,2.3135,2.3135,2.3135,2.3135,2.3135,2.3135,2.3135,2.3135,2.3135,2.3135,2.3135,2.3135,2.3135,2.3135,2.3907,2.4498,2.4498,2.6008,2.7185,2.7185,2.7926,2.851,2.851,2.851,2.851,2.851,2.851,2.851,2.851,2.851,2.851,2.851,2.851,2.851,2.851,2.851,2.851,2.851,2.851,2.851,2.851,2.851,2.851,2.851,2.851,2.851,2.851,2.851,2.851,2.851,2.851,2.851,2.859,2.9184,3.0012,3.0895,3.1145,3.1809,3.2632,0.6523,0.6623,0.7024,0.8018,0.8216,0.852,0.9426,0.9628,0.9628,0.9628,0.9628,0.9628,0.9628,0.9628,0.9628,0.9628,0.9628,0.9628,0.9628,1.0596,1.1463,1.215,1.3119,1.3992,1.4771,1.4777,1.5064,1.5832,1.5832,1.5832,1.5832,1.5832,1.5832,1.5927,1.5927,1.6021,1.6312,1.6683,1.7145,1.7684,1.888,1.9886,2.0709,2.1695,2.2422,2.2882,2.3047,2.3135,2.3135,2.3135,2.3135,2.3135,2.3135,2.3135,2.3135,2.3135,2.3135,2.3135,2.3135,2.3135,2.3135,2.3135,2.3135,2.3135,2.3135,2.3135,2.3135,2.3135,2.3135,2.3135,2.3135,2.3309,2.3474,2.3474,2.3983,2.4573,2.5253,2.5505,2.6163,2.7429,2.7592,2.7846,2.8431,2.851,2.851,2.851,2.851,2.851,2.851,2.851,2.851,2.851,2.851,2.851,2.851,2.851,2.851,2.851,2.851,2.851,2.851,2.851,2.851,2.851,2.851,2.851,2.851,2.851,2.851,2.859,2.9184,2.9561,2.9935,3.0393,3.0996,3.1589,0.5425,0.5425,0.5724,0.6617,0.7117,0.7717,0.8619,0.9126,0.943,0.9628,0.9628,0.9628,0.9628,0.9628,0.9628,0.9628,0.9628,0.9628,0.9628,1.0207,1.0596,1.0596,1.1179,1.215,1.3613,1.41,1.4586,1.5255,1.5635,1.5832,1.5832,1.5832,1.5832,1.5832,1.5832,1.5927,1.6028,1.6123,1.6494,1.7138,1.7963,1.8788,1.9604,2.0512,2.132,2.2148,2.2315,2.2677,2.2969,2.3057,2.3135,2.3135,2.3135,2.3135,2.3135,2.3135,2.3135,2.3135,2.3135,2.3135,2.3135,2.3135,2.3135,2.3135,2.3135,2.3135,2.3135,2.3135,2.3135,2.3135,2.3135,2.3135,2.3135,2.3135,2.3396,2.382,2.4413,2.4829,2.5411,2.6505,2.701,2.7429,2.7926,2.8259,2.851,2.851,2.851,2.851,2.851,2.851,2.851,2.851,2.851,2.851,2.851,2.851,2.851,2.851,2.851,2.851,2.851,2.851,2.851,2.851,2.851,2.851,2.851,2.851,2.851,2.851,2.8882,2.9197,2.9419,2.9793,3.033,3.0846,0.4828,0.4828,0.5027,0.5322,0.6221,0.7021,0.7515,0.8425,0.9133,0.9529,0.9529,0.9529,0.9529,0.9529,0.9529,0.9628,0.9628,0.9628,0.9628,0.9628,0.9628,0.9628,0.9628,1.0502,1.2339,1.3511,1.41,1.4202,1.5159,1.5635,1.5635,1.573,1.5832,1.5832,1.5832,1.5832,1.5832,1.6028,1.6676,1.7598,1.7762,1.8403,1.9314,1.9405,2.0042,2.1042,2.1212,2.1952,2.2803,2.3057,2.3135,2.3135,2.3135,2.3135,2.3135,2.3135,2.3135,2.3135,2.3135,2.3135,2.3135,2.3135,2.3135,2.3135,2.3135,2.3135,2.3135,2.3135,2.3135,2.3135,2.3135,2.3135,2.3135,2.3135,2.382,2.4413,2.4413,2.5073,2.5568,2.5652,2.6423,2.701,2.7103,2.7846,2.8431,2.851,2.851,2.851,2.851,2.851,2.851,2.851,2.851,2.851,2.851,2.851,2.851,2.851,2.851,2.851,2.851,2.851,2.851,2.851,2.851,2.851,2.851,2.851,2.851,2.851,2.851,2.8816,2.9341,2.9341,2.9716,3.0317,0.2321,0.2422,0.2723,0.3822,0.4221,0.502,0.7018,0.7521,0.7922,0.8825,0.8924,0.9027,0.9232,0.9335,0.9331,0.9628,0.9628,0.9628,0.9628,0.9628,0.9628,0.9628,0.9628,0.9821,1.031,1.1272,1.2242,1.3022,1.4094,1.4586,1.4682,1.5445,1.5832,1.5832,1.5832,1.5832,1.5832,1.5832,1.6015,1.6204,1.6487,1.7044,1.787,1.8419,1.9513,2.0773,2.1418,2.2148,2.2803,2.3057,2.3135,2.3135,2.3135,2.3135,2.3135,2.3135,2.3135,2.3135,2.3135,2.3135,2.3135,2.3135,2.3135,2.3135,2.3135,2.3135,2.3135,2.3135,2.3135,2.3135,2.3135,2.3135,2.3135,2.3135,2.3309,2.3387,2.3387,2.356,2.3983,2.4659,2.4999,2.5326,2.608,2.6928,2.7765,2.8431,2.851,2.851,2.851,2.851,2.851,2.851,2.851,2.851,2.851,2.851,2.851,2.851,2.851,2.851,2.851,2.851,2.851,2.851,2.851,2.851,2.851,2.851,2.851,2.851,2.851,2.859,2.8657,2.8657,2.9118,2.9716,0.1617,0.1617,0.1818,0.252,0.3021,0.3922,0.522,0.5922,0.6725,0.7922,0.8024,0.8322,0.8931,0.9031,0.913,0.943,0.9529,0.9628,0.9628,0.9628,0.9628,0.9628,0.9628,0.9628,0.9628,1.0109,1.0984,1.195,1.3511,1.4298,1.4298,1.535,1.5832,1.5832,1.5832,1.5832,1.5832,1.5832,1.5832,1.5832,1.5927,1.6211,1.6676,1.7037,1.7956,1.9139,1.9687,2.0962,2.2334,2.2872,2.3135,2.3135,2.3135,2.3135,2.3135,2.3135,2.3135,2.3135,2.3135,2.3135,2.3135,2.3135,2.3135,2.3135,2.3135,2.3135,2.3135,2.3135,2.3135,2.3135,2.3135,2.3135,2.3135,2.3135,2.3135,2.3135,2.3135,2.3135,2.3309,2.3734,2.4241,2.4829,2.5746,2.667,2.7348,2.7846,2.8259,2.851,2.851,2.851,2.851,2.851,2.851,2.851,2.851,2.851,2.851,2.851,2.851,2.851,2.851,2.851,2.851,2.851,2.851,2.851,2.851,2.851,2.851,2.851,2.851,2.851,2.851,2.851,2.904,2.9947,0.1617,0.1617,0.1617,0.1617,0.2321,0.3022,0.342,0.4325,0.5327,0.6623,0.6924,0.7425,0.8326,0.8623,0.8928,0.9133,0.9331,0.9529,0.9529,0.9529,0.9628,0.9628,0.9628,0.9628,0.9628,0.9628,1.0015,1.0886,1.2829,1.3902,1.4004,1.5064,1.5635,1.5832,1.5832,1.5832,1.5832,1.5832,1.5832,1.5832,1.5832,1.5832,1.5832,1.5832,1.6487,1.7326,1.7855,1.9579,2.1774,2.2501,2.296,2.3135,2.3135,2.3135,2.3135,2.3135,2.3135,2.3135,2.3135,2.3135,2.3135,2.3135,2.3135,2.3135,2.3135,2.3135,2.3135,2.3135,2.3135,2.3135,2.3135,2.3135,2.3135,2.3135,2.3135,2.3135,2.3135,2.3135,2.3135,2.3135,2.382,2.4573,2.5495,2.6423,2.701,2.7185,2.8007,2.851,2.851,2.851,2.851,2.851,2.851,2.851,2.851,2.851,2.851,2.851,2.851,2.851,2.851,2.851,2.851,2.851,2.851,2.851,2.851,2.851,2.851,2.851,2.851,2.851,2.851,2.851,2.9197,3.0177,0.1617,0.1617,0.1617,0.1617,0.1717,0.212,0.3123,0.3425,0.3825,0.5024,0.5929,0.6634,0.703,0.8124,0.8825,0.8825,0.913,0.9236,0.9236,0.943,0.9628,0.9628,0.9628,0.9628,0.9628,0.9628,0.9628,0.9821,1.0984,1.2047,1.2926,1.3998,1.4968,1.5832,1.5832,1.5832,1.5832,1.5832,1.5832,1.5832,1.5832,1.5832,1.5832,1.6028,1.6588,1.7326,1.7855,1.9488,2.1391,2.148,2.2217,2.3135,2.3135,2.3135,2.3135,2.3135,2.3135,2.3135,2.3135,2.3135,2.3135,2.3135,2.3135,2.3135,2.3135,2.3135,2.3135,2.3135,2.3135,2.3135,2.3135,2.3135,2.3135,2.3135,2.3135,2.3135,2.3135,2.3135,2.3135,2.3135,2.3222,2.3647,2.4584,2.5495,2.6329,2.7185,2.8007,2.851,2.851,2.851,2.851,2.851,2.851,2.851,2.851,2.851,2.851,2.851,2.851,2.851,2.851,2.851,2.851,2.851,2.851,2.851,2.851,2.851,2.851,2.851,2.851,2.851,2.851,2.851,2.8961,2.9484,0.1617,0.1617,0.1617,0.1617,0.1617,0.1717,0.222,0.2321,0.2722,0.3725,0.4826,0.5829,0.6531,0.773,0.8531,0.8531,0.8829,0.8928,0.8928,0.9126,0.9229,0.9331,0.9335,0.943,0.9628,0.9628,0.9628,0.9628,1.069,1.1463,1.1853,1.3516,1.4586,1.4968,1.554,1.5832,1.5832,1.5832,1.5832,1.5832,1.5832,1.5832,1.5832,1.5927,1.6211,1.6574,1.7498,1.8495,1.9571,2.0124,2.1123,2.212,2.212,2.258,2.3135,2.3135,2.3135,2.3135,2.3135,2.3135,2.3135,2.3135,2.3135,2.3135,2.3135,2.3135,2.3135,2.3135,2.3135,2.3135,2.3135,2.3135,2.3135,2.3135,2.3135,2.3135,2.3135,2.3135,2.3135,2.3135,2.3135,2.3222,2.3647,2.4573,2.5411,2.6329,2.7255,2.8018,2.851,2.851,2.851,2.851,2.851,2.851,2.851,2.851,2.851,2.851,2.851,2.851,2.851,2.851,2.851,2.851,2.851,2.851,2.851,2.851,2.851,2.851,2.851,2.851,2.851,2.851,2.8882,2.9419]},{"header":{"parameterUnit":"m.s-1","parameterCategory":1,"la1":30.6,"la2":28.766,"lo1":-90.7593,"lo2":-88.6598,"dy":0.0162,"dx":0.0183,"nx":116,"ny":114,"refTime":"2023-03-27T18:00:00:Z","depth":0,"parameterNumber":3,"parameterNumberName":"V-component_of_WINDS"},"data":[0.0,0.0,0.0,0.0,0.0,0.0,0.0,0.0,0.0,0.0,0.0,0.0,0.0,0.0,0.0,0.0,0.0,0.0,0.0,0.0,0.0,0.0,0.0,0.0,0.0,0.0,0.0,0.0,0.0,0.0,0.0,0.0,0.0,0.0,0.0,0.0,0.0,0.0,0.0,0.0,0.0,0.0,0.0,0.0,0.0,0.0,0.0,0.0,0.0,0.0,0.0,0.0,0.0,0.0,0.0,0.0,0.0,0.0,0.0,0.0,0.0,0.0,0.0,0.0,0.0,0.0,0.0,0.0,0.0,0.0,0.0,0.0,0.0,0.0,0.0,0.0,0.0,0.0,0.0,0.0,0.0,0.0,0.0,0.0,0.0,0.0,0.0,0.0,0.0,0.0,0.0,0.0,0.0,0.0,0.0,0.0,0.0,0.0,0.0,0.0,0.0,0.0,0.0,0.0,0.0,0.0,0.0,0.0,0.0,0.0,0.0,0.0,0.0,0.0,0.0,0.0,0.0,0.0,0.0,0.0,0.0,0.0,0.0,0.0,0.0,0.0,0.0,0.0,0.0,0.0,0.0,0.0,0.0,0.0,0.0,0.0,0.0,0.0,0.0,0.0,0.0,0.0,0.0,0.0,0.0,0.0,0.0,0.0,0.0,0.0,0.0,0.0,0.0,0.0,0.0,0.0,0.0,0.0,0.0,0.0,0.0,0.0,0.0,0.0,0.0,0.0,0.0,0.0,0.0,0.0,0.0,0.0,0.0,0.0,0.0,0.0,0.0,0.0,0.0,0.0,0.0,0.0,0.0,0.0,0.0,0.0,0.0,0.0,0.0,0.0,0.0,0.0,0.0,0.0,0.0,0.0,0.0,0.0,0.0,0.0,0.0,0.0,0.0,0.0,0.0,0.0,0.0,0.0,0.0,0.0,0.0,0.0,0.0,0.0,0.0,0.0,0.0,0.0,0.0,0.0,0.0,0.0,0.0,0.0,0.0,0.0,0.0,0.0,0.0,0.0,0.0,0.0,0.0,0.0,0.0,0.0,0.0,0.0,0.0,0.0,0.0,0.0,0.0,0.0,0.0,0.0,0.0,0.0,0.0,0.0,0.0,0.0,0.0,0.0,0.0,0.0,0.0,0.0,0.0,0.0,0.0,0.0,0.0,0.0,0.0,0.0,0.0,0.0,0.0,0.0,0.0,0.0,0.0,0.0,0.0,0.0,0.0,0.0,0.0,0.0,0.0,0.0,0.0,0.0,0.0,0.0,0.0,0.0,0.0,0.0,0.0,0.0,0.0,0.0,0.0,0.0,0.0,0.0,0.0,0.0,0.0,0.0,0.0,0.0,0.0,0.0,0.0,0.0,0.0,0.0,0.0,0.0,0.0,0.0,0.0,0.0,0.0,0.0,0.0,0.0,0.0,0.0,0.0,0.0,0.0,0.0,0.0,0.0,0.0,0.0,0.0,0.0,0.0,0.0,0.0,0.0,0.0,0.0,0.0,0.0,0.0,0.0,0.0,0.0,0.0,0.0,0.0,0.0,0.0,0.0,0.0,0.0,0.0,0.0,0.0,0.0,0.0,0.0,0.0,0.0,0.0,0.0,0.0,0.0,0.0,0.0,0.0,0.0,0.0,0.0,0.0,0.0,0.0,0.0,0.0,0.0,0.0,0.0,0.0,0.0,0.0,0.0,0.0,0.0,0.0,0.0,0.0,0.0,0.0,0.0,0.0,0.0,0.0,0.0,0.0,0.0,0.0,0.0,0.0,0.0,0.0,0.0,0.0,0.0,0.0,0.0,0.0,0.0,0.0,0.0,0.0,0.0,0.0,0.0,0.0,0.0,0.0,0.0,0.0,0.0,0.0,0.0,0.0,0.0,0.0,0.0,0.0,0.0,0.0,0.0,0.0,0.0,0.0,0.0,0.0,0.0,0.0,0.0,0.0,0.0,0.0,0.0,0.0,0.0,0.0,0.0,0.0,0.0,0.0,0.0,0.0,0.0,0.0,0.0,0.0,0.0,0.0,0.0,0.0,0.0,0.0,0.0,0.0,0.0,0.0,0.0,0.0,0.0,0.0,0.0,0.0,0.0,0.0,0.0,0.0,0.0,0.0,0.0,0.0,0.0,0.0,0.0,0.0,0.0,0.0,0.0,0.0,0.0,0.0,0.0,0.0,0.0,0.0,0.0,0.0,0.0,0.0,0.0,0.0,0.0,0.0,0.0,0.0,0.0,0.0,0.0,0.0,0.0,0.0,0.0,0.0,0.0,0.0,0.0,0.0,0.0,0.0,0.0,0.0,0.0,0.0,0.0,0.0,0.0,0.0,0.0,0.0,0.0,0.0,0.0,0.0,0.0,0.0,0.0,0.0,0.0,0.0,0.0,0.0,0.0,0.0,0.0,0.0,0.0,0.0,0.0,0.0,0.0,0.0,0.0,0.0,0.0,0.0,0.0,0.0,0.0,0.0,0.0,0.0,0.0,0.0,0.0,0.0,0.0,0.0,0.0,0.0,0.0,0.0,0.0,0.0,0.0,0.0,0.0,0.0,0.0,0.0,0.0,0.0,0.0,0.0,0.0,0.0,0.0,0.0,0.0,0.0,0.0,0.0,0.0,0.0,0.0,0.0,0.0,0.0,0.0,0.0,0.0,0.0,0.0,0.0,0.0,0.0,0.0,0.0,0.0,0.0,0.0,0.0,0.0,0.0,0.0,0.0,0.0,0.0,0.0,0.0,0.0,0.0,0.0,0.0,0.0,0.0,0.0,0.0,0.0,0.0,0.0,0.0,0.0,0.0,0.0,0.0,0.0,0.0,0.0,0.0,0.0,0.0,0.0,0.0,0.0,0.0,0.0,0.0,0.0,0.0,0.0,0.0,0.0,0.0,0.0,0.0,0.0,0.0,0.0,0.0,0.0,0.0,0.0,0.0,0.0,0.0,0.0,0.0,0.0,0.0,0.0,0.0,0.0,0.0,0.0,0.0,0.0,0.0,0.0,0.0,0.0,0.0,0.0,0.0,0.0,0.0,0.0,0.0,0.0,0.0,0.0,0.0,0.0,0.0,0.0,0.0,0.0,0.0,0.0,0.0,0.0,0.0,0.0,0.0,0.0,0.0,0.0,0.0,0.0,0.0,0.0,0.0,0.0,0.0,0.0,0.0,0.0,0.0,0.0,0.0,0.0,0.0,0.0,0.0,0.0,0.0,0.0,0.0,0.0,0.0,0.0,0.0,0.0,0.0,0.0,0.0,0.0,0.0,0.0,0.0,0.0,0.0,0.0,0.0,0.0,0.0,0.0,0.0,0.0,0.0,0.0,0.0,0.0,0.0,0.0,0.0,0.0,0.0,0.0,0.0,0.0,0.0,0.0,0.0,0.0,0.0,0.0,0.0,0.0,0.0,0.0,0.0,0.0,0.0,0.0,0.0,0.0,0.0,0.0,0.0,0.0,0.0,0.0,0.0,0.0,0.0,0.0,0.0,0.0,0.0,0.0,0.0,0.0,0.0,0.0,0.0,0.0,0.0,0.0,0.0,0.0,0.0,0.0,0.0,0.0,0.0,0.0,0.0,0.0,0.0,0.0,0.0,0.0,0.0,0.0,0.0,0.0,0.0,0.0,0.0,0.0,0.0,0.0,0.0,0.0,0.0,0.0,0.0,0.0,0.0,0.0,0.0,0.0,0.0,0.0,0.0,0.0,0.0,0.0,0.0,0.0,0.0,0.0,0.0,0.0,0.0,0.0,0.0,0.0,0.0,0.0,0.0,0.0,0.0,0.0,0.0,0.0,0.0,0.0,0.0,0.0,0.0,0.0,0.0,0.0,0.0,0.0,0.0,0.0,0.0,0.0,0.0,0.0,0.0,0.0,0.0,0.0,0.0,0.0,0.0,0.0,0.0,0.0,0.0,0.0,0.0,0.0,0.0,0.0,0.0,0.0,0.0,0.0,0.0,0.0,0.0,0.0,0.0,0.0,0.0,0.0,0.0,0.0,0.0,0.0,0.0,0.0,0.0,0.0,0.0,0.0,0.0,0.0,0.0,0.0,0.0,0.0,0.0,0.0,0.0,0.0,0.0,0.0,0.0,0.0,0.0,0.0,0.0,0.0,0.0,0.0,0.0,0.0,0.0,0.0,0.0,0.0,0.0,0.0,0.0,0.0,0.0,0.0,0.0,0.0,0.0,0.0,0.0,0.0,0.0,0.0,0.0,0.0,0.0,0.0,0.0,0.0,0.0,0.0,0.0,0.0,0.0,0.0,0.0,0.0,0.0,0.0,0.0,0.0,0.0,0.0,0.0,0.0,0.0,0.0,0.0,0.0,0.0,0.0,0.0,0.0,0.0,0.0,0.0,0.0,0.0,0.0,0.0,0.0,0.0,0.0,0.0,0.0,0.0,0.0,0.0,0.0,0.0,0.0,0.0,0.0,0.0,0.0,0.0,0.0,0.0,0.0,0.0,0.0,0.0,0.0,0.0,0.0,0.0,0.0,0.0,0.0,0.0,0.0,0.0,0.0,0.0,0.0,0.0,0.0,0.0,0.0,0.0,0.0,0.0,0.0,0.0,0.0,0.0,0.0,0.0,0.0,0.0,0.0,0.0,0.0,0.0,0.0,0.0,0.0,0.0,0.0,0.0,0.0,0.0,0.0,0.0,0.0,0.0,0.0,0.0,0.0,0.0,0.0,0.0,0.0,0.0,0.0,0.0,0.0,0.0,0.0,0.0,0.0,0.0,0.0,0.0,0.0,0.0,0.0,0.0,0.0,0.0,0.0,0.0,0.0,0.0,0.0,0.0,0.0,0.0,0.0,0.0,0.0,0.0,0.0,0.0,0.0,0.0,0.0,0.0,0.0,0.0,0.0,0.0,0.0,0.0,0.0,0.0,0.0,0.0,0.0,0.0,0.0,0.0,0.0,0.0,0.0,0.0,0.0,0.0,0.0,0.0,0.0,0.0,0.0,0.0,0.0,0.0,0.0,0.0,0.0,0.0,0.0,0.0,0.0,0.0,0.0,0.0,0.0,0.0,0.0,0.0,0.0,0.0,0.0,0.0,0.0,0.0,0.0,0.0,0.0,0.0,0.0,0.0,0.0,0.0,0.0,0.0,0.0,0.0,0.0,0.0,0.0,0.0,0.0,0.0,0.0,0.0,0.0,0.0,0.0,0.0,0.0,0.0,0.0,0.0,0.0,0.0,0.0,0.0,0.0,0.0,0.0,0.0,0.0,0.0,0.0,0.0,0.0,0.0,0.0,0.0,0.0,0.0,0.0,0.0,0.0,0.0,0.0,0.0,0.0,0.0,0.0,0.0,0.0,0.0,0.0,0.0,0.0,0.0,0.0,0.0,0.0,0.0,0.0,0.0,0.0,0.0,0.0,0.0,0.0,0.0,0.0,0.0,0.0,0.0,0.0,0.0,0.0,0.0,0.0,0.0,0.0,0.0,0.0,0.0,0.0,0.0,0.0,0.0,0.0,0.0,0.0,0.0,0.0,0.0,0.0,0.0,0.0,0.0,0.0,0.0,0.0,0.0,0.0,0.0,0.0,0.0,0.0,0.0,0.0,0.0,0.0,0.0,0.0,0.0,0.0,0.0,0.0,0.0,0.0,0.0,0.0,0.0,0.0,0.0,0.0,0.0,0.0,0.0,0.0,0.0,0.0,0.0,0.0,0.0,0.0,0.0,0.0,0.0,0.0,0.0,0.0,0.0,0.0,0.0,0.0,0.0,0.0,0.0,0.0,0.0,0.0,0.0,0.0,0.0,0.0,0.0,0.0,0.0,0.0,0.0,0.0,0.0,0.0,0.0,0.0,0.0,0.0,0.0,0.0,0.0,0.0,0.0,0.0,0.0,0.0,0.0,0.0,0.0,0.0,0.0,0.0,0.0,0.0,0.0,0.0,0.0,0.0,0.0,0.0,0.0,0.0,0.0,0.0,0.0,0.0,0.0,0.0,0.0,0.0,0.0,0.0,0.0,0.0,0.0,0.0,0.0,0.0,0.0,0.0,0.0,0.0,0.0,0.0,0.0,0.0,0.0,0.0,0.0,0.0,0.0,0.0,0.0,0.0,0.0,0.0,0.0,0.0,0.0,0.0,0.0,0.0,0.0,0.0,0.0,0.0,2.3937,0.0,0.0,0.0,0.0,0.0,0.0,0.0,0.0,0.0,0.0,0.0,0.0,0.0,0.0,0.0,0.0,0.0,0.0,0.0,0.0,0.0,0.0,0.0,0.0,0.0,0.0,0.0,0.0,0.0,0.0,0.0,0.0,0.0,0.0,0.0,0.0,0.0,0.0,0.0,0.0,0.0,0.0,0.0,0.0,0.0,0.0,0.0,0.0,0.0,0.0,0.0,0.0,0.0,0.0,0.0,0.0,0.0,0.0,0.0,0.0,0.0,0.0,0.0,0.0,0.0,0.0,0.0,0.0,0.0,0.0,0.0,0.0,0.0,0.0,0.0,0.0,0.0,0.0,0.0,0.0,0.0,0.0,0.0,0.0,0.0,0.0,0.0,0.0,0.0,0.0,0.0,0.0,0.0,0.0,0.0,0.0,0.0,0.0,0.0,0.0,0.0,0.0,0.0,0.0,0.0,0.0,0.0,0.0,0.0,0.0,0.0,0.0,0.0,0.0,0.0,0.0,2.4196,0.0,0.0,0.0,0.0,0.0,0.0,0.0,0.0,0.0,0.0,0.0,0.0,0.0,0.0,0.0,0.0,0.0,0.0,0.0,0.0,0.0,0.0,0.0,0.0,0.0,0.0,0.0,0.0,0.0,0.0,0.0,0.0,0.0,0.0,0.0,0.0,0.0,0.0,0.0,0.0,0.0,0.0,0.0,0.0,0.0,0.0,0.0,0.0,0.0,0.0,0.0,0.0,0.0,0.0,0.0,0.0,0.0,0.0,0.0,0.0,0.0,0.0,0.0,0.0,0.0,0.0,0.0,0.0,0.0,0.0,0.0,0.0,0.0,0.0,0.0,0.0,0.0,0.0,0.0,0.0,0.0,0.0,0.0,0.0,0.0,0.0,0.0,0.0,0.0,0.0,0.0,0.0,0.0,0.0,0.0,0.0,0.0,0.0,0.0,0.0,0.0,0.0,0.0,0.0,0.0,0.0,0.0,0.0,2.4871,2.4625,2.454,2.454,2.454,2.454,2.454,2.454,2.454,0.0,0.0,0.0,0.0,0.0,0.0,0.0,0.0,0.0,0.0,0.0,0.0,0.0,0.0,0.0,0.0,0.0,0.0,0.0,0.0,0.0,0.0,0.0,0.0,0.0,0.0,0.0,0.0,0.0,0.0,0.0,0.0,0.0,0.0,0.0,0.0,0.0,0.0,3.6554,3.6492,3.6492,3.6492,3.6492,3.6492,0.0,0.0,0.0,0.0,0.0,0.0,0.0,0.0,0.0,0.0,0.0,0.0,0.0,0.0,0.0,0.0,0.0,0.0,0.0,0.0,0.0,0.0,0.0,0.0,0.0,0.0,0.0,0.0,0.0,0.0,0.0,0.0,0.0,0.0,0.0,0.0,0.0,0.0,0.0,0.0,0.0,0.0,0.0,2.9394,2.9793,0.0,0.0,0.0,0.0,0.0,0.0,0.0,0.0,0.0,0.0,0.0,0.0,0.0,0.0,2.7067,2.6539,2.6124,2.5812,2.5285,2.4871,2.454,2.454,2.454,2.454,2.454,0.0,2.4454,2.4327,0.0,0.0,0.0,0.0,0.0,0.0,0.0,0.0,0.0,0.0,0.0,0.0,0.0,0.0,0.0,0.0,0.0,0.0,0.0,0.0,0.0,0.0,0.0,0.0,0.0,0.0,0.0,0.0,0.0,0.0,0.0,0.0,0.0,0.0,0.0,0.0,3.6616,3.6492,3.6492,3.6492,3.6492,3.6492,3.6492,3.6492,3.6492,3.6492,0.0,0.0,0.0,0.0,0.0,0.0,0.0,0.0,0.0,0.0,0.0,0.0,0.0,0.0,0.0,0.0,0.0,0.0,0.0,0.0,0.0,0.0,0.0,0.0,0.0,0.0,0.0,0.0,0.0,0.0,0.0,0.0,0.0,0.0,0.0,0.0,0.0,0.0,0.0,2.9793,2.9716,2.996,3.0037,3.0114,0.0,0.0,0.0,0.0,0.0,0.0,0.0,0.0,0.0,2.7348,2.7033,2.6715,2.6479,2.6302,2.6052,2.5895,2.5728,2.5464,2.5306,2.5306,2.5306,2.5306,2.5041,2.5041,2.5221,2.485,2.4935,2.5285,0.0,0.0,0.0,0.0,0.0,2.5812,0.0,0.0,0.0,0.0,0.0,0.0,0.0,0.0,0.0,0.0,0.0,0.0,0.0,0.0,0.0,3.3124,0.0,0.0,0.0,0.0,0.0,0.0,0.0,0.0,0.0,0.0,0.0,3.6877,3.6616,3.6492,3.6492,3.6492,3.6492,3.6492,3.6492,3.6492,3.6492,3.6492,3.6492,0.0,0.0,0.0,0.0,0.0,0.0,0.0,0.0,0.0,0.0,0.0,0.0,0.0,0.0,0.0,0.0,0.0,0.0,0.0,0.0,0.0,0.0,0.0,0.0,0.0,0.0,0.0,0.0,0.0,0.0,0.0,0.0,0.0,0.0,0.0,0.0,0.0,0.0,2.9806,2.9651,2.996,2.9729,2.9806,0.0,0.0,0.0,0.0,0.0,0.0,2.8167,2.7708,2.7452,2.7406,2.694,2.655,2.624,2.6229,2.6146,2.6052,2.6052,2.5979,2.5895,2.5895,2.5895,2.5895,2.5549,2.5549,2.5812,2.5295,2.5115,2.5369,2.5633,2.5895,2.6052,2.5895,2.5979,2.5884,0.0,0.0,0.0,0.0,0.0,0.0,0.0,0.0,0.0,0.0,0.0,0.0,0.0,0.0,3.3503,3.2951,3.2897,3.3271,0.0,0.0,0.0,0.0,0.0,0.0,0.0,0.0,0.0,3.6554,3.6492,3.6492,3.6492,3.6492,3.6492,3.6492,3.6492,3.6492,3.6492,3.6492,3.6492,3.6492,0.0,0.0,0.0,0.0,0.0,0.0,0.0,0.0,0.0,0.0,0.0,0.0,0.0,0.0,0.0,0.0,0.0,0.0,0.0,0.0,0.0,0.0,0.0,0.0,0.0,0.0,0.0,0.0,0.0,0.0,0.0,0.0,0.0,0.0,0.0,0.0,0.0,0.0,0.0,2.9883,2.9028,0.0,0.0,0.0,0.0,2.9081,2.9003,2.8779,2.8247,2.8179,2.7857,2.7219,2.7149,2.7149,2.7149,2.7149,2.688,2.6445,2.6445,2.629,2.5895,2.5895,2.5895,2.5895,2.5895,2.5895,2.5822,2.4882,2.5052,2.5812,2.538,2.5779,2.6445,2.6052,2.6135,2.6362,0.0,0.0,0.0,0.0,0.0,0.0,0.0,0.0,0.0,0.0,0.0,0.0,0.0,3.3087,3.278,3.2578,3.2578,3.2927,3.365,0.0,0.0,0.0,0.0,0.0,0.0,0.0,3.6492,3.6492,3.6492,3.6492,3.6492,3.6492,3.6492,3.6492,3.6492,3.6492,3.6492,3.6492,3.6492,3.6492,3.6492,3.6492,0.0,0.0,0.0,0.0,0.0,0.0,0.0,0.0,0.0,0.0,0.0,0.0,0.0,0.0,0.0,0.0,0.0,0.0,0.0,0.0,0.0,0.0,0.0,0.0,0.0,0.0,0.0,0.0,0.0,0.0,0.0,0.0,0.0,0.0,0.0,0.0,0.0,2.9316,2.8712,0.0,2.9003,2.8779,2.8554,2.8554,2.8075,2.7765,2.7545,2.7545,2.7464,2.7231,2.7231,2.7231,2.7231,2.7231,2.7149,2.6962,2.6962,2.6891,2.6727,2.6727,2.6727,2.6727,2.6385,2.6467,2.6655,2.5812,2.5559,2.5895,2.5728,2.5801,2.6135,2.5979,2.5979,2.6052,0.0,0.0,0.0,0.0,0.0,0.0,0.0,0.0,0.0,0.0,0.0,3.3145,3.3124,3.2656,3.2398,3.2398,3.2398,3.2782,3.3706,0.0,0.0,0.0,3.6883,0.0,0.0,3.6616,3.6492,3.6492,3.6492,3.6492,3.6492,3.6492,3.6492,3.6492,3.6492,3.6492,3.6492,3.6492,3.6492,3.6492,3.6492,3.6492,3.6492,0.0,0.0,0.0,0.0,0.0,0.0,0.0,0.0,0.0,0.0,0.0,0.0,0.0,0.0,0.0,0.0,0.0,0.0,0.0,0.0,0.0,0.0,0.0,0.0,0.0,0.0,0.0,0.0,0.0,0.0,0.0,0.0,0.0,0.0,0.0,2.8949,2.9328,2.8712,2.8407,2.9003,2.8315,2.7857,2.7857,2.7464,2.7231,2.7231,2.7231,2.7231,2.7231,2.7231,2.7231,2.7231,2.7231,2.7231,2.7231,2.7231,2.7231,2.7231,2.7231,2.7323,2.7483,2.713,2.7304,2.7641,2.7054,2.6785,2.6546,2.6045,2.5979,2.6135,2.6135,2.6218,2.6313,0.0,0.0,0.0,0.0,0.0,0.0,0.0,0.0,0.0,0.0,3.3732,3.3124,3.2897,3.2578,3.2398,3.2398,3.2398,3.2982,3.4383,3.5411,0.0,0.0,0.0,0.0,3.6492,3.6492,3.6492,3.6492,3.6492,3.6492,3.6492,3.6492,3.6492,3.6492,3.6492,3.6492,3.6492,3.6492,3.6492,3.6492,3.6492,3.6492,3.6492,0.0,0.0,0.0,0.0,0.0,0.0,0.0,0.0,0.0,0.0,0.0,0.0,0.0,0.0,0.0,0.0,0.0,0.0,0.0,0.0,0.0,0.0,0.0,0.0,0.0,0.0,0.0,0.0,0.0,0.0,0.0,0.0,0.0,3.0037,2.996,2.996,2.996,2.887,2.8395,2.9015,2.7926,2.7231,2.7231,2.7231,2.7231,2.7231,2.7231,2.7231,2.7231,2.7231,2.7231,2.7231,2.7242,2.7254,2.7254,2.7265,2.7277,2.7277,2.7277,2.7541,2.8,2.8,2.8264,2.87,2.87,2.8425,2.787,2.6523,2.6229,2.6528,2.6528,2.6787,2.7138,0.0,0.0,0.0,0.0,0.0,0.0,0.0,0.0,0.0,0.0,3.3491,3.3055,3.2578,3.2453,3.2398,3.2398,3.2398,3.2982,3.4383,0.0,0.0,0.0,3.6984,0.0,3.6492,3.6492,3.6492,3.6492,3.6492,3.6492,3.6492,3.6492,3.6492,3.6492,3.6492,3.6492,3.6492,3.6492,3.6492,3.6492,3.6492,3.6492,3.6492,0.0,0.0,0.0,0.0,0.0,0.0,0.0,0.0,0.0,0.0,0.0,0.0,0.0,0.0,0.0,0.0,0.0,0.0,0.0,0.0,0.0,0.0,0.0,0.0,0.0,0.0,0.0,0.0,0.0,0.0,0.0,0.0,3.0596,3.0037,2.9639,2.9172,2.8712,2.8407,2.8087,2.7777,2.7383,2.7383,2.7857,2.7464,2.7383,2.7938,2.7464,2.7231,2.7231,2.7231,2.7231,2.7231,2.7598,2.7782,2.7782,2.8126,2.8299,2.8299,2.8299,2.8367,2.8505,2.8505,2.8574,2.87,2.87,2.862,2.8448,2.7713,2.7209,2.6974,2.6974,2.7056,2.7149,0.0,0.0,0.0,0.0,0.0,0.0,0.0,0.0,0.0,0.0,3.33,3.3002,3.2437,3.2398,3.2398,3.2398,3.277,3.3516,3.4616,0.0,0.0,0.0,3.6923,3.6693,3.6492,3.6492,3.6492,3.6492,3.6492,3.6492,3.6492,3.6492,3.6492,3.6492,3.6492,3.6492,3.6492,3.6492,3.6492,3.6492,3.6492,3.6492,3.6492,3.6492,3.6492,3.6492,3.6492,3.6492,3.6492,3.6492,0.0,0.0,0.0,0.0,0.0,0.0,0.0,0.0,0.0,0.0,0.0,0.0,0.0,0.0,0.0,0.0,0.0,0.0,0.0,0.0,0.0,0.0,0.0,0.0,3.1123,3.0823,3.0508,3.0114,2.9639,2.9028,2.8712,2.8554,2.8407,2.7938,2.7788,2.8179,2.7857,2.7708,2.7788,2.7383,2.7323,2.7541,2.7552,2.7644,2.7851,2.8138,2.8287,2.8287,2.8563,2.87,2.87,2.87,2.8827,0.0,2.9033,2.9148,2.9332,2.9332,2.9217,0.0,0.0,0.0,0.0,0.0,2.7851,2.7851,0.0,0.0,0.0,0.0,0.0,0.0,0.0,0.0,0.0,0.0,0.0,3.3039,3.2437,3.2398,3.2398,3.2398,3.3293,3.4207,0.0,0.0,3.686,3.7015,3.6693,3.6492,3.6492,3.6492,3.6492,3.6492,3.6492,3.6492,3.6492,3.6492,3.6492,3.6492,3.6492,3.6492,3.6492,3.6492,3.6492,3.6492,3.6492,3.6492,3.6492,3.6492,3.6492,3.6492,3.6492,3.6492,3.6492,3.6492,0.0,0.0,0.0,0.0,0.0,0.0,0.0,0.0,0.0,0.0,0.0,0.0,0.0,0.0,0.0,0.0,0.0,0.0,0.0,0.0,0.0,0.0,0.0,0.0,3.1061,3.0986,3.0986,3.0986,3.0748,2.996,2.9484,2.9328,2.9729,2.887,2.8327,2.8327,2.8259,2.7938,2.7301,0.0,0.0,0.0,0.0,2.8264,2.8689,2.8758,2.8792,2.8792,2.8838,2.8873,2.8873,2.8873,2.9125,2.9573,2.9573,2.9825,3.0216,3.0216,2.9963,2.9515,2.893,2.87,2.87,2.87,2.87,0.0,0.0,0.0,0.0,0.0,0.0,0.0,0.0,0.0,0.0,3.2757,3.3367,3.3475,3.2492,3.2398,3.2398,3.2398,3.3069,3.411,0.0,3.5763,3.6181,3.6984,3.6693,3.6492,3.6492,3.6492,3.6492,3.6492,3.6492,3.6492,3.6492,3.6492,3.6492,3.6492,3.6492,3.6492,3.6492,3.6492,3.6492,3.6492,3.6492,3.6492,3.6492,3.6492,3.6492,3.6492,3.6492,3.6492,3.6492,3.6492,3.6492,3.6492,3.6492,0.0,0.0,0.0,0.0,0.0,0.0,0.0,0.0,0.0,0.0,0.0,0.0,0.0,0.0,0.0,0.0,0.0,0.0,0.0,0.0,3.1556,3.1198,3.0986,3.0986,3.0986,3.0583,2.9406,2.9639,2.9496,2.8645,2.8779,2.8937,2.8937,2.8486,2.8179,2.8018,2.794,0.0,2.7977,2.8356,2.8609,2.87,2.9125,2.9343,2.9343,0.0,0.0,2.9917,2.9917,2.9975,3.0078,3.0078,3.0135,3.0216,3.0216,3.0158,2.9986,2.9056,2.87,2.87,2.87,2.87,2.87,0.0,0.0,0.0,0.0,0.0,0.0,0.0,0.0,0.0,0.0,3.2999,3.323,3.2461,3.2641,3.2695,3.2437,3.3197,0.0,3.5346,3.5574,3.5856,3.6228,3.6446,3.6492,3.6492,3.6492,3.6492,3.6492,3.6492,3.6492,3.6492,3.6492,3.6492,3.6492,3.6492,3.6492,3.6492,3.6492,3.6492,3.6492,3.6492,3.6492,3.6492,3.6492,3.6492,3.6492,3.6492,3.6492,3.6492,3.6492,3.6492,3.6492,3.6492,3.6492,3.6492,0.0,0.0,0.0,0.0,0.0,0.0,0.0,0.0,0.0,0.0,0.0,0.0,0.0,0.0,3.3478,0.0,0.0,3.1823,3.1421,3.1123,3.0986,3.0986,3.0986,3.0748,3.0114,3.0037,2.9883,2.9664,2.9574,2.9561,2.9561,2.9206,2.8883,2.8548,2.8393,2.8459,2.8735,2.8976,2.9217,2.9458,2.9722,2.986,2.986,3.0101,3.0216,3.0216,3.0216,3.0216,3.0216,3.0216,3.0216,3.0216,3.0216,3.0216,3.017,2.9665,2.9458,2.9458,2.9458,2.9458,2.9458,0.0,0.0,0.0,0.0,0.0,0.0,0.0,0.0,0.0,0.0,3.2639,3.2981,3.2538,3.3014,3.3208,0.0,0.0,3.3964,3.4789,3.5307,3.5561,3.5476,3.6122,3.6492,3.6492,3.6492,3.6492,3.6492,3.6492,3.6492,3.6492,3.6492,3.6492,3.6492,3.6492,3.6492,3.6492,3.6492,3.6492,3.6492,3.6492,3.6492,3.6492,3.6492,3.6492,3.6492,3.6492,3.6492,3.6492,3.6492,3.6492,3.6492,3.6492,3.6492,3.6492,3.6492,3.6492,0.0,0.0,0.0,0.0,0.0,0.0,0.0,0.0,0.0,3.4795,3.4461,3.3506,3.272,3.2662,3.2042,3.1421,3.1061,3.0986,3.0986,3.0986,3.0986,3.0986,3.0986,3.0508,3.0355,3.0748,3.0432,3.0164,3.0189,2.999,2.9642,2.9071,2.8916,2.9056,2.9481,2.9596,2.9825,3.0216,3.0216,3.0216,3.0216,3.0216,3.0216,3.0216,3.0216,3.0216,3.0216,3.0216,3.0216,3.0216,3.0216,3.0216,3.0216,3.0216,3.0216,3.0216,3.0216,3.0216,3.0216,0.0,0.0,0.0,0.0,0.0,0.0,0.0,0.0,0.0,0.0,0.0,0.0,0.0,0.0,0.0,0.0,3.3115,3.3116,3.4442,3.4596,3.4919,3.546,3.6122,3.6492,3.6492,3.6492,3.6492,3.6492,3.6492,3.6492,3.6492,3.6492,3.6492,3.6492,3.6492,3.6492,3.6492,3.6492,3.6492,3.6492,3.6492,3.6492,3.6492,3.6492,3.6492,3.6492,3.6492,3.6492,3.6492,3.6492,3.6492,3.6492,3.6492,3.6492,3.6492,3.6492,0.0,3.6492,3.6492,3.6085,3.5623,3.5088,3.5008,3.4677,0.0,0.0,3.3865,3.2676,3.2259,3.2128,3.1763,3.1334,3.1061,3.0986,3.0986,3.0986,3.0986,3.0986,3.0986,3.0986,3.0898,3.0672,3.019,3.0583,3.0879,3.0813,3.0214,2.9813,2.9702,2.9561,2.9435,2.9504,2.9917,3.0158,3.0216,3.0216,3.0216,3.0216,3.0216,3.0216,3.0216,3.0216,3.0216,3.0216,3.0216,3.0216,3.0216,3.0216,3.0216,3.0216,3.0216,3.0216,3.0216,3.0216,3.0216,3.0216,0.0,0.0,0.0,0.0,0.0,0.0,0.0,0.0,0.0,0.0,0.0,0.0,0.0,0.0,0.0,0.0,3.3159,3.2998,3.3285,3.3629,3.3967,3.426,3.5322,3.5907,3.5907,3.6292,3.6492,3.6492,3.6492,3.6492,3.6492,3.6492,3.6492,3.6492,3.6492,3.6492,3.6492,3.6492,3.6492,3.6492,3.6492,3.6492,3.6492,3.6492,3.6492,3.6492,3.6492,3.6492,0.0,0.0,3.6492,3.6492,3.6492,3.6492,3.6492,3.6492,3.6492,0.0,3.5752,3.5415,3.5088,0.0,3.4409,3.4274,3.3659,3.3659,3.3589,3.2931,3.2286,3.185,3.1909,3.1556,3.1272,0.0,3.1198,3.1272,3.1061,3.0986,3.0986,3.0986,3.1274,3.133,3.1074,3.0933,3.1008,3.1331,3.0679,3.0193,3.0153,2.9985,2.9917,2.9917,3.0112,3.0216,3.0216,3.0216,3.0216,3.0216,3.0216,3.0216,3.0216,3.0216,3.0216,3.0216,3.0216,3.0216,3.0216,3.0216,3.0216,3.0216,3.0216,3.0216,3.0216,3.0216,3.0216,3.0216,0.0,0.0,0.0,0.0,0.0,0.0,0.0,0.0,0.0,0.0,0.0,0.0,0.0,0.0,0.0,3.3313,3.3383,3.3198,3.2641,3.3222,3.3553,3.3398,3.4568,3.5291,3.5476,3.5968,3.6307,3.6492,3.6492,3.6492,3.6492,3.6492,3.6492,3.6492,3.6492,3.6492,3.6492,3.6492,3.6492,3.6492,3.6492,3.6492,3.6492,3.6492,3.6492,3.6492,3.6492,3.6492,0.0,0.0,3.6492,3.6492,3.6492,3.6492,3.6492,3.6492,3.6492,3.6289,3.535,0.0,0.0,3.4206,3.4016,3.3894,3.3894,3.3673,3.3409,3.3312,3.2588,3.1982,3.22,3.1982,3.1629,3.1347,3.1556,3.1629,3.1198,3.1198,3.1123,3.0986,3.1483,3.1901,3.2058,3.1589,3.1503,3.1914,3.1137,3.073,3.0624,3.0368,3.0216,3.0216,3.0216,3.0216,3.0216,3.0216,3.0216,3.0216,3.0216,3.0216,3.0216,3.0216,3.0216,3.0216,3.0216,3.0216,3.0216,3.0216,3.0216,3.0216,3.0216,3.0216,3.0216,3.0216,3.0216,3.0216,0.0,0.0,0.0,0.0,0.0,0.0,0.0,0.0,0.0,0.0,0.0,0.0,0.0,0.0,0.0,0.0,3.386,3.3767,3.3198,3.3792,3.3968,3.3398,3.4106,3.4814,3.5476,3.5507,3.583,3.6492,3.6492,3.6492,3.6492,3.6492,3.6492,3.6492,3.6492,3.6492,3.6492,3.6492,3.6492,3.6492,3.6492,3.6492,3.6492,3.6492,3.6492,3.6492,3.6492,0.0,0.0,0.0,3.6492,3.6492,3.6492,3.6492,0.0,3.6492,3.6492,0.0,0.0,0.0,3.4743,3.4206,3.3701,3.3312,3.3312,3.3312,3.3312,3.3326,3.2931,3.2704,3.2704,3.2345,3.2055,3.2055,3.2055,3.1982,3.1629,3.1556,3.1408,3.1061,3.1483,3.2058,0.0,3.2659,3.2574,3.246,3.1866,3.143,3.1258,3.0566,3.0216,3.0216,3.0216,3.0216,3.0216,3.0216,3.0216,3.0216,3.0216,3.0216,3.0216,3.0216,3.0216,3.0216,3.0216,3.0216,3.0216,3.0216,3.0216,3.0216,3.0216,3.0216,3.0216,3.0216,3.0216,3.0216,0.0,0.0,0.0,0.0,0.0,0.0,0.0,0.0,0.0,0.0,0.0,0.0,0.0,0.0,0.0,0.0,0.0,0.0,3.3855,3.3666,3.3439,3.3294,3.3609,3.3875,3.4091,3.4568,3.5137,3.583,3.583,3.6045,3.6492,3.6492,3.6492,3.6492,3.6492,3.6492,3.6492,3.6492,3.6492,3.6492,3.6492,3.6492,3.6492,3.6492,3.6492,3.6492,0.0,0.0,0.0,0.0,0.0,0.0,3.6492,0.0,0.0,3.6492,0.0,0.0,0.0,0.0,3.4221,3.3701,3.3437,3.3326,3.3326,3.3326,3.3326,3.3326,3.3016,3.2704,3.2704,3.2561,3.2417,3.2128,3.2345,3.2273,3.1703,3.1629,3.1554,3.1509,3.2058,0.0,0.0,0.0,0.0,3.2338,3.1721,3.1116,3.0566,3.0306,3.0216,3.0216,3.0216,3.0216,3.0216,3.0216,3.0216,3.0216,3.0216,3.0216,3.0216,3.0216,3.0216,3.0216,3.0216,3.0216,3.0216,3.0216,3.0216,3.0216,3.0216,3.0216,3.0216,3.0216,3.0216,3.0216,0.0,0.0,0.0,0.0,0.0,0.0,0.0,0.0,0.0,0.0,0.0,0.0,0.0,0.0,0.0,0.0,0.0,0.0,3.4004,3.3615,3.3427,3.3495,3.3587,3.3623,3.3706,3.4172,3.4647,3.5122,3.5122,3.5337,3.5768,3.6014,3.6122,3.6138,3.6384,3.6492,3.6492,3.6492,3.6353,3.6153,3.6384,3.6353,3.6153,3.6399,3.6492,0.0,0.0,0.0,0.0,0.0,0.0,0.0,0.0,0.0,0.0,0.0,0.0,0.0,0.0,3.4476,3.3948,3.3437,3.3326,3.3326,3.3326,3.3326,3.3326,3.3326,3.3086,3.2931,3.2931,3.2931,3.286,3.2574,3.2717,3.2717,3.2055,3.1836,3.1843,3.1988,3.2424,3.2934,0.0,0.0,0.0,3.2364,3.1889,3.1193,3.0216,3.0216,3.0216,3.0216,3.0216,3.0216,3.0216,3.0216,3.0308,3.0503,3.0503,3.0595,3.0767,3.0767,3.0767,3.0767,3.0767,3.0767,3.0767,3.0767,3.0767,3.0767,3.0767,3.0767,3.0744,3.0572,3.0503,3.048,0.0,0.0,0.0,0.0,0.0,0.0,0.0,0.0,0.0,0.0,0.0,0.0,0.0,0.0,0.0,0.0,0.0,0.0,3.3653,3.369,3.3787,3.4005,3.4003,3.4037,3.4162,3.4178,3.4281,3.4472,3.4472,3.4503,3.4534,3.5182,3.543,3.546,3.6107,3.6384,3.6384,3.6384,3.6014,3.5476,3.6122,3.5999,3.5507,3.6138,0.0,0.0,0.0,0.0,0.0,0.0,0.0,0.0,0.0,0.0,0.0,0.0,0.0,3.5479,3.5008,3.4476,3.3948,3.3452,3.3326,3.3326,3.3326,3.3326,3.3326,3.3326,3.3326,3.3326,0.0,0.0,3.3326,3.3326,3.3326,3.3157,3.2704,3.2345,3.2139,0.0,0.0,0.0,0.0,0.0,0.0,3.2389,0.0,3.1701,3.0306,3.0216,3.0216,3.0216,3.0216,3.0216,3.0216,3.025,3.0526,3.1054,3.1054,3.1306,3.1766,3.1743,3.1743,3.1766,3.1766,3.1766,3.1766,3.1766,3.1766,3.1766,3.1766,3.1766,3.1708,3.1237,3.1054,3.0985,0.0,0.0,0.0,0.0,0.0,0.0,0.0,0.0,0.0,0.0,0.0,0.0,0.0,0.0,0.0,0.0,0.0,0.0,3.3634,3.3695,3.3697,3.3754,3.3942,3.3848,3.3451,3.3451,3.3691,3.4305,3.3888,3.4167,3.5122,3.4864,3.4722,3.4737,3.4906,3.4983,3.4983,3.4983,3.4891,3.4752,0.0,3.4891,3.4752,0.0,0.0,0.0,0.0,0.0,0.0,0.0,0.0,0.0,0.0,3.5879,3.5879,0.0,0.0,3.4543,3.481,3.4235,3.3452,3.3312,3.3326,3.3326,3.3326,3.3326,3.3326,3.3326,3.3326,3.3326,0.0,0.0,0.0,3.3326,3.3326,0.0,3.2345,3.2128,0.0,3.258,0.0,3.3091,3.4097,3.4319,0.0,0.0,3.2302,3.1701,3.0306,3.0216,3.0216,3.0216,3.0216,3.0216,3.0216,3.0606,3.1065,3.1582,3.1582,3.1639,3.1766,3.1766,3.1766,3.1766,3.1766,3.1766,3.1766,3.1766,3.1766,3.1766,3.1766,3.1766,3.1754,3.1628,3.1582,3.1559,0.0,0.0,0.0,0.0,0.0,0.0,0.0,0.0,0.0,0.0,0.0,0.0,0.0,0.0,0.0,0.0,0.0,0.0,0.0,3.3102,3.3238,3.3573,3.3703,3.3629,3.3419,3.3435,3.3377,3.334,3.3333,3.3427,3.3591,3.3877,3.3998,3.4014,3.4337,3.4475,3.4475,3.4475,0.0,0.0,0.0,0.0,0.0,0.0,0.0,0.0,0.0,0.0,0.0,0.0,0.0,3.6163,3.6085,3.5894,3.5688,3.5688,0.0,3.4476,3.4543,3.3962,3.3326,3.3326,3.3326,3.3382,3.3577,3.3632,3.3632,3.3632,3.3632,0.0,3.3312,0.0,0.0,0.0,0.0,0.0,3.2731,3.2359,3.2428,0.0,3.3001,0.0,3.4541,3.4481,3.3784,0.0,3.2302,3.1701,3.0306,3.0216,3.0216,3.0216,3.0216,3.0331,3.056,3.1088,3.1593,3.2087,3.2087,3.2202,3.2431,3.2431,3.2431,3.2431,0.0,3.2431,3.2431,3.2431,3.2431,3.2431,3.2431,3.2431,3.2408,3.2167,3.2087,3.2053,0.0,0.0,0.0,0.0,0.0,0.0,0.0,0.0,0.0,0.0,0.0,0.0,0.0,0.0,0.0,0.0,0.0,0.0,0.0,0.0,0.0,3.3237,3.3355,3.3463,3.3557,0.0,0.0,0.0,0.0,0.0,3.1643,3.2777,3.3275,3.329,3.3921,3.4198,0.0,0.0,0.0,0.0,0.0,0.0,0.0,0.0,0.0,0.0,0.0,0.0,0.0,0.0,3.615,3.5879,3.6226,3.5958,3.5608,3.5608,3.5154,3.4624,3.4274,3.377,3.3326,3.3326,3.3326,3.3452,3.3894,3.4016,3.4016,3.4016,0.0,3.3825,3.3382,3.3326,3.3326,3.3326,0.0,3.3255,3.3241,3.2574,3.2649,3.4252,3.3301,3.3223,3.4966,3.4481,3.3615,3.2575,3.2314,3.1613,3.0306,3.0216,3.0216,3.0216,3.0285,3.0583,3.1111,3.1616,3.211,3.2592,3.2592,3.2833,3.3281,3.3281,3.3281,3.3281,0.0,0.0,3.3281,3.3281,3.3281,3.3281,3.3281,3.3281,3.3224,3.2764,3.2592,3.2535,0.0,0.0,0.0,0.0,0.0,0.0,0.0,0.0,0.0,0.0,3.1614,3.1517,0.0,0.0,0.0,0.0,0.0,0.0,0.0,0.0,0.0,0.0,3.3168,3.333,0.0,0.0,0.0,0.0,0.0,0.0,3.2867,3.2664,3.2567,3.2567,3.2705,0.0,0.0,0.0,0.0,0.0,0.0,0.0,0.0,0.0,0.0,0.0,0.0,0.0,0.0,0.0,3.5968,3.6226,3.5415,3.5073,3.5008,3.5008,3.4356,3.377,3.4558,3.4031,3.3326,3.3326,3.3326,3.3312,3.3452,3.3452,0.0,0.0,3.3452,3.3382,3.3326,3.3326,3.3326,3.3326,3.3326,0.0,0.0,0.0,3.2576,0.0,0.0,0.0,0.0,0.0,0.0,0.0,0.0,3.1116,3.0216,3.0216,3.0216,3.0216,3.0641,3.1123,3.1628,3.2121,3.2627,3.3143,3.3143,3.3201,3.3281,3.3281,3.3281,3.3281,0.0,0.0,3.3281,3.3281,3.3281,3.3281,3.3281,3.3281,3.3269,3.3178,3.3143,3.3132,0.0,0.0,0.0,0.0,0.0,0.0,0.0,3.1709,3.1617,3.1709,3.1596,3.1559,3.1559,3.15,3.15,0.0,0.0,0.0,0.0,0.0,0.0,0.0,0.0,0.0,0.0,0.0,0.0,0.0,0.0,0.0,0.0,0.0,0.0,0.0,0.0,0.0,0.0,0.0,0.0,0.0,0.0,0.0,0.0,0.0,0.0,0.0,0.0,0.0,0.0,0.0,3.5738,3.6022,3.5479,3.4942,3.4476,3.4476,3.4085,3.377,3.4031,3.3716,3.3326,3.3326,3.3326,3.3382,3.3632,0.0,0.0,0.0,3.3701,3.3632,3.3312,3.3326,0.0,3.3326,3.3326,3.3241,0.0,0.0,0.0,0.0,0.0,0.0,0.0,0.0,0.0,0.0,0.0,3.1128,3.0758,3.0397,3.0216,3.0216,3.0973,3.1502,3.1766,3.2523,3.3028,3.3281,3.3281,3.3281,3.3281,3.3281,3.3281,3.3281,3.3281,0.0,3.3281,3.3281,3.3281,3.3281,3.3281,3.3281,3.3281,3.3281,3.3281,3.3281,0.0,0.0,0.0,0.0,0.0,0.0,0.0,3.1709,3.1617,3.1617,3.1617,3.1617,3.1617,3.1614,3.1538,0.0,0.0,0.0,0.0,0.0,0.0,0.0,0.0,0.0,0.0,0.0,0.0,0.0,0.0,0.0,0.0,0.0,0.0,0.0,0.0,0.0,0.0,0.0,0.0,0.0,0.0,0.0,0.0,0.0,0.0,0.0,0.0,0.0,0.0,0.0,3.5385,3.5492,3.5642,3.4942,3.4153,3.4341,3.4221,3.3894,3.3701,3.3577,3.3437,3.3312,3.3382,3.3577,3.3894,3.3948,0.0,0.0,3.3948,3.3825,3.3382,0.0,3.3326,0.0,3.3326,3.3326,3.3326,3.2931,0.0,0.0,0.0,0.0,0.0,0.0,0.0,0.0,0.0,0.0,3.1038,3.0487,3.0216,3.0216,3.1203,3.1743,3.1766,3.2776,3.3281,3.3281,3.3281,3.3281,3.3281,3.3281,3.3281,3.3281,3.3281,0.0,0.0,3.3281,3.3281,3.3281,3.3281,3.3281,3.3281,3.3281,3.3281,3.3281,0.0,0.0,0.0,0.0,0.0,0.0,0.0,3.18,3.18,3.18,3.18,3.18,3.18,3.18,3.1763,0.0,0.0,0.0,0.0,0.0,0.0,0.0,0.0,0.0,0.0,0.0,0.0,0.0,0.0,0.0,0.0,0.0,0.0,0.0,0.0,0.0,0.0,0.0,0.0,0.0,0.0,0.0,0.0,0.0,0.0,0.0,0.0,0.0,0.0,0.0,0.0,3.4889,3.5492,3.4942,3.4274,3.5285,0.0,0.0,3.4491,3.4409,3.3894,3.3452,3.3701,3.3894,3.3437,0.0,0.0,3.3382,3.3382,3.3382,3.3326,0.0,0.0,0.0,0.0,3.3326,3.3326,3.2931,3.3304,0.0,0.0,0.0,0.0,0.0,0.0,0.0,0.0,0.0,3.0306,3.0216,3.0216,3.0216,3.1203,3.1743,3.1766,3.2776,3.3281,3.3281,3.3281,3.3281,3.3281,3.3281,3.3281,3.3281,0.0,0.0,0.0,3.3281,3.3281,3.3281,3.3281,3.3281,3.3281,3.3281,3.3281,3.3281,0.0,0.0,0.0,0.0,0.0,0.0,3.18,3.18,3.18,3.18,3.18,3.18,3.18,3.18,3.18,3.18,0.0,0.0,0.0,0.0,0.0,0.0,0.0,0.0,0.0,0.0,0.0,0.0,0.0,0.0,0.0,0.0,0.0,0.0,0.0,0.0,0.0,0.0,0.0,0.0,0.0,0.0,0.0,0.0,0.0,0.0,0.0,0.0,0.0,0.0,0.0,0.0,3.5399,3.51,0.0,0.0,3.4288,3.3825,3.3908,3.377,3.3577,3.3382,3.3437,3.3632,3.377,0.0,3.3756,3.3756,3.3756,3.3701,3.3382,3.3326,0.0,0.0,0.0,0.0,3.3326,3.3157,3.3407,0.0,0.0,0.0,0.0,0.0,0.0,0.0,0.0,0.0,3.0937,3.0487,3.0216,3.0216,3.1203,3.1731,3.1743,3.2776,3.3281,3.3281,3.3281,3.3281,3.3281,3.3281,3.3281,3.3281,0.0,0.0,0.0,3.3281,3.3281,3.3281,3.3281,3.3281,3.3281,3.3281,3.3281,3.3281,0.0,0.0,0.0,0.0,0.0,3.18,3.18,3.18,3.18,3.18,3.18,3.18,3.18,3.18,3.18,3.18,3.1709,0.0,0.0,0.0,0.0,0.0,0.0,0.0,0.0,0.0,0.0,0.0,0.0,0.0,0.0,0.0,0.0,0.0,0.0,0.0,0.0,0.0,0.0,0.0,0.0,0.0,0.0,0.0,0.0,0.0,0.0,0.0,0.0,0.0,0.0,0.0,0.0,0.0,0.0,0.0,3.4476,3.4085,3.3839,3.377,3.3716,3.3382,3.3521,3.3839,0.0,0.0,3.3894,3.4085,3.3948,3.377,3.3382,3.3326,3.3326,3.3326,0.0,3.3326,3.3326,3.3326,3.3621,0.0,0.0,0.0,0.0,0.0,0.0,0.0,0.0,0.0,0.0,3.0937,3.0397,3.0216,3.1215,3.1743,3.1743,3.2764,3.3281,3.3281,3.3281,3.3281,3.3281,3.3281,3.3281,3.3281,0.0,0.0,0.0,3.3281,3.3281,3.3281,3.3281,3.3281,3.3281,3.3281,3.3281,3.3281,0.0,0.0,0.0,0.0,0.0,0.0,3.18,3.18,3.18,3.18,3.18,3.18,3.18,3.18,3.18,3.18,3.18,0.0,0.0,0.0,0.0,0.0,0.0,0.0,0.0,0.0,3.1579,3.1579,3.1044,0.0,0.0,0.0,0.0,0.0,0.0,0.0,0.0,0.0,0.0,0.0,0.0,0.0,0.0,0.0,0.0,0.0,0.0,0.0,0.0,0.0,0.0,0.0,0.0,0.0,0.0,0.0,3.535,3.4206,3.4743,3.4876,3.4624,3.3591,3.4099,3.4743,0.0,0.0,3.3437,3.4016,3.3701,3.3326,3.3326,3.3326,3.3326,3.3326,3.3326,0.0,3.3326,3.3326,0.0,0.0,0.0,0.0,0.0,0.0,0.0,0.0,0.0,0.0,0.0,3.1637,3.0937,3.0216,3.1226,3.1766,3.1766,3.2776,3.3281,3.3281,3.3281,3.3281,3.3281,3.3281,3.3281,0.0,0.0,0.0,0.0,3.3281,3.3281,3.3281,3.3281,3.3281,3.3281,3.3281,3.3281,3.317,0.0,0.0,0.0,0.0,0.0,0.0,0.0,3.18,3.18,3.18,3.18,3.18,3.18,3.18,3.18,3.18,3.18,0.0,0.0,0.0,0.0,0.0,0.0,0.0,0.0,0.0,3.1128,3.1128,3.0954,3.0771,3.0601,3.0444,0.0,0.0,0.0,0.0,0.0,0.0,0.0,0.0,0.0,0.0,0.0,0.0,0.0,0.0,0.0,0.0,0.0,0.0,0.0,0.0,0.0,0.0,0.0,3.6353,3.5894,0.0,3.4942,3.4876,3.4824,3.4491,3.4624,3.4876,3.4677,3.4824,3.4758,3.4221,3.4288,3.4167,3.3452,3.3326,3.3326,3.3326,3.3326,0.0,0.0,0.0,0.0,0.0,0.0,0.0,0.0,0.0,0.0,0.0,0.0,0.0,0.0,3.2871,3.2176,3.1026,3.1171,3.1421,3.1766,3.2408,3.2925,3.3281,3.3281,3.3281,3.3281,3.3281,0.0,0.0,0.0,0.0,0.0,3.3281,3.3281,3.3281,3.3281,3.3281,3.3281,3.3281,3.3281,3.3281,0.0,0.0,0.0,0.0,0.0,0.0,0.0,3.18,3.18,3.18,3.18,3.18,3.18,3.18,3.18,3.18,3.18,0.0,0.0,0.0,0.0,0.0,0.0,0.0,3.18,3.1432,3.1261,3.1261,3.0993,3.0834,3.0649,3.0666,3.0601,3.0335,0.0,0.0,0.0,0.0,0.0,0.0,0.0,0.0,3.2398,0.0,0.0,0.0,0.0,0.0,0.0,0.0,0.0,0.0,0.0,0.0,0.0,0.0,3.6289,3.5879,0.0,3.5219,3.5154,3.4942,3.5073,0.0,0.0,3.5154,3.5008,3.4743,3.4491,3.4167,3.3701,3.3452,3.3326,3.3326,3.3326,3.3326,0.0,0.0,0.0,0.0,0.0,0.0,0.0,0.0,0.0,0.0,0.0,0.0,0.0,3.3288,3.2599,3.1725,3.1442,3.1426,3.1479,3.2144,3.265,3.2982,3.3189,3.3281,3.3281,3.3281,0.0,0.0,0.0,0.0,0.0,3.3281,3.3281,3.3281,3.3281,3.3281,3.3281,3.3281,3.3281,3.3281,0.0,0.0,0.0,0.0,0.0,0.0,0.0,3.18,3.18,3.18,3.18,3.18,3.18,3.18,3.18,3.18,0.0,0.0,0.0,0.0,0.0,0.0,0.0,0.0,3.18,3.18,3.18,3.18,3.1261,3.0937,3.0954,3.0707,3.0559,3.0559,3.0675,3.139,3.2578,0.0,0.0,0.0,0.0,0.0,0.0,0.0,0.0,0.0,0.0,0.0,0.0,0.0,0.0,0.0,0.0,0.0,0.0,0.0,0.0,0.0,0.0,3.5752,3.5623,3.5154,0.0,0.0,0.0,0.0,0.0,3.5415,3.4438,3.3507,3.3948,3.3632,3.3326,3.3326,3.3326,0.0,0.0,0.0,0.0,0.0,0.0,0.0,0.0,0.0,0.0,0.0,0.0,0.0,0.0,3.3177,3.2389,3.2302,3.2094,3.1666,3.1019,3.1926,3.2397,3.2443,3.2971,3.3224,3.3224,3.3269,0.0,0.0,0.0,0.0,0.0,3.3281,3.3281,3.3281,3.3281,3.3281,3.3281,3.3281,3.3281,3.317,0.0,0.0,0.0,0.0,0.0,0.0,0.0,0.0,0.0,0.0,3.18,3.18,3.18,3.18,3.18,0.0,0.0,0.0,0.0,0.0,0.0,0.0,0.0,0.0,3.18,3.18,3.18,3.18,3.1671,3.1579,3.1562,3.1411,3.1218,3.1015,3.0975,3.1347,3.2152,3.3792,0.0,0.0,0.0,0.0,0.0,0.0,0.0,0.0,3.2398,3.2398,0.0,0.0,0.0,0.0,0.0,0.0,0.0,0.0,3.6091,3.6492,3.6352,0.0,3.6289,3.6163,3.6226,3.6211,0.0,0.0,0.0,0.0,0.0,3.4303,3.3646,3.3382,3.3326,3.3326,3.3326,3.3326,0.0,0.0,0.0,0.0,0.0,0.0,0.0,0.0,0.0,0.0,0.0,0.0,0.0,3.405,3.3433,3.2302,3.225,3.183,3.1008,3.1237,3.1559,3.1938,3.2443,3.2673,3.2684,3.3097,0.0,0.0,0.0,0.0,3.3281,3.3281,3.3281,3.3281,3.3281,3.3281,3.3281,3.3281,3.3281,3.3281,0.0,0.0,0.0,0.0,0.0,0.0,0.0,0.0,0.0,0.0,0.0,3.18,3.18,3.18,0.0,0.0,0.0,0.0,0.0,0.0,0.0,0.0,0.0,3.18,3.18,3.18,3.18,3.18,3.18,3.18,3.18,3.1709,3.1596,3.1496,3.1827,3.2004,3.2169,3.3713,3.4036,3.3503,3.3261,0.0,0.0,0.0,0.0,0.0,3.2398,3.2398,0.0,3.2398,3.2398,3.2505,0.0,0.0,0.0,0.0,3.5953,3.6492,3.6492,3.6492,3.6492,3.6492,3.6492,3.6429,3.6148,0.0,0.0,0.0,0.0,3.4356,3.3756,3.3452,3.3326,3.3326,3.3326,0.0,0.0,0.0,0.0,0.0,0.0,0.0,0.0,0.0,0.0,0.0,0.0,0.0,0.0,3.4147,3.3543,3.2846,3.2488,3.1757,3.0641,3.0893,3.1157,3.1433,3.1915,3.2156,3.2179,3.2684,3.2914,0.0,0.0,0.0,3.3281,3.3281,3.3281,3.3281,3.3281,3.3281,3.3281,3.3281,3.3281,3.3281,0.0,0.0,0.0,0.0,0.0,0.0,0.0,0.0,0.0,0.0,0.0,0.0,0.0,0.0,0.0,0.0,0.0,0.0,0.0,0.0,0.0,0.0,3.1746,3.18,3.18,3.18,3.18,3.18,3.18,3.18,3.18,3.18,3.18,3.1815,3.2679,3.2807,3.2446,3.3535,3.3815,3.345,3.315,0.0,0.0,0.0,0.0,0.0,0.0,0.0,0.0,3.2398,3.2398,3.249,3.3131,0.0,0.0,0.0,0.0,0.0,3.6492,3.6492,3.6492,3.6492,3.6492,3.6492,3.6492,0.0,0.0,0.0,0.0,0.0,0.0,3.3646,0.0,0.0,0.0,0.0,0.0,0.0,0.0,0.0,0.0,0.0,0.0,0.0,0.0,0.0,0.0,0.0,0.0,3.3894,3.3484,3.3398,3.276,3.1877,3.0566,3.0847,3.0986,3.0893,3.141,3.1651,3.1662,3.2156,3.2374,0.0,0.0,0.0,3.3051,3.3132,3.3166,3.3166,3.3258,3.3281,3.3281,3.3281,3.3281,3.3281,0.0,0.0,0.0,0.0,0.0,0.0,0.0,0.0,0.0,0.0,0.0,0.0,0.0,0.0,0.0,0.0,0.0,0.0,0.0,0.0,0.0,3.1389,3.1634,3.18,3.18,3.18,3.18,3.18,3.18,3.18,3.18,3.18,3.1746,3.1685,3.2596,3.2911,3.2807,3.4359,3.4706,3.43,0.0,0.0,0.0,0.0,0.0,0.0,0.0,0.0,0.0,3.2398,3.2398,3.2468,3.2827,0.0,0.0,0.0,0.0,0.0,3.6492,3.6492,3.6492,3.6492,3.6492,3.6492,3.6492,0.0,0.0,0.0,0.0,0.0,0.0,0.0,0.0,0.0,0.0,0.0,0.0,0.0,0.0,0.0,0.0,0.0,0.0,0.0,0.0,0.0,0.0,0.0,0.0,0.0,3.3979,3.3398,3.33,3.2859,3.1952,3.1455,3.0976,3.0342,3.0882,3.1123,3.1146,3.1651,3.188,0.0,0.0,3.1984,3.2007,3.2431,3.2604,3.265,3.3109,3.3281,3.3281,3.3281,3.3281,3.3281,0.0,0.0,0.0,0.0,0.0,0.0,0.0,0.0,0.0,0.0,0.0,0.0,0.0,0.0,0.0,0.0,0.0,0.0,0.0,0.0,3.1709,3.1596,3.1709,3.1726,3.1542,3.1709,3.18,3.18,3.18,3.18,3.18,3.18,3.1671,3.1496,3.2579,3.2981,3.2967,3.4173,3.4578,3.4349,0.0,0.0,0.0,0.0,0.0,0.0,0.0,0.0,0.0,0.0,3.2398,3.2514,3.3011,0.0,0.0,0.0,0.0,0.0,3.6492,3.6492,3.6429,3.6148,3.6085,3.6022,0.0,0.0,0.0,0.0,0.0,0.0,0.0,0.0,0.0,0.0,0.0,0.0,0.0,0.0,0.0,0.0,0.0,0.0,0.0,0.0,0.0,0.0,0.0,0.0,0.0,0.0,3.423,3.3979,3.3979,3.3445,3.2302,3.1977,3.146,3.0769,3.1015,3.0949,3.0606,3.1123,3.1364,3.1375,0.0,3.1766,3.1766,3.1995,3.2099,3.2121,3.2363,3.2627,3.2879,3.3178,3.3281,3.3181,0.0,0.0,0.0,0.0,0.0,0.0,0.0,0.0,0.0,0.0,0.0,0.0,0.0,0.0,0.0,0.0,0.0,0.0,0.0,3.18,3.1746,3.1671,3.1763,3.1671,3.1411,3.1671,3.18,3.18,3.18,3.18,3.18,3.18,3.1671,3.1479,3.2662,3.3169,3.3168,3.4126,3.4497,3.4349,0.0,0.0,0.0,0.0,0.0,0.0,0.0,0.0,0.0,0.0,0.0,0.0,0.0,0.0,0.0,3.5396,3.6014,3.6492,3.6492,3.6492,3.6352,3.5816,3.5816,0.0,0.0,0.0,0.0,0.0,0.0,0.0,0.0,0.0,0.0,0.0,0.0,0.0,0.0,0.0,0.0,0.0,0.0,0.0,0.0,0.0,0.0,0.0,0.0,0.0,0.0,0.0,3.4397,3.4397,3.4397,3.3869,3.2821,3.2821,3.2227,3.1038,3.1038,3.0758,3.0227,3.0641,3.0824,3.0847,3.1237,3.141,3.141,3.1536,3.1593,3.1605,3.172,3.1995,3.2363,3.2776,3.3005,3.2986,0.0,0.0,0.0,0.0,0.0,0.0,0.0,0.0,0.0,0.0,0.0,0.0,0.0,0.0,0.0,0.0,0.0,0.0,0.0,3.18,3.1671,3.1334,3.1634,3.18,3.1746,3.18,3.18,3.18,3.18,3.18,3.18,3.18,3.18,3.1815,3.294,3.3481,3.3541,3.4678,3.4961,3.4643,3.4349,0.0,0.0,0.0,0.0,0.0,0.0,0.0,0.0,0.0,0.0,0.0,0.0,0.0,3.4657,3.5618,3.6181,3.6492,3.6492,3.6492,3.6352,3.5816,3.6085,0.0,3.5154,3.4876,0.0,3.4274,0.0,0.0,0.0,0.0,0.0,0.0,0.0,0.0,0.0,0.0,0.0,0.0,0.0,0.0,0.0,0.0,0.0,0.0,0.0,0.0,0.0,0.0,0.0,3.4397,3.4397,3.4314,3.4217,3.4217,3.292,3.0306,3.0306,3.0216,3.0216,3.025,3.0273,3.0273,3.0308,3.0331,3.0365,3.0859,3.1065,3.1111,3.1582,3.1789,3.1823,3.1857,3.2156,3.2546,0.0,0.0,0.0,0.0,0.0,0.0,0.0,0.0,0.0,0.0,0.0,0.0,0.0,0.0,0.0,0.0,0.0,0.0,0.0,3.1295,3.1218,3.1295,3.1428,3.1596,3.18,3.18,3.18,3.18,3.18,3.18,3.18,3.18,3.2041,3.2524,3.3459,3.4117,3.4597,3.528,3.5498,3.5316,3.4833,3.4529,0.0,0.0,0.0,0.0,0.0,0.0,0.0,0.0,3.3498,3.3693,3.4131,3.4654,3.529,3.6029,3.6399,3.6492,3.6492,3.6289,3.5943,3.5752,3.5816,0.0,0.0,3.4409,3.4341,3.4138,0.0,0.0,0.0,0.0,0.0,0.0,0.0,0.0,0.0,0.0,0.0,0.0,0.0,0.0,0.0,0.0,0.0,0.0,0.0,0.0,0.0,0.0,0.0,3.4397,3.4397,3.423,3.381,3.381,3.2772,3.0847,3.127,3.1092,3.0216,3.0216,3.0216,3.0216,3.0216,3.0216,3.0227,3.0434,3.0514,3.0572,3.1088,3.1295,3.1341,3.1651,3.188,3.2041,0.0,0.0,0.0,0.0,0.0,0.0,0.0,0.0,0.0,0.0,0.0,0.0,0.0,0.0,0.0,0.0,0.0,0.0,3.1179,3.1044,3.1004,3.114,3.1257,3.1428,3.1634,3.1763,3.18,3.18,3.18,3.18,3.18,3.18,3.2179,3.2938,3.3731,3.449,3.5232,3.572,3.5915,3.5766,3.5283,3.5035,0.0,0.0,0.0,0.0,0.0,0.0,0.0,0.0,3.413,3.4344,3.4691,3.51,3.5614,3.6292,3.6352,3.6226,3.6226,3.5958,3.5688,0.0,0.0,0.0,3.4341,3.4206,3.4288,3.3894,0.0,0.0,0.0,0.0,0.0,0.0,0.0,0.0,0.0,0.0,0.0,0.0,0.0,0.0,0.0,0.0,0.0,0.0,0.0,0.0,0.0,0.0,0.0,0.0,3.4397,3.4147,3.3725,3.3738,3.3129,3.2001,3.2413,3.1789,3.0216,3.0216,3.0216,3.0216,3.0216,3.0216,3.0216,3.0216,3.0216,3.025,3.0618,3.0767,3.0801,3.1146,3.1387,3.1525,0.0,0.0,0.0,0.0,0.0,0.0,0.0,0.0,0.0,0.0,0.0,0.0,0.0,0.0,0.0,0.0,0.0,0.0,3.0828,3.1083,3.114,3.0845,3.1123,3.1295,3.1295,3.1634,3.18,3.18,3.18,3.18,3.18,3.18,3.2196,3.2955,3.3731,3.4507,3.5249,3.599,3.6131,3.581,3.581,3.5543,3.5178,0.0,0.0,0.0,0.0,0.0,0.0,0.0,3.5215,3.5237,3.526,3.5377,3.563,3.6292,3.6148,3.5688,3.5688,3.5688,0.0,0.0,0.0,0.0,3.4341,3.4543,3.4624,3.3521,0.0,0.0,0.0,0.0,0.0,0.0,0.0,0.0,0.0,0.0,0.0,0.0,0.0,0.0,0.0,0.0,0.0,0.0,0.0,0.0,0.0,0.0,0.0,0.0,3.4397,3.4397,3.4397,3.4397,3.4063,3.3398,3.3398,3.2251,3.0216,3.0216,3.0216,3.0216,3.0216,3.0216,3.0216,3.0216,3.0216,3.0216,3.0216,3.0216,3.0216,3.0216,3.0549,3.1008,0.0,0.0,0.0,0.0,0.0,0.0,0.0,0.0,0.0,0.0,0.0,0.0,0.0,0.0,0.0,0.0,0.0,0.0,3.0788,3.0666,3.0747,3.114,3.1004,3.1179,3.1634,3.1746,3.18,3.18,3.18,3.18,3.18,3.18,3.249,3.3749,3.3973,3.4783,3.599,3.6215,3.6259,3.6174,3.6174,3.6071,3.5941,0.0,0.0,0.0,0.0,0.0,0.0,0.0,0.0,0.0,3.5451,3.5811,3.623,3.643,3.6367,3.6289,3.6289,3.5688,0.0,0.0,0.0,0.0,0.0,3.4543,0.0,0.0,0.0,0.0,0.0,0.0,0.0,0.0,0.0,0.0,0.0,0.0,0.0,0.0,0.0,0.0,0.0,0.0,0.0,0.0,0.0,0.0,0.0,0.0,0.0,0.0,3.4397,3.4397,3.4397,3.4397,3.4063,3.3398,3.3398,3.2772,3.1701,3.1193,3.0937,3.0937,3.0397,3.0216,3.0216,3.0216,3.0216,3.0216,3.0216,3.0216,3.0216,3.0216,3.0319,3.0457,0.0,0.0,0.0,0.0,0.0,0.0,0.0,0.0,0.0,0.0,0.0,0.0,0.0,0.0,0.0,0.0,0.0,0.0,0.0,3.0351,3.0435,3.074,3.0764,3.1123,3.18,3.18,3.18,3.18,3.18,3.18,3.18,3.2093,3.2886,3.4093,3.4404,3.518,3.6301,3.6301,3.6301,3.6301,3.6301,3.6301,3.6301,0.0,0.0,0.0,0.0,0.0,0.0,0.0,0.0,0.0,3.5822,3.6242,3.6616,3.6289,3.6163,3.6085,3.5688,0.0,0.0,0.0,0.0,0.0,0.0,0.0,0.0,0.0,0.0,0.0,0.0,0.0,0.0,0.0,0.0,0.0,0.0,0.0,0.0,0.0,0.0,0.0,0.0,0.0,0.0,0.0,0.0,0.0,0.0,0.0,0.0,0.0,3.4397,3.4397,3.4397,3.4397,3.423,3.381,3.381,3.3543,3.3091,3.2152,3.1548,3.1306,3.0487,3.0216,3.0216,3.0216,3.0216,3.0216,3.0216,3.0216,3.0216,3.0216,3.0216,3.0216,0.0,0.0,0.0,0.0,0.0,0.0,0.0,0.0,0.0,0.0,0.0,0.0,0.0,0.0,0.0,0.0,0.0,0.0,0.0,3.0199,3.0225,3.0033,3.0576,3.1179,3.18,3.18,3.18,3.18,3.18,3.18,3.1817,3.2559,3.3317,3.4111,3.4869,3.5611,3.6301,3.6301,3.6301,3.6301,3.6301,3.6301,3.6301,3.6301,0.0,0.0,0.0,0.0,0.0,0.0,0.0,0.0,3.6232,3.6632,3.6816,3.6022,3.5752,3.5559,3.4543,0.0,0.0,3.3646,0.0,0.0,0.0,0.0,0.0,0.0,0.0,0.0,0.0,0.0,0.0,0.0,0.0,0.0,0.0,0.0,0.0,0.0,0.0,0.0,0.0,0.0,0.0,0.0,0.0,0.0,0.0,0.0,0.0,0.0,3.4397,3.4397,3.4397,3.4397,3.4397,0.0,3.4397,3.4397,3.4314,3.3006,3.1977,3.1306,3.0487,3.0216,3.0216,3.0216,3.0216,3.0216,3.0216,3.0216,3.0216,3.0216,3.0216,3.0216,0.0,0.0,0.0,0.0,0.0,0.0,0.0,0.0,0.0,0.0,0.0,0.0,0.0,0.0,0.0,0.0,0.0,0.0,0.0,3.0683,3.0804,3.0982,3.1389,3.1634,3.18,3.18,3.18,3.18,3.18,3.18,3.1817,3.2559,3.3317,3.4111,3.4869,3.5611,3.6301,3.6301,3.6301,3.6301,3.6301,3.6301,3.6301,3.6301,3.6301,0.0,0.0,0.0,0.0,0.0,0.0,0.0,3.644,3.6554,3.6554,3.6352,3.6352,3.6226,3.5544,3.5154,0.0,0.0,0.0,0.0,0.0,0.0,0.0,0.0,0.0,0.0,0.0,0.0,0.0,0.0,0.0,0.0,0.0,0.0,0.0,0.0,0.0,0.0,0.0,0.0,0.0,0.0,0.0,0.0,0.0,0.0,0.0,3.4397,3.4397,3.4397,3.4397,3.4397,3.4397,0.0,3.4397,3.4397,3.4397,3.3543,3.2513,3.1306,3.0487,3.0216,3.0216,3.0216,3.0216,3.0216,3.0216,3.0216,3.0216,3.0216,3.0216,3.0216,0.0,0.0,0.0,0.0,0.0,0.0,0.0,0.0,0.0,0.0,0.0,0.0,0.0,0.0,0.0,0.0,0.0,0.0,0.0,0.0,3.0965,3.1295,3.1466,3.1634,3.18,3.18,3.18,3.18,3.18,3.18,3.1817,3.2938,3.3697,3.4145,3.5232,3.5939,3.6301,3.6301,3.6301,3.6301,3.6301,3.6301,3.6301,3.6301,3.6542,3.6879,3.7011,0.0,0.0,0.0,0.0,0.0,0.0,0.0,3.6739,3.6569,3.6523,3.6289,3.5219,0.0,0.0,3.3659,0.0,0.0,0.0,0.0,0.0,0.0,0.0,0.0,0.0,0.0,0.0,0.0,0.0,0.0,0.0,0.0,0.0,0.0,0.0,0.0,0.0,0.0,0.0,0.0,0.0,0.0,0.0,3.4397,3.4397,3.4397,3.4397,3.4397,3.4397,3.4397,3.4397,3.4397,3.4397,3.4397,3.4397,3.336,3.25,3.1725,3.0656,3.0216,3.0216,3.0216,3.0216,3.0216,3.0216,3.0216,3.0216,3.0216,3.0216,3.0216,0.0,0.0,0.0,0.0,0.0,0.0,0.0,0.0,0.0,0.0,0.0,0.0,0.0,0.0,0.0,0.0,0.0,0.0,0.0,0.0,0.0,3.1372,3.1389,3.1504,3.18,3.18,3.18,3.18,3.18,3.18,3.1834,3.3369,3.4093,3.4145,3.5628,3.6301,3.6301,3.6301,3.6301,3.6301,3.6301,3.6301,3.6318,3.6456,3.6904,3.7508,3.7607,0.0,0.0,0.0,0.0,0.0,0.0,0.0,3.6968,3.6646,3.6554,3.6226,3.4743,0.0,3.4409,3.3044,3.3016,0.0,0.0,0.0,0.0,0.0,0.0,0.0,0.0,0.0,0.0,0.0,0.0,0.0,0.0,0.0,0.0,0.0,0.0,0.0,0.0,0.0,0.0,0.0,0.0,0.0,3.4397,3.4397,3.4397,3.4397,3.4397,3.4397,3.4397,3.4397,3.4397,3.4397,3.4397,3.4397,3.4314,3.292,3.2302,3.2215,3.0824,3.0216,3.0216,3.0216,3.0216,3.0216,3.0216,3.0216,3.0216,3.0216,3.0216,3.0216,0.0,0.0,0.0,0.0,0.0,0.0,0.0,0.0,0.0,0.0,0.0,0.0,0.0,0.0,0.0,0.0,0.0,0.0,0.0,0.0,0.0,3.1709,3.1709,3.1746,3.18,3.18,3.18,3.18,3.1654,3.1709,3.1834,3.3369,3.4093,3.4145,3.5628,3.6301,3.6301,3.6301,3.6301,3.6301,3.6301,3.6301,3.6387,3.706,3.7387,3.7602,0.0,0.0,0.0,0.0,0.0,0.0,0.0,0.0,0.0,3.6662,3.6476,3.6352,0.0,0.0,3.3934,0.0,3.3016,3.31,0.0,0.0,0.0,0.0,0.0,0.0,0.0,0.0,0.0,0.0,0.0,0.0,0.0,0.0,0.0,0.0,0.0,0.0,0.0,0.0,0.0,0.0,0.0,0.0,3.4371,3.4397,3.4397,3.4397,3.4397,3.4397,3.4397,3.4397,3.4397,3.4397,3.4397,3.4397,3.4314,3.292,3.2302,3.2215,3.0824,3.0216,3.0216,3.0216,3.0216,3.0216,3.0216,3.0216,3.0216,3.0216,3.0216,3.0216,0.0,0.0,0.0,0.0,0.0,0.0,0.0,0.0,0.0,0.0,0.0,0.0,0.0,0.0,0.0,0.0,0.0,0.0,0.0,0.0,0.0,3.1671,3.1746,3.1746,3.1709,3.1746,3.1746,3.1709,3.1709,3.1671,0.0,3.333,3.4093,3.4145,3.5628,3.6301,3.6301,3.6301,3.6301,3.6301,3.6276,3.6045,3.5922,0.0,0.0,0.0,0.0,0.0,0.0,0.0,0.0,0.0,0.0,0.0,0.0,0.0,3.6785,0.0,3.5479,3.4528,3.3575,0.0,3.2632,3.2503,0.0,0.0,0.0,0.0,0.0,0.0,0.0,0.0,0.0,0.0,0.0,0.0,0.0,0.0,0.0,0.0,0.0,0.0,0.0,0.0,0.0,0.0,0.0,3.3195,3.343,3.3757,3.3953,3.3953,3.4241,3.4397,3.4397,3.4397,3.4397,3.4397,3.4397,3.4397,3.4397,3.3373,3.2673,3.2215,3.0824,3.0216,3.0216,3.0216,3.0216,3.0216,3.0216,3.0216,3.0216,3.0216,3.0216,3.0216,0.0,0.0,0.0,0.0,0.0,0.0,0.0,0.0,0.0,0.0,0.0,0.0,0.0,0.0,0.0,0.0,0.0,0.0,0.0,0.0,0.0,3.1617,3.1709,3.1709,3.1617,3.1709,3.1709,3.1559,3.1634,3.1596,3.1551,3.3213,3.3997,0.0,3.5628,3.6301,3.6276,3.6301,3.6301,3.6301,3.6105,3.5766,0.0,0.0,0.0,0.0,0.0,0.0,0.0,0.0,0.0,0.0,0.0,0.0,0.0,0.0,0.0,0.0,0.0,0.0,3.3851,3.3101,3.269,3.2403,0.0,0.0,0.0,0.0,0.0,0.0,0.0,0.0,0.0,0.0,0.0,0.0,0.0,0.0,0.0,0.0,0.0,0.0,0.0,0.0,0.0,0.0,0.0,3.2542,3.2685,3.3117,3.3365,3.3365,3.3757,3.4031,3.4188,3.4332,3.4397,3.4397,3.4397,3.4397,3.4397,3.3725,3.3129,3.2488,3.1258,3.0734,3.0734,3.0566,3.0487,3.0487,3.0306,3.0216,3.0216,3.0216,3.0216,3.0216,0.0,0.0,0.0,0.0,0.0,0.0,0.0,0.0,0.0,0.0,0.0,0.0,0.0,3.1579,3.1504,3.0845,3.1123,3.1312,3.123,3.123,3.1329,3.1579,3.1617,0.0,3.1617,3.1617,3.1596,3.1517,3.1389,3.1406,3.1551,3.2974,3.3714,3.3968,3.5587,3.6276,3.6208,0.0,0.0,0.0,0.0,0.0,0.0,0.0,0.0,0.0,0.0,0.0,0.0,0.0,0.0,0.0,0.0,0.0,0.0,0.0,0.0,0.0,0.0,3.5623,0.0,3.3782,3.3437,0.0,0.0,0.0,0.0,0.0,0.0,0.0,0.0,0.0,0.0,0.0,0.0,0.0,0.0,0.0,0.0,0.0,0.0,0.0,0.0,0.0,0.0,0.0,0.0,3.2123,3.2659,3.2725,3.2738,3.2738,3.2764,3.3051,3.3626,3.4136,3.4397,3.4397,3.4397,3.4397,3.4397,3.3725,3.3398,3.33,3.2488,3.2215,3.2127,3.146,3.1217,3.1205,3.0487,3.0216,3.0216,3.0216,3.0216,3.0216,0.0,0.0,0.0,0.0,0.0,0.0,0.0,0.0,0.0,0.0,0.0,0.0,0.0,3.1726,3.1634,3.1162,3.1196,3.1329,3.1576,3.1521,3.1504,3.1579,3.1617,3.1596,3.1538,3.1538,3.1483,3.1351,3.1406,3.1385,3.1342,3.2997,3.3697,3.3683,3.5437,3.6208,3.6225,3.6208,0.0,0.0,0.0,0.0,0.0,0.0,0.0,0.0,0.0,0.0,0.0,0.0,0.0,0.0,0.0,0.0,0.0,0.0,0.0,0.0,0.0,0.0,0.0,3.4528,3.3561,0.0,0.0,0.0,0.0,0.0,0.0,0.0,0.0,0.0,0.0,0.0,0.0,0.0,0.0,0.0,0.0,0.0,0.0,0.0,0.0,0.0,0.0,0.0,0.0,0.0,3.1588,3.1954,3.215,3.215,3.2502,3.279,3.3012,3.3208,3.3496,3.3875,3.3875,3.4071,3.4397,3.4147,3.4063,3.4063,3.3797,3.3177,3.2314,3.2052,3.1977,3.1889,3.1613,3.1524,3.1524,3.1524,3.127,3.0949,0.0,0.0,0.0,0.0,0.0,0.0,0.0,0.0,0.0,0.0,0.0,0.0,0.0,0.0,3.1709,3.1504,3.1445,3.15,3.1709,3.1634,3.1559,3.1559,3.1504,3.1521,3.1517,3.1462,3.1406,3.1295,3.1385,3.1308,3.1224,3.2957,3.3656,3.3516,3.5284,3.6079,0.0,0.0,0.0,3.6122,0.0,0.0,3.5428,0.0,0.0,0.0,0.0,0.0,0.0,0.0,0.0,0.0,0.0,0.0,0.0,0.0,0.0,0.0,3.6492,0.0,0.0,0.0,0.0,0.0,0.0,0.0,0.0,0.0,0.0,0.0,0.0,0.0,0.0,0.0,0.0,0.0,0.0,0.0,0.0,0.0,0.0,0.0,0.0,0.0,0.0,0.0,0.0,0.0,3.0986,3.1352,3.1548,3.1548,3.211,3.2411,3.2411,3.2594,3.2894,3.3287,3.3287,3.347,3.3822,3.3822,3.394,3.4123,3.4123,3.3701,3.3006,3.2747,3.2673,3.2661,3.2401,3.2302,3.2302,3.2302,3.1889,3.1306,0.0,0.0,0.0,0.0,0.0,0.0,0.0,0.0,0.0,3.18,0.0,0.0,0.0,0.0,0.0,3.18,3.18,3.1763,3.1617,3.1538,3.1517,3.1517,3.1368,3.1351,3.1517,3.1351,3.1295,3.1295,3.1213,3.1207,3.1258,3.2713,3.3465,3.3692,3.5154,3.5817,3.5817,0.0,3.6182,3.6079,0.0,3.4841,3.541,0.0,0.0,0.0,3.7582,3.7895,0.0,0.0,0.0,0.0,0.0,0.0,0.0,0.0,0.0,0.0,0.0,0.0,0.0,0.0,0.0,0.0,0.0,0.0,0.0,0.0,0.0,0.0,0.0,0.0,0.0,0.0,0.0,0.0,0.0,0.0,0.0,0.0,0.0,0.0,0.0,0.0,0.0,0.0,0.0,3.0986,3.0986,3.0986,3.0986,3.0986,3.1522,3.1823,3.1823,3.2359,3.2646,3.2659,3.2659,3.2672,3.2685,3.2685,3.3012,3.3561,3.3561,3.3875,3.4288,3.3725,3.3398,3.3398,3.2661,3.2389,3.2389,3.2389,3.1977,3.1395,0.0,0.0,0.0,0.0,0.0,0.0,3.18,3.18,3.18,0.0,0.0,0.0,3.18,3.18,3.18,3.18,3.1651,3.1576,3.1579,3.1428,3.1428,3.1559,3.15,3.1462,3.1517,3.1351,3.1274,3.123,3.123,3.1461,3.2043,3.3049,3.3795,0.0,3.5419,3.5844,3.5667,3.5932,0.0,0.0,3.5298,3.5426,0.0,0.0,0.0,0.0,0.0,3.7178,0.0,0.0,3.7953,3.8407,0.0,0.0,0.0,0.0,0.0,0.0,3.7637,0.0,0.0,0.0,0.0,0.0,0.0,0.0,0.0,0.0,0.0,0.0,0.0,0.0,0.0,0.0,0.0,0.0,0.0,0.0,0.0,0.0,0.0,0.0,0.0,0.0,0.0,0.0,3.0986,3.0986,3.0986,3.0986,3.0986,3.0986,3.1143,3.1222,3.1222,3.1378,3.1666,3.2071,3.2071,3.2293,3.2685,3.2685,3.2777,3.2947,3.2947,3.3273,3.3849,3.4074,3.4147,3.4063,3.3882,3.3784,3.3784,3.3784,3.3373,3.2785,0.0,0.0,0.0,0.0,0.0,0.0,3.18,3.18,3.18,0.0,0.0,0.0,3.1709,3.1709,3.1709,3.1709,3.1596,3.1559,3.1671,3.1504,3.1504,3.1579,3.1483,3.1462,3.1517,3.1329,3.1235,3.1252,3.1534,3.1867,3.2347,3.3456,3.4168,3.4523,0.0,0.0,0.0,0.0,0.0,0.0,3.5547,0.0,0.0,3.6101,3.6135,0.0,0.0,0.0,3.7013,3.7013,3.7401,0.0,0.0,0.0,0.0,0.0,0.0,0.0,0.0,0.0,0.0,0.0,0.0,0.0,3.5124,3.4942,0.0,0.0,0.0,0.0,0.0,0.0,0.0,0.0,0.0,0.0,0.0,0.0,0.0,0.0,0.0,0.0,0.0,0.0,0.0,3.1468,3.1468,3.1334,3.0986,3.0986,3.0986,3.0986,3.0986,3.0986,3.0986,3.0986,3.1156,3.1483,3.1483,3.1653,3.198,3.198,3.211,3.2333,3.2333,3.2672,3.3247,3.3548,3.3966,3.4397,3.4397,3.4397,3.4397,3.4397,3.3979,3.3398,0.0,0.0,0.0,3.18,3.18,3.18,3.18,3.18,3.18,0.0,3.1819,3.1819,3.1691,3.1797,3.1886,3.1886,3.1955,3.2007,3.2061,3.1949,3.1874,3.1836,3.1628,3.1606,3.1718,3.1562,3.1506,3.155,3.215,3.2483,3.2544,3.3922,3.4539,3.4641,0.0,0.0,0.0,0.0,0.0,3.6823,3.5778,3.6153,0.0,0.0,3.6422,0.0,3.7134,3.6952,3.6492,3.6492,3.6892,0.0,0.0,0.0,0.0,0.0,3.9189,0.0,0.0,0.0,0.0,0.0,0.0,0.0,3.5285,3.5559,3.5752,0.0,0.0,0.0,0.0,0.0,0.0,0.0,0.0,0.0,0.0,0.0,0.0,0.0,0.0,0.0,0.0,3.3213,3.2932,3.229,3.2146,3.1809,3.1123,3.1048,3.0986,3.0986,3.1048,3.1123,3.1123,3.1198,3.1198,3.1123,3.1123,3.1048,3.0986,3.0986,3.1261,3.1744,3.1744,3.2071,3.2594,3.2594,3.3273,3.4306,3.4306,3.4345,3.4397,3.4397,3.3979,3.3484,0.0,0.0,3.18,3.18,3.18,3.18,3.18,3.18,3.18,3.18,3.202,3.2179,3.2179,3.2983,3.3525,3.3525,3.4057,3.4234,3.3848,3.3751,3.3537,3.323,3.3189,3.3148,3.3206,3.3213,3.3155,3.3008,3.3243,3.3575,3.4066,3.4499,3.4914,3.5402,0.0,0.0,0.0,0.0,0.0,3.7019,3.6418,0.0,3.7307,3.6711,3.6492,3.6492,3.66,3.6616,3.6492,0.0,3.6892,3.7417,0.0,0.0,0.0,0.0,0.0,0.0,0.0,0.0,0.0,0.0,0.0,0.0,3.6226,3.6148,3.6085,0.0,0.0,0.0,0.0,0.0,0.0,0.0,0.0,0.0,0.0,0.0,0.0,0.0,0.0,0.0,0.0,3.3213,3.3143,3.3003,3.2434,3.2015,3.1869,3.1334,3.0986,3.0986,3.1603,3.1869,3.1869,3.2448,3.2448,3.1869,3.1869,3.1603,3.0986,3.0986,3.1052,3.1156,3.1156,3.1483,3.2006,3.2006,3.2698,3.3757,3.3757,3.4018,3.4397,3.4397,3.4314,3.423,0.0,0.0,3.18,3.18,3.18,3.18,3.18,3.18,3.1856,3.202,3.2511,3.2809,3.2703,3.3366,3.3857,3.3857,3.4169,3.4338,3.422,3.4159,3.4042,3.3738,3.3755,3.3697,3.3656,3.3656,3.3615,3.3507,3.3863,3.4176,3.4506,3.4939,3.5161,0.0,0.0,0.0,0.0,0.0,3.6776,3.7434,3.6561,0.0,3.7317,3.6706,3.6492,3.6492,3.6492,3.6492,3.6492,3.6492,3.6723,0.0,0.0,3.7401,3.7504,0.0,3.8518,3.8684,0.0,0.0,0.0,3.7637,0.0,0.0,0.0,3.6274,3.6211,0.0,0.0,0.0,0.0,0.0,0.0,0.0,0.0,0.0,0.0,0.0,0.0,0.0,0.0,0.0,0.0,3.4356,3.4206,3.3768,3.2706,3.229,3.2648,3.2304,3.1969,3.1529,3.1869,3.1942,3.1529,3.2304,3.2304,3.1529,3.1942,3.1736,3.0986,3.0986,3.0986,3.0986,3.0986,3.1143,3.1418,3.1418,3.1927,3.2751,3.3025,3.3313,3.3587,3.3888,3.3992,3.4031,0.0,0.0,0.0,3.1873,3.1893,3.1893,3.1893,3.1965,3.2107,3.2459,3.3196,3.3598,3.3341,3.3788,3.4134,3.4134,3.4272,3.4438,0.0,0.0,3.4609,3.4473,3.4393,3.4352,3.4335,3.4189,3.4165,3.4247,3.4746,3.4994,3.4951,3.5494,3.5543,0.0,0.0,0.0,0.0,0.0,0.0,3.7734,0.0,3.6885,3.7695,3.6952,3.6662,3.6662,3.6554,3.6492,3.6492,3.66,0.0,3.6785,3.7401,3.7178,0.0,0.0,0.0,0.0,0.0,0.0,0.0,0.0,0.0,3.7058,0.0,0.0,0.0,0.0,0.0,0.0,0.0,0.0,0.0,0.0,0.0,0.0,0.0,0.0,0.0,0.0,0.0,0.0,0.0,3.5504,3.5213,3.461,3.3129,3.2648,3.3353,3.3143,3.2791,3.2362,3.2434,3.216,3.1408,3.216,3.2087,3.1185,3.1809,3.1736,3.0986,3.0986,3.0986,3.0986,3.0986,3.0986,3.0986,3.0986,3.1261,3.1731,3.2306,3.2594,3.2751,3.3247,3.3496,3.3652,3.2669,3.242,0.0,0.0,3.2197,3.2249,3.2249,3.2504,3.28,3.3141,3.4147,3.4623,0.0,0.0,0.0,0.0,0.0,0.0,3.6696,0.0,3.6636,3.6558,3.6232,3.6191,3.6519,3.6238,3.6214,3.6536,3.6702,3.6755,3.6601,3.6422,0.0,0.0,3.5391,0.0,0.0,0.0,3.6637,0.0,3.7183,3.7872,0.0,3.7754,3.7298,3.7238,3.6662,3.6492,3.66,0.0,3.7298,3.7401,0.0,3.7796,0.0,0.0,0.0,0.0,0.0,0.0,0.0,0.0,3.7013,0.0,0.0,0.0,0.0,0.0,0.0,0.0,0.0,0.0,0.0,0.0,0.0,0.0,0.0,0.0,0.0,0.0,0.0,0.0,0.0,0.0,3.5439,3.5359,3.3934,3.3422,3.4109,3.2918,3.2506,3.3073,3.3685,3.3699,3.2946,3.3685,3.3339,3.1942,3.2074,3.1736,3.0986,3.0986,3.0986,3.0986,3.0986,3.0986,3.0986,3.0986,3.1026,3.1143,3.1718,3.2241,3.2698,3.2777,3.313,3.36,3.2876,3.2684,0.0,0.0,3.2553,3.2745,3.3206,3.3963,3.4519,3.4664,3.5312,0.0,0.0,0.0,0.0,0.0,0.0,3.6392,0.0,0.0,3.6684,3.6409,3.6781,0.0,3.6803,3.6865,3.6981,3.7135,3.7152,3.7094,3.696,3.658,0.0,0.0,3.5191,0.0,3.6363,0.0,0.0,0.0,0.0,0.0,0.0,3.7621,3.6892,3.6831,3.6616,3.6492,3.6554,0.0,3.7134,0.0,0.0,0.0,0.0,0.0,0.0,0.0,0.0,0.0,0.0,0.0,0.0,0.0,0.0,0.0,3.6492,0.0,0.0,0.0,0.0,0.0,0.0,0.0,0.0,0.0,0.0,0.0,0.0,0.0,0.0,0.0,0.0,0.0,0.0,0.0,0.0,3.4192,3.4971,3.4423,3.3988,3.3837,3.4109,3.3973,3.3213,3.3891,3.3754,3.272,3.3199,3.3003,3.2245,3.2245,3.2245,3.2245,3.1809,3.1676,3.1603,3.1198,3.0986,3.1013,3.1248,3.1483,3.1744,3.2071,3.2359,3.262,3.3166,0.0,0.0,0.0,0.0,3.3575,3.4497,0.0,0.0,0.0,0.0,0.0,3.6231,3.611,0.0,0.0,0.0,3.5844,0.0,0.0,3.6498,0.0,0.0,0.0,0.0,0.0,3.7342,3.7596,3.7542,3.7414,3.7321,3.6939,0.0,0.0,0.0,3.5847,3.6729,0.0,0.0,3.9059,3.9166,3.9242,3.9189,3.7621,3.6892,3.6723,3.6554,3.6492,3.6554,3.6662,3.7074,0.0,3.7058,0.0,0.0,0.0,0.0,0.0,3.8067,0.0,0.0,0.0,0.0,0.0,0.0,0.0,0.0,0.0,0.0,0.0,0.0,0.0,0.0,0.0,0.0,0.0,0.0,0.0,0.0,0.0,0.0,0.0,0.0,0.0,0.0,3.5439,3.4758,3.4677,3.5439,3.5279,3.4905,3.4312,3.4528,3.4192,3.3213,3.3891,3.3891,3.3213,3.3768,3.3699,3.3213,3.3213,3.3213,3.3143,3.2648,3.2362,3.2362,3.1823,3.1616,3.1616,3.1616,3.1616,3.1596,3.1596,3.1705,3.1901,3.3762,3.3494,0.0,0.0,0.0,0.0,0.0,0.0,0.0,0.0,0.0,0.0,0.0,0.0,0.0,0.0,0.0,3.5783,3.6259,0.0,3.6492,0.0,0.0,3.6776,0.0,0.0,0.0,3.8274,3.8274,3.8241,3.814,0.0,0.0,0.0,0.0,3.7297,3.8425,3.8221,3.8562,3.9172,3.9189,3.8535,3.7519,0.0,3.7895,3.7298,3.6723,0.0,0.0,3.7178,3.7417,0.0,0.0,0.0,0.0,0.0,0.0,0.0,0.0,0.0,0.0,3.6662,0.0,0.0,0.0,0.0,3.6492,0.0,0.0,0.0,0.0,0.0,0.0,0.0,0.0,0.0,0.0,0.0,0.0,0.0,0.0,0.0,0.0,0.0,0.0,3.5504,3.4758,3.4677,3.5439,3.4758,3.4312,3.4312,3.5067,3.4721,3.3213,3.3891,3.3891,3.3213,3.3213,3.3213,3.3213,3.3213,3.3213,3.3213,3.3143,3.3143,3.3143,3.3143,3.3143,3.3143,3.3143,3.3143,3.2946,3.1569,3.1365,3.1759,0.0,0.0,0.0,0.0,0.0,0.0,0.0,3.7771,0.0,0.0,0.0,0.0,0.0,0.0,3.5932,0.0,0.0,3.5667,3.5827,3.6156,0.0,0.0,0.0,3.6939,0.0,0.0,0.0,0.0,0.0,0.0,0.0,0.0,0.0,0.0,0.0,3.7376,0.0,0.0,0.0,0.0,0.0,3.9295,3.8535,0.0,0.0,3.6785,3.6538,3.6492,0.0,3.6723,3.7074,3.7358,3.7178,3.7222,3.7417,3.7621,3.7578,0.0,0.0,0.0,3.7087,3.66,0.0,0.0,0.0,0.0,0.0,0.0,0.0,0.0,0.0,0.0,0.0,0.0,0.0,0.0,0.0,0.0,0.0,0.0,0.0,0.0,0.0,0.0,0.0,3.5504,3.5279,3.5198,3.5504,3.5213,3.5052,3.5052,3.5359,3.5228,3.4721,3.4986,3.4986,3.4721,3.4721,3.4721,3.4721,3.4721,3.4721,3.4721,3.4192,3.3905,3.3905,3.3422,3.3213,3.3213,3.3213,3.2932,3.2434,3.2448,3.2296,3.195,3.6266,0.0,0.0,0.0,0.0,0.0,0.0,0.0,0.0,0.0,3.7452,0.0,3.6643,0.0,3.5975,0.0,3.5694,3.574,3.6011,3.6095,0.0,3.6163,3.6446,0.0,0.0,0.0,0.0,0.0,0.0,3.8354,0.0,0.0,0.0,0.0,0.0,0.0,3.9126,0.0,3.9362,0.0,0.0,3.9747,0.0,0.0,3.7679,3.7103,0.0,3.6492,3.6492,3.6492,3.6785,3.7013,3.66,3.6785,3.7074,3.7074,3.7058,3.6982,3.6982,3.686,0.0,3.6414,3.6226,0.0,3.6352,0.0,0.0,0.0,0.0,0.0,0.0,0.0,0.0,0.0,0.0,0.0,0.0,0.0,0.0,0.0,0.0,0.0,0.0,0.0,3.5504,3.5504,3.5504,3.5504,0.0,0.0,3.5359,3.5052,3.5359,3.5359,3.5067,3.5359,3.5504,3.5504,3.5504,3.5504,3.5504,3.5504,3.5504,3.5439,3.4971,3.4758,3.4691,3.4206,3.4002,3.4002,3.4002,3.3561,3.2847,3.2861,3.2376,3.173,0.0,0.0,0.0,0.0,3.7037,0.0,0.0,0.0,3.7877,0.0,3.7285,3.6943,3.6943,3.6539,3.6284,3.6333,3.5898,0.0,3.6671,3.6028,0.0,0.0,3.6079,3.5939,3.6454,0.0,0.0,0.0,0.0,0.0,0.0,0.0,0.0,0.0,3.9402,0.0,4.0281,4.0158,4.007,4.007,4.007,3.9747,3.9259,3.9206,0.0,3.8181,3.6997,3.6554,3.6554,3.6554,3.6554,3.6492,3.6492,3.6492,3.6492,3.6492,3.6352,3.6211,3.6196,3.6085,3.6037,3.5973,0.0,0.0,0.0,0.0,3.6037,0.0,0.0,0.0,0.0,0.0,0.0,0.0,0.0,0.0,0.0,0.0,0.0,0.0,0.0,0.0,0.0,3.5504,3.5504,3.5504,3.5504,3.5504,0.0,0.0,3.5133,3.438,3.5133,3.5133,3.438,3.5133,3.5504,3.5504,3.5504,3.5504,3.5504,3.5504,3.5504,3.5504,3.5504,3.5504,3.5504,3.5504,3.5504,3.5504,3.5504,3.4986,3.4095,3.2635,3.1676,3.1061,3.8107,3.82,3.8242,0.0,3.82,3.842,0.0,0.0,0.0,0.0,3.6843,3.6416,3.6011,3.5854,3.5783,3.581,3.5694,0.0,0.0,0.0,0.0,3.6738,3.6586,3.6831,3.7512,3.7929,0.0,3.8001,0.0,0.0,3.9261,0.0,0.0,0.0,0.0,0.0,4.0281,4.0158,4.007,4.007,4.007,4.002,0.0,0.0,3.9082,3.8865,3.8124,3.7562,3.7178,3.7178,3.6892,3.6492,3.6492,3.6492,3.6492,3.6492,3.6492,3.6414,3.6274,3.6148,3.6148,3.6037,3.5973,3.6037,0.0,0.0,0.0,0.0,0.0,0.0,0.0,0.0,0.0,0.0,0.0,0.0,0.0,0.0,0.0,0.0,0.0,0.0,3.5504,3.5504,3.5504,3.5504,3.5504,3.5504,0.0,0.0,0.0,3.5213,3.5359,3.5424,3.5198,3.5424,3.5504,3.5504,3.5504,3.5504,3.5504,3.5504,3.5504,3.5504,3.5504,3.5504,3.5504,3.5504,3.5504,3.5504,3.5504,3.4639,3.3353,3.2434,3.2015,3.1736,3.8855,0.0,0.0,3.851,0.0,0.0,3.8216,0.0,0.0,3.7135,3.6684,0.0,3.5968,3.6044,3.6129,3.6129,3.6434,0.0,0.0,0.0,0.0,3.7719,3.7449,3.7483,3.7889,3.8305,0.0,3.8596,0.0,0.0,4.0065,0.0,0.0,0.0,0.0,4.0955,0.0,4.0612,4.0303,4.007,4.007,0.0,0.0,3.9696,3.9575,3.9523,3.9242,3.8518,3.7738,3.7178,3.7118,3.7222,3.7013,3.6892,3.6892,3.6892,3.6646,3.6352,3.6211,3.607,3.5943,3.5894,3.5846,3.5797,3.5846,3.5846,3.5797,0.0,0.0,0.0,0.0,0.0,0.0,0.0,0.0,0.0,0.0,0.0,0.0,0.0,0.0,0.0,3.5504,3.5504,3.5504,3.5504,3.5504,3.5504,0.0,0.0,0.0,3.5504,3.5504,3.5504,3.5504,3.5504,3.5504,3.5504,3.5504,3.5504,3.5504,3.5504,3.5504,3.5504,3.5504,3.5504,3.5504,3.5504,3.5279,3.4905,3.4288,3.3506,3.2648,3.1882,3.1603,3.1529,0.0,0.0,0.0,0.0,0.0,0.0,0.0,3.7667,0.0,3.7152,0.0,3.653,3.6446,3.6795,3.7017,3.6924,0.0,3.8176,3.8802,3.8261,3.8227,3.8954,3.8396,3.8091,3.8193,3.8521,0.0,0.0,0.0,0.0,0.0,0.0,0.0,0.0,0.0,0.0,0.0,4.1065,4.0483,0.0,4.007,4.007,4.007,4.007,4.007,4.007,4.002,3.9295,3.8238,3.7222,3.7504,3.8165,3.7578,3.746,3.746,3.7358,3.6876,3.6321,3.6196,3.6006,3.5752,3.5688,3.5589,3.5554,3.5638,3.5604,3.5554,3.5638,3.5604,3.5504,0.0,0.0,0.0,0.0,0.0,0.0,0.0,0.0,0.0,0.0,0.0,0.0,0.0,3.5504,3.5504,3.5504,3.5504,3.5504,0.0,0.0,0.0,3.5504,3.5504,0.0,3.5504,0.0,3.5504,3.5504,3.5504,3.5504,3.5504,3.5504,3.5504,3.5504,3.5504,3.5504,3.5504,3.5504,3.5067,3.4312,3.2918,3.2362,3.2146,3.1394,3.1048,3.0986,0.0,0.0,0.0,0.0,0.0,3.7844,3.747,3.6981,3.662,3.6474,3.6963,3.7145,3.678,3.7655,3.8117,3.775,3.7838,0.0,0.0,0.0,0.0,3.8954,3.887,3.9089,3.9681,3.9781,3.9937,0.0,0.0,0.0,0.0,0.0,0.0,0.0,0.0,0.0,4.1019,4.0434,0.0,4.007,4.007,4.007,4.007,4.007,4.007,4.002,3.954,3.9206,3.9028,3.881,3.8518,3.8165,3.7578,3.7738,3.7953,3.6937,3.6892,3.7042,3.6383,3.6133,3.607,3.5752,3.5688,3.5638,3.5539,3.5504,3.5504,3.5554,3.5504,3.5504,3.5504,0.0,0.0,0.0,0.0,0.0,0.0,0.0,0.0,0.0,0.0,0.0,0.0,0.0,0.0,0.0,0.0,0.0,0.0,0.0,0.0,0.0,3.5504,0.0,0.0,0.0,3.5504,3.5504,3.5504,3.5504,3.5504,3.5504,3.5504,3.5504,3.5504,3.5504,3.5504,3.5504,3.5439,3.5213,3.4259,3.3547,3.2932,3.216,3.1529,3.0986,0.0,0.0,0.0,0.0,0.0,0.0,0.0,3.7619,0.0,3.7393,3.7888,3.8315,3.8461,3.8885,3.9072,3.8858,3.8948,3.9039,3.9039,3.9039,3.9191,3.9546,3.9546,0.0,4.007,4.007,4.0374,4.0989,0.0,0.0,0.0,0.0,0.0,0.0,0.0,4.1931,0.0,0.0,0.0,4.007,4.007,4.007,4.007,4.007,4.007,4.007,3.9747,3.9696,3.9575,3.8957,3.8957,3.9065,3.8181,3.8067,3.8124,3.7238,3.6952,3.6831,3.6461,3.6274,3.6133,3.5894,3.5752,3.5638,3.5554,3.5504,3.5504,3.5504,3.5504,3.5504,3.5504,3.5504,0.0,0.0,0.0,0.0,0.0,0.0,0.0,0.0,0.0,0.0,0.0,0.0,0.0,0.0,0.0,0.0,0.0,0.0,0.0,0.0,0.0,0.0,0.0,0.0,0.0,3.5504,3.5504,3.5504,3.5504,3.5504,3.5504,3.5504,3.5504,3.5504,3.5439,3.5052,3.4905,3.4839,3.4041,3.3492,3.3073,3.2362,3.1882,3.1542,0.0,3.9045,0.0,0.0,3.8235,0.0,3.9211,3.8821,3.8425,3.8606,3.9073,3.9564,4.0042,4.0172,4.0179,4.0106,4.0189,4.0254,4.0254,4.0171,4.007,4.007,4.007,4.007,4.007,4.007,4.0514,0.0,0.0,0.0,0.0,0.0,0.0,0.0,0.0,0.0,0.0,0.0,4.0434,4.007,4.007,4.007,4.007,4.007,4.007,4.007,4.007,4.007,3.9952,3.9011,3.9295,3.9901,3.8849,3.8518,3.8351,3.7637,3.7074,3.6662,3.6554,3.6352,3.6211,3.6037,3.5894,3.5703,3.5554,3.5504,3.5504,3.5504,3.5504,3.5504,3.5504,3.5504,0.0,0.0,0.0,0.0,0.0,0.0,0.0,0.0,0.0,0.0,0.0,0.0,0.0,0.0,0.0,0.0,0.0,0.0,0.0,0.0,0.0,3.5504,3.5504,0.0,3.5504,0.0,3.5504,3.5504,3.5504,3.5504,3.5504,3.5504,3.5504,3.5504,3.5439,3.4839,3.4543,3.4461,3.3699,3.3353,3.3073,3.2362,3.2015,3.1809,0.0,0.0,0.0,0.0,0.0,0.0,0.0,4.0257,3.9944,3.9385,4.0339,4.0899,4.0405,4.1321,4.1782,4.1376,4.0984,4.0707,4.0707,4.0353,4.007,4.007,4.007,4.007,4.007,4.007,4.0353,0.0,0.0,0.0,0.0,0.0,0.0,0.0,0.0,0.0,0.0,4.0353,4.0121,4.007,4.007,4.007,4.007,4.007,4.007,4.007,4.007,4.007,4.007,3.9969,4.002,3.9969,3.9312,3.9152,3.8865,3.7754,3.7358,3.7178,3.6662,3.6492,3.6429,3.61,3.5973,3.5925,3.5569,3.5504,3.5504,3.5504,3.5504,3.5504,3.5504,3.5504,3.5504,0.0,0.0,0.0,0.0,0.0,0.0,0.0,0.0,0.0,0.0,0.0,0.0,0.0,0.0,0.0,0.0,0.0,0.0,3.5504,0.0,3.5504,3.5504,3.5504,0.0,3.5504,3.5504,3.5504,3.5504,3.5504,3.5504,3.5504,3.5504,3.5504,3.5504,3.5424,3.5359,3.5294,3.4543,3.3768,3.3073,3.2362,3.1676,3.1123,0.0,0.0,0.0,0.0,0.0,0.0,0.0,4.1342,4.1324,4.1758,4.1722,4.1737,4.1995,4.2119,4.2115,4.1931,4.1499,4.123,4.123,4.0802,4.0531,4.0531,4.0531,4.0402,4.0138,4.0659,4.0879,0.0,0.0,0.0,0.0,0.0,0.0,0.0,0.0,4.1036,4.0754,4.0303,4.007,4.007,4.007,4.007,4.007,4.007,4.007,4.007,4.007,4.007,4.007,4.007,4.007,4.002,3.9365,3.9206,3.9028,3.8181,3.7679,3.7358,3.7134,3.6785,3.6429,3.61,3.5973,3.591,3.5569,3.5504,3.5504,3.5504,3.5504,3.5504,3.5504,3.5504,3.5504,0.0,0.0,0.0,0.0,0.0,0.0,0.0,0.0,0.0,0.0,0.0,0.0,0.0,0.0,0.0,0.0,0.0,0.0,3.5504,0.0,3.5504,3.5504,3.5504,3.5504,3.5504,3.5504,3.5504,3.5504,3.5504,3.5504,3.5504,3.5504,3.5504,3.5439,3.4986,3.4758,3.4691,3.3919,3.3492,3.3073,3.2362,3.1942,3.1603,4.0607,0.0,4.0822,0.0,4.1223,4.1409,4.2491,4.241,4.2522,4.332,4.2776,4.2541,4.3069,4.2729,4.2476,4.2476,4.1973,4.1717,4.1717,4.1276,4.1019,4.1019,4.1019,0.0,4.0514,4.1185,4.1366,4.1019,4.1864,0.0,0.0,0.0,0.0,0.0,4.099,4.0707,4.058,4.0271,4.007,4.007,4.007,4.007,4.007,4.007,4.007,4.007,4.007,4.007,4.007,4.007,4.007,4.002,3.9592,3.9365,3.9152,3.8684,3.801,3.7417,3.7417,3.6952,3.6429,3.61,3.5973,3.591,3.5569,3.5504,3.5504,3.5504,3.5504,3.5504,3.5504,3.5504,3.5504,3.5504,0.0,0.0,0.0,0.0,0.0,0.0,3.5504,3.5504,3.5504,0.0,0.0,0.0,0.0,0.0,0.0,0.0,0.0,0.0,0.0,0.0,0.0,3.5504,3.5504,3.5504,3.5504,3.5504,3.5504,3.5504,3.5504,3.5504,3.5504,3.5359,3.5118,3.4528,3.4177,3.3891,3.3143,3.2861,3.2791,3.2015,3.1809,3.1663,4.1545,4.1486,4.1656,4.2206,4.2286,4.2561,4.3351,4.3479,4.3479,4.3497,4.3428,4.334,4.3214,4.3123,4.3104,4.3104,4.2516,4.2198,4.2198,4.176,4.1481,0.0,0.0,4.1481,4.1481,4.1481,4.1481,4.1481,0.0,0.0,4.0415,0.0,4.0552,4.0802,4.0802,4.0531,4.0121,4.007,4.007,4.007,4.007,4.007,4.007,4.007,4.007,4.007,4.007,4.007,4.007,4.007,4.007,4.007,4.007,3.9696,3.9206,3.9206,3.8367,3.7417,3.7417,3.6952,3.6429,3.61,3.5973,3.591,3.5569,3.5504,3.5504,3.5504,3.5504,3.5504,3.5504,3.5504,3.5504,3.5504,0.0,0.0,0.0,0.0,0.0,0.0,3.5504,3.5504,3.5504,0.0,0.0,0.0,0.0,0.0,0.0,0.0,0.0,3.5504,3.5504,0.0,3.5504,3.5504,3.5504,3.5504,3.5504,3.5504,3.5504,3.5504,3.5504,3.5504,3.5504,3.5052,3.4312,3.4312,3.3905,3.3143,3.2362,3.2074,3.2015,3.1259,3.0986,3.0986,4.1936,4.2065,4.229,4.2999,4.3112,4.3185,4.3442,4.3497,4.3497,4.3497,4.3497,4.3463,4.3428,4.3251,4.3178,0.0,4.2956,4.2786,0.0,4.2297,4.199,4.199,4.199,4.1846,4.1481,4.2139,4.2139,4.1481,0.0,0.0,0.0,4.0802,4.056,4.0303,4.0303,4.0271,4.007,4.007,4.007,4.007,4.007,4.007,4.007,4.007,4.007,4.007,4.007,4.007,4.007,4.007,4.007,4.007,4.007,3.9969,3.9799,3.9799,3.9259,3.8535,3.8124,3.7562,3.6937,3.6226,3.5973,3.591,3.5569,3.5504,3.5504,3.5504,3.5504,3.5504,3.5504,3.5504,3.5504,3.5504,3.5504,0.0,0.0,0.0,0.0,0.0,3.5504,3.5504,0.0,3.5504,0.0,0.0,0.0,0.0,0.0,0.0,0.0,0.0,3.5504,0.0,3.5504,3.5504,3.5504,3.5504,3.5504,3.5504,3.5504,3.5504,3.5504,3.5504,3.5504,3.5359,3.5052,3.3988,3.3422,3.3087,3.1823,3.1334,3.1334,3.1061,3.0986,3.0986,4.2834,4.2846,4.291,4.3406,4.3497,4.3497,4.3497,4.3497,4.3497,4.3497,4.3497,4.3497,4.3497,4.3393,0.0,4.3286,4.3196,4.3123,4.3123,4.2768,4.2516,4.2516,4.2516,4.232,4.2015,0.0,0.0,4.2015,4.2458,4.232,4.176,4.1276,4.0784,4.0353,4.0353,4.0271,4.007,4.007,4.007,4.007,4.007,4.007,4.007,4.007,4.007,4.007,4.007,4.007,4.007,4.007,4.007,4.007,4.007,4.007,4.007,4.007,3.9696,3.9152,3.8739,3.8026,3.7222,3.6554,3.6258,3.5973,3.5668,3.5604,3.5554,3.5504,3.5504,3.5504,3.5504,3.5504,3.5504,3.5504,3.5504,3.5504,3.5504,0.0,0.0,0.0,0.0,0.0,0.0,3.5504,0.0,0.0,0.0,0.0,0.0,0.0,0.0,3.5504,3.5504,0.0,3.5504,3.5504,3.5504,3.5504,3.5504,3.5504,3.5504,3.5504,3.5504,3.5504,3.5504,3.5148,3.4572,3.3575,3.2875,3.2318,3.1334,3.0986,3.0986,3.0986,3.0986,3.0986,4.4036,4.3763,0.0,0.0,4.3532,0.0,4.3497,4.3497,4.3497,4.3497,4.3497,4.3497,4.3497,4.3497,4.3463,4.3411,0.0,0.0,0.0,4.316,4.3104,4.3104,4.2994,4.2938,4.292,4.292,4.29,4.2882,4.2418,4.2198,4.2198,4.1717,4.1276,4.0849,4.0802,4.058,4.0121,4.0121,4.007,4.007,4.007,4.007,4.007,4.007,4.007,4.007,4.007,4.007,4.007,4.007,4.007,4.007,4.007,4.007,4.007,4.007,3.9696,3.9259,3.9206,3.8367,3.7401,3.7191,3.6662,3.607,3.5752,3.5688,3.5638,3.5554,3.5504,3.5504,3.5504,3.5504,3.5504,3.5504,3.5504,3.5504,3.5504,0.0,0.0,0.0,0.0,0.0,0.0,3.5504,3.5504,0.0,0.0,0.0,0.0,0.0,3.5504,3.5504,3.5504,3.5504,3.5504,3.5504,3.5504,3.5504,3.5504,3.5504,3.5504,3.5504,3.5504,3.5504,3.5504,3.4639,3.3283,3.3213,3.239,3.1048,3.0986,3.0986,3.0986,3.0986,3.0986,3.0986,0.0,0.0,4.3878,4.3878,4.3682,4.3497,4.3497,4.3497,4.3497,4.3497,4.3497,4.3497,4.3497,4.3497,4.3497,4.3463,4.3411,4.334,4.334,4.3233,4.3178,4.3178,4.3142,4.3105,4.3049,4.3049,4.2994,4.2882,4.2418,4.2198,4.2198,4.1717,4.1437,4.1321,4.0972,4.0754,4.0628,4.0254,4.007,4.007,4.007,4.007,4.007,4.007,4.007,4.007,4.007,4.007,4.007,4.007,4.007,4.007,4.007,4.007,4.007,4.007,4.002,3.9799,3.9312,3.8645,3.7953,3.7235,3.6554,3.5958,3.5752,3.5688,3.5638,3.5554,3.5504,3.5504,3.5504,3.5504,3.5504,3.5504,3.5504,3.5504,3.5504,3.5504,0.0,0.0,3.5504,3.5504,3.5504,3.5504,3.5504,0.0,0.0,0.0,0.0,3.5504,3.5504,3.5504,3.5504,3.5504,3.5504,3.5504,3.5504,3.5504,3.5504,3.5504,3.5504,3.5504,3.5504,3.5504,3.5504,3.492,3.3973,3.3422,3.2648,3.1809,3.1185,3.0986,3.0986,3.0986,3.0986,3.0986,4.4572,4.4374,4.4162,4.4162,4.4042,4.3855,4.3749,4.3749,4.3682,4.3513,4.3497,4.3497,4.3497,4.3497,4.3497,4.3497,4.3463,4.3446,4.3446,4.334,4.3305,4.3305,4.3251,4.3178,4.316,4.316,4.3086,4.2994,4.2673,4.2498,4.2498,4.2279,4.1913,4.1481,4.123,4.0879,4.0434,4.0221,4.007,4.007,4.007,4.007,4.007,4.007,4.007,4.007,4.007,4.007,4.007,4.007,4.007,4.007,4.007,4.007,4.007,4.007,4.007,4.002,3.9696,3.8957,3.8051,3.7087,3.6445,3.6022,3.5894,3.5752,3.5638,3.5554,3.5504,3.5504,3.5504,3.5554,3.5539,3.5504,3.5554,3.5539,3.5504,3.5504,0.0,3.5504,3.5504,3.5489,3.5604,3.5554,3.5504,3.5604,0.0,0.0,3.5604,3.5604,3.5539,3.5504,3.5504,3.5504,3.5504,3.5504,3.5504,3.5504,3.5504,3.5504,3.5504,3.5539,3.5604,3.5604,3.5668,3.5249,3.438,3.3851,3.3087,3.2318,3.1542,3.1272,3.1272,3.1061,3.0986,3.0986,4.4868,4.465,4.4465,4.4465,4.443,4.4318,4.4109,4.4048,4.3955,4.3615,4.3582,4.3548,4.3532,4.3497,4.3497,4.3497,4.3497,4.3497,4.3497,4.3446,4.3429,4.3429,4.3286,4.3251,4.3251,4.3214,4.316,4.3104,4.2956,4.2882,4.2882,4.2882,4.248,4.1717,4.1569,4.1047,4.0303,4.0171,4.007,4.007,4.007,4.007,4.007,4.007,4.007,4.007,4.007,4.007,4.007,4.007,4.007,4.007,4.007,4.007,4.007,4.007,4.007,4.007,4.007,3.9226,3.7994,3.6769,3.6399,3.6274,3.6022,3.5958,3.5879,3.5733,3.5619,3.5619,3.5668,3.5718,3.5703,3.5554,3.5653,3.5638,3.5504,0.0,3.5504,3.5504,3.5504,3.5539,3.5688,3.5604,3.5604,3.5752,3.5752,3.5752,0.0,3.5752,3.5703,3.5569,3.5504,3.5504,3.5554,3.5554,3.5569,3.5569,3.5569,3.5569,3.5569,3.5703,3.5752,3.5752,3.591,3.5479,3.4595,3.4206,3.352,3.269,3.1982,3.1629,3.1556,3.1272,3.1136,3.0986,4.5235,4.4957,4.4726,4.4726,4.4546,4.4402,4.4346,4.4346,4.425,4.3955,4.3942,4.3814,4.3513,4.3497,4.3497,4.3497,4.3497,4.3497,4.3497,4.3497,4.3497,4.3497,4.3444,4.3428,4.3376,4.3215,4.3104,4.3104,4.2956,4.2882,4.2882,4.2882,4.2844,4.2673,4.1828,4.1393,4.1213,4.0434,4.007,4.007,4.007,4.007,4.007,4.007,4.007,4.007,4.007,4.007,4.007,4.007,4.007,4.007,4.007,4.007,4.007,4.007,4.007,4.007,4.007,3.9226,3.7937,3.6616,3.6631,3.6876,3.6163,3.6368,3.6723,3.6662,3.6258,3.6085,3.6616,3.6258,3.591,3.5703,3.5688,3.5638,3.5504,0.0,3.5504,3.5504,3.5589,3.5703,3.5688,3.5831,3.591,3.5973,3.5973,3.5973,3.5973,3.5973,3.591,3.591,3.5619,3.5539,3.5703,3.5846,3.591,3.591,3.591,3.591,3.591,3.591,3.5973,3.5973,3.5973,3.5559,3.481,3.3919,3.3297,3.2804,3.2232,3.1823,3.1629,3.1809,3.1529,3.0986,4.5297,4.5173,4.5087,4.5087,4.4976,4.4814,4.465,4.4624,4.4519,4.425,4.4221,4.4162,4.3992,4.3992,4.3918,4.3763,4.3781,4.3682,4.3513,4.3497,4.3497,4.3497,4.3497,4.3497,4.3428,4.3323,4.3251,4.3251,4.3142,4.305,4.3012,4.3012,4.2824,4.2498,4.1803,4.1348,4.1111,4.0385,4.007,4.007,4.007,4.007,4.007,4.007,4.007,4.007,4.007,4.007,4.007,4.007,4.007,4.007,4.007,4.007,4.007,4.007,4.007,4.002,3.9696,3.9189,3.8574,3.7589,3.7472,3.7531,3.716,3.7235,3.7354,3.7354,3.689,3.6554,3.6845,3.6492,3.6022,3.5894,3.5958,0.0,0.0,3.5797,3.5797,3.5797,3.5846,3.5894,3.5943,3.5958,3.6037,3.6085,3.6085,3.6085,3.6085,3.6085,3.6163,3.6304,3.5925,3.5797,3.5831,3.5973,3.5973,3.5973,3.5973,3.5973,3.5973,3.6085,3.6085,3.6085,3.6226,3.6022,3.5529,3.4795,3.438,3.4041,3.2875,3.2331,3.2128,3.169,3.1259,3.0986,4.5317,4.5317,4.5297,4.5297,4.5297,4.5194,4.4957,4.4934,4.4819,4.4519,4.4493,4.4465,4.443,4.4383,4.4318,4.4091,4.4091,4.3968,4.373,4.3631,4.3582,4.3479,4.3497,4.3497,4.3497,4.3446,4.3394,4.3394,4.3251,4.3178,4.3123,4.3123,4.2862,4.2378,4.1931,4.1499,4.1111,4.0531,4.0254,4.0254,4.0121,4.007,4.007,4.007,4.007,4.007,4.007,4.007,4.007,4.007,4.007,4.007,4.007,4.007,4.007,4.007,4.007,3.9969,3.9365,3.9206,3.9028,3.839,3.8246,3.8173,3.806,3.8019,3.8108,3.8108,3.7648,3.7235,3.7413,3.6906,3.6445,3.6258,0.0,0.0,0.0,3.5973,3.5973,3.5973,3.6037,3.6085,3.6196,3.6163,3.6163,3.6274,3.6274,3.6274,3.6274,3.6274,3.6352,3.6492,3.6226,3.61,3.6037,3.61,3.61,3.61,3.61,3.61,3.61,3.6211,3.6274,3.6274,3.6414,3.6414,3.6211,3.5593,3.5335,3.5154,3.3659,3.2903,3.2618,3.1836,3.1347,3.1123,4.5398,4.5338,4.5297,4.5297,4.5297,4.5297,4.5256,4.5256,4.5132,4.48,4.4776,4.4676,4.443,4.4383,4.4383,4.4374,4.4374,4.4374,4.4346,4.4091,4.3814,4.3513,4.3497,4.3497,4.3497,4.3446,4.3394,4.3394,4.3251,4.3214,4.3214,4.3214,4.316,4.3012,4.2555,4.2257,4.2032,4.1157,4.0754,4.0707,4.0271,4.007,4.007,4.007,4.007,4.007,4.007,4.007,4.007,4.007,4.007,4.007,4.007,4.007,4.007,4.007,4.007,3.9969,3.9365,3.9206,3.9011,3.823,3.8486,3.8794,3.8117,3.8486,3.8974,3.9082,3.8629,3.8351,3.892,3.8084,3.7222,3.7071,0.0,0.0,3.6037,3.5973,3.5973,3.5973,3.6085,3.6211,3.6196,3.6352,3.6492,3.6492,3.6492,3.6492,3.6492,3.6492,3.6492,3.6492,3.6492,3.6352,3.6211,3.6352,3.6492,3.6492,3.6492,3.6492,3.6492,3.6492,3.6492,3.6492,3.6492,3.6492,3.6429,3.5529,3.5335,3.5559,3.4409,3.3506,3.2946,3.3044,3.2489,3.1629,4.5338,4.5317,4.5297,4.5297,4.5297,4.5297,4.5297,4.5297,4.5256,4.5132,4.5109,4.5087,4.4976,4.4953,4.4862,4.465,4.465,4.4572,4.4411,4.4289,4.4011,4.3513,4.3497,4.3497,4.3497,4.3463,4.3463,4.3463,4.3428,4.3358,4.334,4.334,4.3269,4.3142,4.2655,4.24,4.2297,4.1648,4.1293,4.1185,4.0707,4.0531,4.0483,4.0221,4.007,4.007,4.007,4.007,4.007,4.007,4.007,4.007,4.007,4.007,4.007,4.007,4.007,4.007,3.9799,3.9747,3.9679,3.9385,3.9506,3.9627,3.9385,3.9506,3.9696,3.9747,3.9295,3.892,3.9152,3.8518,3.7953,3.7879,0.0,3.737,3.6937,3.6876,3.6754,3.6352,3.6352,3.6414,3.6414,3.6492,3.6492,3.6492,3.6492,3.6492,3.6492,3.6492,3.6492,3.6492,3.6492,3.6492,3.6414,3.6492,3.6492,3.6492,3.6492,3.6492,3.6492,3.6492,3.6492,3.6492,3.6492,3.6492,3.6492,3.6006,3.5864,3.5879,3.461,3.3934,3.3575,3.2832,3.2273,3.1909,4.5339,4.5319,4.5317,4.5297,4.5297,4.5297,4.5297,4.5297,4.5297,4.5297,4.5297,4.5297,4.5297,4.5297,4.5213,4.4981,4.4957,4.4887,4.4695,4.4572,4.4289,4.3682,4.3548,4.3497,4.3497,4.3497,4.3497,4.3497,4.3497,4.3463,4.3446,4.3446,4.3376,4.3251,4.2939,4.2732,4.2634,4.2133,4.1778,4.1499,4.1019,4.0707,4.0531,4.0204,4.007,4.007,4.007,4.007,4.007,4.007,4.007,4.007,4.007,4.007,4.007,4.007,4.007,4.007,4.007,4.007,4.007,4.007,4.007,4.007,4.007,4.007,4.007,4.007,3.9747,3.947,3.947,3.8974,3.8574,3.8574,3.8238,3.7838,3.7476,3.7238,3.6952,3.6554,3.6492,3.6492,3.6492,3.6492,3.6492,3.6492,3.6492,3.6492,3.6492,3.6492,3.6492,3.6492,3.6492,3.6492,3.6492,3.6492,3.6492,3.6492,3.6492,3.6492,3.6492,3.6492,3.6492,3.6492,3.6492,3.6492,3.6492,3.6352,3.6274,3.6211,3.5073,3.4409,3.407,3.3101,3.2547,3.2273,4.5419,4.54,4.5379,4.5317,4.5297,4.5297,4.5297,4.5297,4.5297,4.5297,4.5297,4.5297,4.5297,4.5297,4.5297,4.5297,4.5297,4.5297,4.5297,4.5,4.4546,4.4036,4.3682,4.3532,4.3479,4.3479,4.3479,4.3497,4.3497,4.3497,4.3497,4.3497,4.3463,4.3394,4.3394,4.334,4.3178,4.2634,4.2133,4.1666,4.1082,4.0531,4.0121,4.0121,4.0121,4.007,4.007,4.007,4.007,4.007,4.007,4.007,4.007,4.007,4.007,4.007,4.007,4.007,4.007,4.007,4.007,4.007,4.007,4.007,4.007,4.007,4.007,4.007,4.007,4.007,4.007,3.9592,3.9206,3.9206,3.8197,3.7417,3.7417,3.6892,3.6492,3.6492,3.6492,3.6492,3.6492,3.6492,3.6492,3.6492,3.6492,3.6492,3.6492,3.6492,3.6492,3.6492,3.6492,3.6492,3.6492,3.6492,3.6492,3.6492,3.6492,3.6492,3.6492,3.6492,3.6492,3.6492,3.6492,3.6492,3.6492,3.6492,3.6492,3.6429,3.5879,3.5139,3.4312,3.4138,3.352,3.2775,4.5689,4.5675,4.5634,4.547,4.5435,4.5419,4.5319,4.5297,4.5297,4.5297,4.5297,4.5297,4.5297,4.5297,4.5297,4.5297,4.5297,4.5297,4.5297,4.5,4.4726,4.4565,4.4289,4.4042,4.3828,4.3846,4.3749,4.3497,4.3497,4.3497,4.3497,4.3497,4.3497,4.3463,4.3463,4.3428,4.334,4.3178,4.2975,4.2693,4.2157,4.1692,4.1311,4.0802,4.0451,4.0238,4.0121,4.007,4.007,4.007,4.007,4.007,4.007,4.007,4.007,4.007,4.007,4.007,4.007,4.007,4.007,4.007,4.007,4.007,4.007,4.007,4.007,4.007,4.007,4.007,4.007,3.9969,3.985,3.985,3.9523,3.9135,3.8701,3.8535,3.8067,3.7238,3.7118,3.6952,3.6554,3.6492,3.6492,3.6492,3.6492,3.6492,3.6492,3.6492,3.6492,3.6492,3.6492,3.6492,3.6492,3.6492,3.6492,3.6492,3.6492,3.6492,3.6492,3.6492,3.6492,3.6492,3.6492,3.6492,3.6492,3.6492,3.6492,3.6429,3.5879,3.5544,3.5204,3.481,3.4274,3.3728,4.5832,4.5832,4.5796,4.5636,4.558,4.5503,4.54,4.5361,4.5338,4.5297,4.5297,4.5297,4.5297,4.5297,4.5297,4.5297,4.5297,4.5297,4.5297,4.5109,4.5,4.5,4.4838,4.4565,4.4181,4.4048,4.391,4.3682,4.3548,4.3497,4.3497,4.3497,4.3497,4.3497,4.3497,4.3463,4.3446,4.3411,4.3251,4.2957,4.2577,4.2198,4.1803,4.1366,4.0955,4.058,4.0466,4.0286,4.0188,4.0138,4.007,4.007,4.007,4.007,4.007,4.007,4.007,4.007,4.007,4.007,4.007,4.007,4.007,4.007,4.007,4.007,4.007,4.007,4.007,4.007,4.007,4.007,4.007,4.007,3.9918,3.9644,3.9259,3.8974,3.8574,3.7854,3.7519,3.7238,3.6892,3.6662,3.6492,3.6492,3.6492,3.6492,3.6492,3.6492,3.6492,3.6492,3.6492,3.6492,3.6492,3.6492,3.6492,3.6492,3.6492,3.6492,3.6492,3.6492,3.6492,3.6492,3.6492,3.6492,3.6492,3.6492,3.6492,3.6492,3.6148,3.5894,3.5688,3.535,3.489,3.4409,4.5938,4.5938,4.5897,4.5825,4.5711,4.5615,4.5517,4.5456,4.5399,4.5317,4.5317,4.5317,4.5317,4.5317,4.5317,4.5297,4.5297,4.5297,4.5297,4.5297,4.5297,4.5297,4.5297,4.5042,4.4493,4.4192,4.4048,4.4036,4.3716,4.3548,4.3548,4.3513,4.3497,4.3497,4.3497,4.3497,4.3497,4.3446,4.316,4.275,4.2619,4.2324,4.1895,4.1853,4.1552,4.1076,4.0967,4.0642,4.0305,4.0138,4.007,4.007,4.007,4.007,4.007,4.007,4.007,4.007,4.007,4.007,4.007,4.007,4.007,4.007,4.007,4.007,4.007,4.007,4.007,4.007,4.007,4.007,4.007,4.007,3.9644,3.9259,3.9259,3.8794,3.8446,3.839,3.7911,3.7519,3.7476,3.6952,3.6554,3.6492,3.6492,3.6492,3.6492,3.6492,3.6492,3.6492,3.6492,3.6492,3.6492,3.6492,3.6492,3.6492,3.6492,3.6492,3.6492,3.6492,3.6492,3.6492,3.6492,3.6492,3.6492,3.6492,3.6492,3.6492,3.6492,3.6226,3.5752,3.5752,3.5415,3.4876,4.6211,4.6206,4.617,4.5994,4.5939,4.5839,4.5596,4.5555,4.5507,4.54,4.5381,4.538,4.5379,4.5378,4.5359,4.5297,4.5297,4.5297,4.5297,4.5297,4.5297,4.5297,4.5297,4.5235,4.5106,4.4795,4.4519,4.4318,4.403,4.391,4.3878,4.3615,4.3497,4.3497,4.3497,4.3497,4.3497,4.3497,4.341,4.3339,4.3232,4.2995,4.2616,4.236,4.1846,4.1213,4.0926,4.058,4.0305,4.0138,4.007,4.007,4.007,4.007,4.007,4.007,4.007,4.007,4.007,4.007,4.007,4.007,4.007,4.007,4.007,4.007,4.007,4.007,4.007,4.007,4.007,4.007,4.007,4.007,3.9969,3.9901,3.9901,3.9799,3.9523,3.9082,3.8865,3.8629,3.8124,3.7578,3.7013,3.6554,3.6492,3.6492,3.6492,3.6492,3.6492,3.6492,3.6492,3.6492,3.6492,3.6492,3.6492,3.6492,3.6492,3.6492,3.6492,3.6492,3.6492,3.6492,3.6492,3.6492,3.6492,3.6492,3.6492,3.6492,3.6492,3.6429,3.6352,3.6352,3.5958,3.5415,4.63,4.63,4.6273,4.6162,4.6092,4.5985,4.5817,4.5751,4.5679,4.5507,4.5509,4.5455,4.5419,4.54,4.538,4.5338,4.5317,4.5297,4.5297,4.5297,4.5297,4.5297,4.5297,4.5297,4.5297,4.5132,4.4887,4.4599,4.4192,4.4005,4.4005,4.3649,4.3497,4.3497,4.3497,4.3497,4.3497,4.3497,4.3497,4.3497,4.3463,4.3358,4.316,4.2976,4.2559,4.1997,4.1743,4.1139,4.05,4.0221,4.007,4.007,4.007,4.007,4.007,4.007,4.007,4.007,4.007,4.007,4.007,4.007,4.007,4.007,4.007,4.007,4.007,4.007,4.007,4.007,4.007,4.007,4.007,4.007,4.007,4.007,4.007,4.007,3.9969,3.9696,3.9365,3.8974,3.8351,3.7738,3.7298,3.6952,3.6662,3.6492,3.6492,3.6492,3.6492,3.6492,3.6492,3.6492,3.6492,3.6492,3.6492,3.6492,3.6492,3.6492,3.6492,3.6492,3.6492,3.6492,3.6492,3.6492,3.6492,3.6492,3.6492,3.6492,3.6492,3.6492,3.6492,3.6492,3.6022,3.5219,4.63,4.63,4.63,4.63,4.6211,4.6112,4.6025,4.5969,4.5863,4.5675,4.565,4.5591,4.5475,4.5419,4.54,4.5399,4.5359,4.5317,4.5317,4.5317,4.5297,4.5297,4.5297,4.5297,4.5297,4.5297,4.5173,4.491,4.4374,4.4091,4.4079,4.3749,4.3548,4.3497,4.3497,4.3497,4.3497,4.3497,4.3497,4.3497,4.3497,4.3497,4.3497,4.3497,4.3232,4.2882,4.258,4.175,4.0737,4.0385,4.0171,4.007,4.007,4.007,4.007,4.007,4.007,4.007,4.007,4.007,4.007,4.007,4.007,4.007,4.007,4.007,4.007,4.007,4.007,4.007,4.007,4.007,4.007,4.007,4.007,4.007,4.007,4.007,4.007,4.007,3.9644,3.9135,3.8518,3.7911,3.7519,3.7417,3.6831,3.6492,3.6492,3.6492,3.6492,3.6492,3.6492,3.6492,3.6492,3.6492,3.6492,3.6492,3.6492,3.6492,3.6492,3.6492,3.6492,3.6492,3.6492,3.6492,3.6492,3.6492,3.6492,3.6492,3.6492,3.6492,3.6492,3.6492,3.5894,3.5023,4.63,4.63,4.63,4.63,4.6277,4.624,4.6105,4.6084,4.6033,4.5878,4.5809,4.5752,4.5673,4.5491,4.54,4.54,4.538,4.5398,4.5398,4.5338,4.5297,4.5297,4.5297,4.5297,4.5297,4.5297,4.5297,4.5235,4.4887,4.4572,4.4346,4.406,4.3781,4.3497,4.3497,4.3497,4.3497,4.3497,4.3497,4.3497,4.3497,4.3497,4.3497,4.3446,4.3214,4.2882,4.258,4.1793,4.0874,4.0827,4.0497,4.007,4.007,4.007,4.007,4.007,4.007,4.007,4.007,4.007,4.007,4.007,4.007,4.007,4.007,4.007,4.007,4.007,4.007,4.007,4.007,4.007,4.007,4.007,4.007,4.007,4.007,4.007,4.007,4.007,4.002,3.9747,3.9152,3.8518,3.7953,3.7417,3.6831,3.6492,3.6492,3.6492,3.6492,3.6492,3.6492,3.6492,3.6492,3.6492,3.6492,3.6492,3.6492,3.6492,3.6492,3.6492,3.6492,3.6492,3.6492,3.6492,3.6492,3.6492,3.6492,3.6492,3.6492,3.6492,3.6492,3.6492,3.6085,3.5608,4.63,4.63,4.63,4.63,4.63,4.6277,4.6216,4.6211,4.615,4.6041,4.5919,4.5822,4.5747,4.558,4.5476,4.5476,4.5419,4.54,4.54,4.5361,4.536,4.5359,4.5378,4.5338,4.5297,4.5297,4.5297,4.5297,4.4957,4.4726,4.4624,4.421,4.391,4.3781,4.3582,4.3497,4.3497,4.3497,4.3497,4.3497,4.3497,4.3497,4.3497,4.3463,4.3358,4.3178,4.277,4.2284,4.1732,4.149,4.1013,4.0528,4.0528,4.0319,4.007,4.007,4.007,4.007,4.007,4.007,4.007,4.007,4.007,4.007,4.007,4.007,4.007,4.007,4.007,4.007,4.007,4.007,4.007,4.007,4.007,4.007,4.007,4.007,4.007,4.007,4.007,4.002,3.9747,3.9135,3.8574,3.7953,3.7342,3.6846,3.6492,3.6492,3.6492,3.6492,3.6492,3.6492,3.6492,3.6492,3.6492,3.6492,3.6492,3.6492,3.6492,3.6492,3.6492,3.6492,3.6492,3.6492,3.6492,3.6492,3.6492,3.6492,3.6492,3.6492,3.6492,3.6492,3.6148,3.5688]}]]